     2              OBSERVATION DATA    GPS                 RINEX VERSION / TYPE
teqc 2000Feb29 20021016 17:28:39UTC                         PGM / RUN BY / DATE
                                                            COMMENT
L2: 1 -> 1; 5 -> 5; 60 -> 9                                 COMMENT
L2: 1 -> 1; 5 -> 5; 60 -> 9                                 COMMENT
L2: 1 -> 1; 5 -> 5; 60 -> 9                                 COMMENT
L2: 1 -> 1; 5 -> 5; 60 -> 9                                 COMMENT
L2: 1 -> 1; 5 -> 5; 60 -> 9                                 COMMENT
Original Marker Name: 1069                                  COMMENT
Campaign Name: Yolo County Subsidence 2002                  COMMENT
4-Character Station Name: 1069                              COMMENT
6-Character Antenna Code: TRMCMP                            COMMENT
Vertical Measurement Point: BPA                             COMMENT
Vertical Offset to Rinex Ref. Point: 0.0000                 COMMENT
Radial Measurement Point: RRP                               COMMENT
Radial Offset to Rinex Ref. Point: 0.0000                   COMMENT
Antenna Height from Field Measurement: 2.0000 m             COMMENT
Additional Antenna Identification Info.:                    COMMENT
Model 22020.00+GP                                           COMMENT
Original XYZ: -2643324.2036 -4234884.1460 3956525.9064      COMMENT
New XYZ position is based on association with SCEC monument COMMENT
E1F8X6N7+0011. Position of that monument is believed to be  COMMENT
valid to within 1 m horizontally; vertical accuracy         COMMENT
should be no worse than 3-times this value.                 COMMENT
                                                            COMMENT
Revised Rinex header created by UCSD GPS archive for        COMMENT
GSAC on 27-Jun-2003 (2003:178) 16:21:41 GMT                 COMMENT
For assistance contact dagnew@ucsd.edu                      COMMENT
or anderson@python.ucsd.edu                                 COMMENT
                                                            COMMENT
T 1069 1967                                                 MARKER NAME
1069                                                        MARKER NUMBER
-Unknown- YOLO_COUNTY                                       OBSERVER / AGENCY
16905 TRIMBLE 4000 SSI NP 7.32; SP 3.08                     REC # / TYPE / VERS
67408 TR GEOD L1/L2 GP                                      ANT # / TYPE
 -2643322.2934 -4234881.1282  3956520.5187                  APPROX POSITION XYZ
        2.0000        0.0000        0.0000                  ANTENNA: DELTA H/E/N
     1     1     0                                          WAVELENGTH FACT L1/2
     7    C1    L1    L2    P1    P2    S1    S2            # / TYPES OF OBSERV
     0                                                      INTERVAL
  2002     7    15    18    33   45.000000                  TIME OF FIRST OBS
  2002     7    15    19    40   30.000000                  TIME OF LAST OBS
                                                            END OF HEADER
 02  7 15 18 33 45.0000000  0  8G 3G 9G14G15G17G18G21G31
  21520545.4534     317269.61458    195723.35757                  21520553.3444
        30.7504         28.7504
  23598753.7114      81085.08255     56019.47755                  23598761.8954
        11.5004         11.0004
  21488144.8054    -206610.27757   -121370.38257                  21488152.5084
        27.2504         29.2504
  21592375.0004     584906.90757    359848.44356                  21592383.2544
        26.5004         25.0004
  22290441.4144     669193.29656    424012.85956                  22290451.1564
        17.0004         16.7504
  21488710.7194     541771.06558    333323.82457                  21488717.3054
        28.2504         26.0004
  20969596.8914     235159.02758    145616.98457                  20969603.5234
        31.0004         28.7504
  22924560.1724     -88636.28256    -48261.83156                  22924569.6804
        16.2504         14.7504
 02  7 15 18 34  0.0000000  0  8G 3G 9G14G15G17G18G21G31
  21526407.5474     348075.47448    219727.91547                  21526415.5084
        30.2504         28.7504
  23600621.7504      90904.12345     63670.68645                  23600629.9574
        11.0004         10.5004
  21485014.8674    -223057.25547   -134186.17447                  21485022.2894
        27.7504         29.0004
  21602998.0554     640730.83547    403347.57746                  21603006.6724
        26.5004         25.2504
  22301890.1884     729358.40946    470894.71646                  22301899.6604
        16.7504         16.5004
  21498541.2664     593430.63848    373578.02347                  21498547.7934
        28.7504         26.2504
  20973973.9774     258160.26948    163540.03347                  20973980.6334
        30.7504         28.7504
  22923637.8054     -93484.36146    -52039.52246                  22923647.1604
        16.2504         15.0004
 02  7 15 18 34 15.0000000  0  8G 3G 9G14G15G17G18G21G31
  21532333.7664     379218.17548    243994.94247                  21532341.7624
        30.2504         28.7504
  23602553.0634     101050.27245     71576.76745                  23602561.9384
        11.0004         10.7504
  21481942.2664    -239205.07847   -146768.86647                  21481949.4884
        27.7504         29.2504
  21613673.7664     696831.84147    447062.61246                  21613682.2774
        27.0004         25.5004
  22313390.6334     789793.41346    517986.85946                  22313400.0594
        16.5004         16.0004
  21508417.5554     645330.10848    414019.15447                  21508424.2344
        29.0004         26.0004
  20978397.7894     281407.56048    181654.80447                  20978404.5394
        31.2504         29.0004
  22922776.4144     -98011.18046    -55566.88846                  22922785.3014
        16.0004         14.7504
 02  7 15 18 34 30.0000000  0  8G 3G 9G14G15G17G18G21G31
  21538320.2194     410677.41848    268508.62947                  21538328.1334
        30.5004         29.0004
  23604542.2274     111503.53745     79722.20245                  23604550.6214
        11.0004         10.5004
  21478922.5784    -255073.74448   -159134.02547                  21478929.3874
        28.2504         29.0004
  21624398.5084     753189.57947    490977.71646                  21624406.9384
        26.7504         25.5004
  22324938.4614     850478.10346    565273.59246                  22324947.1724
        16.2504         16.5004
  21518335.3364     697449.09448    454631.34047                  21518342.1454
        29.0004         26.0004
  20982864.4694     304880.65848    199945.52947                  20982871.1484
        30.5004         28.7504
  22921971.8674    -102236.59046    -58859.40046                  22921980.1804
        15.7504         14.2504
 02  7 15 18 34 45.0000000  0  8G 3G 9G14G15G17G18G21G31
  21544365.3834     442444.54948    293262.22947                  21544373.4024
        30.5004         29.0004
  23606587.7504     122255.65545     88100.47545                  23606597.1294
        10.7504         11.0004
  21475954.2344    -270671.45948   -171288.06347                  21475961.0554
        28.5004         29.2504
  21635170.2344     809795.51947    535086.19946                  21635178.5704
        26.5004         25.5004
  22336532.3134     911403.82046    612748.12646                  22336541.6214
        15.7504         16.5004
  21528293.4534     749778.94948    495407.83147                  21528300.5354
        28.5004         26.5004
  20987372.6094     328570.95748    218405.49947                  20987379.2304
        30.7504         29.0004
  22921223.2814    -106168.84246    -61923.45746                  22921231.2074
        15.0004         13.7504
 02  7 15 18 35  0.0000000  0  8G 3G 9G14G15G17G18G21G31
  21550467.4614     474510.26548    318248.48947                  21550475.2584
        30.7504         29.0004
  23608689.6414     133297.59345     96704.60445                  23608699.3714
        10.7504         11.7504
  21473036.0004    -286007.25247   -183238.00347                  21473043.1054
        27.7504         29.5004
  21645987.4844     866640.37847    579380.87146                  21645995.8794
        26.5004         25.5004
  22348170.3594     972561.31746    660403.24646                  22348179.7624
        15.2504         16.2504
  21538289.8364     802310.33848    536341.36647                  21538296.8834
        29.0004         26.5004
  20991920.2274     352469.21548    237027.52047                  20991927.0004
        30.5004         29.0004
  22920529.1414    -109817.09946    -64766.22346                  22920537.0664
        15.0004         14.2504
 02  7 15 18 35 15.0000000  0  8G 3G 9G14G15G17G18G21G31
  21556623.3674     506860.82848    343456.71347                  21556631.3984
        29.7504         28.7504
  23610842.9224     144616.07245    105524.20145                  23610852.3484
        10.5004         11.5004
  21470164.9454    -301094.43047   -194994.21247                  21470172.2384
        27.7504         29.5004
  21656847.6334     923710.46147    623851.03746                  21656855.8404
        26.7504         25.5004
  22359849.6094    1033936.94946    708228.36946                  22359859.7154
        15.0004         16.2504
  21548322.1484     855029.51548    577421.22847                  21548329.0434
        29.5004         26.7504
  20996504.9454     376561.79148    255800.95147                  20996511.8754
        30.0004         28.7504
  22919886.4064    -113194.72246    -67398.11646                  22919894.7774
        15.0004         14.5004
 02  7 15 18 35 30.0000000  0  8G 3G 9G14G15G17G18G21G31
  21562833.0944     539493.68748    368884.90747                  21562840.8794
        30.0004         29.0004
  23613049.8444     156208.85545    114557.55945                  23613059.9264
        10.7504         11.7504
  21467340.7894    -315935.14648   -206558.37147                  21467348.1994
        28.0004         29.2504
  21667750.0164     981003.31247    668494.79447                  21667758.0234
        26.7504         25.7504
  22371569.7664    1095528.21746    756221.49746                  22371580.4694
        14.2504         15.7504
  21558389.4064     907933.96448    618645.45747                  21558396.3594
        29.5004         26.7504
  21001126.2114     400846.27748    274723.92647                  21001133.0434
        30.5004         28.7504
  22919294.6484    -116303.87346    -69820.81046                  22919303.0554
        14.7504         14.5004
 02  7 15 18 35 45.0000000  0  8G 3G 9G14G15G17G18G21G31
  21569098.1484     572416.27948    394538.87247                  21569105.9344
        29.5004         28.5004
  23615309.1334     168083.61745    123810.60945                  23615318.5594
        10.5004         11.2504
  21464565.0784    -330521.60548   -217924.41347                  21464572.4774
        28.2504         29.7504
  21678696.1094    1038526.32347    713317.89247                  21678704.3404
        26.7504         25.7504
  22383332.6564    1157342.57046    804388.46546                  22383343.0204
        14.5004         16.2504
  21568493.3524     961031.06948    660019.80947                  21568500.2464
        29.7504         26.7504
  21005785.2034     425329.95548    293802.11647                  21005792.0354
        30.0004         28.7504
  22918755.5944    -119136.84746    -72028.27946                  22918764.1524
        15.7504         14.5004
 02  7 15 18 36  0.0000000  0  8G 3G 9G14G15G17G18G21G31
  21575415.3204     605612.70648    420406.20947                  21575423.3164
        29.5004         28.5004
  23617619.1174     180224.66745    133271.18445                  23617629.5864
        10.7504         11.5004
  21461834.7894    -344869.48848   -229104.54547                  21461841.9774
        28.0004         29.7504
  21689683.2894    1096263.63247    758307.98647                  21689691.6374
        26.2504         26.0004
  22395135.7664    1219364.05146    852716.83646                  22395146.0824
        15.0004         16.5004
  21578631.2034    1014304.76248    701531.75647                  21578638.0474
        30.2504         27.0004
  21010479.1174     449996.97348    313023.16647                  21010485.9774
        30.0004         28.7504
  22918266.0704    -121709.19546    -74032.67346                  22918274.5594
        16.2504         15.0004
 02  7 15 18 36 15.0000000  0  8G 3G 9G14G15G17G18G21G31
  21581781.7504     639069.92748    446476.76147                  21581789.7934
        29.5004         28.5004
  23619978.0474     192619.50045    142929.52745                  23619988.4694
        10.5004         11.0004
  21459147.4064    -358991.55048   -240108.72147                  21459154.3014
        28.2504         29.5004
  21700708.6174    1154202.29247    803454.97047                  21700717.1764
        25.5004         25.7504
  22406974.9694    1281579.81746    901196.59546                  22406985.2154
        15.7504         17.0004
  21588799.8984    1067742.08248    743171.21147                  21588806.6604
        30.2504         27.0004
  21015205.6094     474834.37148    332376.98047                  21015212.4804
        29.5004         28.7504
  22917823.5394    -124033.64546    -75843.90146                  22917831.7934
        16.5004         15.0004
 02  7 15 18 36 30.0000000  0  8G 3G 9G14G15G17G18G21G31
  21588194.9064     672770.90248    472737.25447                  21588203.0084
        29.5004         28.5004
  23622381.7814     205251.47645    152772.61545                  23622391.8284
        10.7504         11.5004
  21456499.7584    -372904.24847   -250949.75747                  21456506.7584
        27.5004         29.5004
  21711769.2814    1212325.53947    848745.78947                  21711777.9104
        25.2504         25.7504
  22418848.3444    1343972.76046    949814.42346                  22418857.7934
        16.5004         17.2504
  21598996.5784    1121326.02748    784924.92147                  21599003.0004
        30.7504         27.0004
  21019961.2424     499825.17748    351850.33647                  21019968.2544
        30.0004         28.7504
  22917425.6484    -126126.77046    -77474.88046                  22917434.1024
        16.5004         15.0004
 02  7 15 18 36 45.0000000  0  8G 3G 9G14G15G17G18G21G31
  21594655.8134     706722.59148    499193.11047                  21594663.7734
        29.5004         28.5004
  23624831.8674     218127.69145    162806.05145                  23624842.5354
        10.5004         11.5004
  21453893.4304    -386600.31347   -261621.98947                  21453900.7234
        26.7504         29.2504
  21722866.2194    1270640.29747    894185.83747                  21722874.8364
        25.2504         26.0004
  22430755.9064    1406550.13246    998575.95146                  22430765.5434
        16.5004         17.5004
  21609222.5784    1175063.55048    826798.29647                  21609229.1054
        30.7504         27.0004
  21024747.3524     524976.30948    371448.62047                  21024754.3984
        29.0004         28.5004
  22917072.7814    -127981.43146    -78920.04746                  22917081.1994
        16.5004         15.5004
 02  7 15 18 37  0.0000000  0  8G 3G 9G14G15G17G18G21G31
  21601163.1644     740918.89048    525839.56847                  21601171.1844
        29.0004         28.7504
  23627327.5554     231242.42445    173025.33845                  23627338.0474
        10.5004         10.7504
  21451327.2504    -400085.52247   -272129.90747                  21451334.6254
        27.7504         29.5004
  21733998.2584    1329140.31047    939770.24447                  21734007.0394
        25.2504         26.0004
  22442698.5084    1469305.62046   1047476.28246                  22442708.3094
        16.2504         17.5004
  21619476.4064    1228948.42348    868786.49547                  21619483.0864
        30.5004         27.0004
  21029562.7974     550281.82448    391167.20347                  21029569.8204
        29.5004         28.5004
  22916764.0944    -129603.43646    -80183.90746                  22916772.6994
        16.0004         15.0004
 02  7 15 18 37 15.0000000  0  8G 3G 9G14G15G17G18G21G31
  21607715.9144     775353.56448    552671.77047                  21607724.1914
        28.7504         28.7504
  23629867.7034     244589.69545    183425.82445                  23629876.3794
        11.5004         11.0004
  21448800.1094    -413365.98748   -282478.29447                  21448807.4264
        28.2504         29.7504
  21745164.5864    1387819.40647    985494.18647                  21745173.5314
        25.2504         25.7504
  22454672.7114    1532232.95446   1096510.51346                  22454682.7234
        16.5004         17.7504
  21629757.2734    1282974.36448    910884.60947                  21629763.9064
        30.5004         26.7504
  21034406.5474     575735.18648    411000.99347                  21034413.6054
        29.7504         28.5004
  22916498.4384    -130998.67946    -81271.08346                  22916507.0784
        16.0004         15.0004
 02  7 15 18 37 30.0000000  0  8G 3G 9G14G15G17G18G21G31
  21614312.3364     810018.69048    579683.54647                  21614320.5434
        29.0004         28.7504
  23632450.5234     258162.08045    194001.70245                  23632459.4804
        11.2504         11.0004
  21446310.5554    -426449.08947   -292672.89147                  21446317.9534
        27.5004         29.7504
  21756363.3284    1446669.92647   1031351.70747                  21756372.4144
        25.0004         25.7504
  22466678.8204    1595324.50246   1145672.69546                  22466688.7624
        16.7504         17.5004
  21640063.3134    1337133.48648    953086.50847                  21640069.8634
        30.7504         26.5004
  21039276.5084     601328.80448    430944.07247                  21039283.4144
        29.5004         28.7504
  22916274.3834    -132174.72546    -82187.45646                  22916283.4224
        15.5004         15.0004
 02  7 15 18 37 45.0000000  0  8G 3G 9G14G15G17G18G21G31
  21620952.3284     844911.01348    606872.35647                  21620960.6054
        29.2504         28.7504
  23635075.4224     271956.61046    204750.70145                  23635084.4614
        12.2504         11.2504
  21443858.0084    -439337.66647   -302715.90247                  21443865.4184
        27.5004         29.7504
  21767594.4924    1505688.64547   1077340.28847                  21767603.7424
        24.5004         26.0004
  22478715.2894    1658577.07846   1194960.36046                  22478725.2424
        16.2504         17.5004
  21650394.2424    1391422.56348    995389.67147                  21650400.8054
        30.2504         26.5004
  21044172.9844     627059.53248    450993.98747                  21044179.9964
        29.7504         28.2504
  22916091.6174    -133134.42146    -82935.24546                  22916100.7624
        15.2504         15.0004
 02  7 15 18 38  0.0000000  0  8G 3G 9G14G15G17G18G21G31
  21627636.5784     880037.46148    634243.60647                  21627644.8204
        29.0004         28.7504
  23637744.2584     285980.54146    215678.46745                  23637753.6134
        12.7504         11.2504
  21441443.4454    -452024.50547   -312601.72247                  21441450.6564
        27.2504         29.7504
  21778858.4924    1564882.43547   1123465.28446                  21778867.3794
        24.5004         25.5004
  22490784.0864    1721997.50346   1244378.80546                  22490794.3794
        16.2504         17.2504
  21660750.9924    1445848.42248   1037799.41247                  21660757.8874
        29.7504         26.5004
  21049096.9924     652934.34548    471156.18247                  21049103.8244
        29.0004         28.2504
  22915951.9774    -133870.63346    -83508.88846                  22915960.9804
        15.5004         15.0004
 02  7 15 18 38 15.0000000  0  8G 3G 9G14G15G17G18G21G31
  21634365.5554     915398.11348    661797.35347                  21634373.7034
        29.0004         28.7504
  23640456.8524     300234.24346    226785.24545                  23640466.4414
        13.0004         11.5004
  21439067.7114    -464509.17347   -322330.00947                  21439074.8874
        27.0004         29.7504
  21790155.9304    1624251.39747   1169726.78046                  21790165.0744
        24.2504         25.0004
  22502884.6024    1785585.94346   1293928.17946                  22502894.4844
        16.2504         17.5004
  21671134.1884    1500411.11848   1080315.78047                  21671141.3634
        29.7504         26.5004
  21054048.0084     678953.19048    491430.60347                  21054054.9144
        29.5004         28.5004
  22915854.1094    -134382.83546    -83907.97246                  22915862.8324
        15.7504         15.0004
 02  7 15 18 38 30.0000000  0  8G 3G 9G14G15G17G18G21G31
  21641137.1644     950982.90348    689525.74847                  21641145.2194
        29.2504         28.5004
  23643211.2664     314707.96646    238063.49245                  23643220.0704
        12.5004         11.5004
  21436728.7894    -476801.35447   -331908.29747                  21436735.9884
        27.0004         29.5004
  21801485.1724    1683785.66647   1216117.09346                  21801494.1644
        24.2504         25.0004
  22515015.0634    1849332.57646   1343600.81646                  22515025.4844
        16.2504         17.5004
  21681541.1954    1555100.67348   1122930.99247                  21681548.1024
        29.7504         26.2504
  21059024.8444     705106.33448    511809.67947                  21059031.8674
        29.2504         28.2504
  22915797.3284    -134680.77746    -84140.11546                  22915805.9224
        15.5004         15.0004
 02  7 15 18 38 45.0000000  0  8G 3G 9G14G15G17G18G21G31
  21647952.5314     986799.60448    717434.85947                  21647960.5514
        29.7504         28.7504
  23646008.6724     329409.99746    249519.62345                  23646016.7854
        12.5004         11.5004
  21434427.6094    -488892.84147   -341330.20647                  21434434.7854
        27.7504         29.2504
  21812846.8134    1743493.05247   1262642.30146                  21812855.7114
        23.5004         24.7504
  22527177.2424    1913245.08746   1393402.70146                  22527187.5004
        16.2504         17.0004
  21691973.8054    1609924.91148   1165651.16547                  21691980.8054
        29.5004         26.0004
  21064028.6334     731401.65148    532299.53147                  21064035.6094
        29.5004         28.2504
  22915782.7664    -134756.41546    -84199.02346                  22915791.5474
        15.0004         14.7504
 02  7 15 18 39  0.0000000  0  8G 3G 9G14G15G17G18G21G31
  21654813.0164    1022850.02048    745526.08247                  21654820.9064
        29.5004         28.7504
  23648849.7814     344342.29546    261155.19246                  23648859.5594
        12.7504         12.0004
  21432165.1644    -500781.62647   -350594.16547                  21432172.4344
        27.5004         29.7504
  21824242.3444    1803375.30047   1309303.75546                  21824251.1024
        23.7504         24.2504
  22539371.3914    1977325.21946   1443335.20846                  22539381.5664
        16.5004         17.0004
  21702432.4614    1664885.40348   1208477.49647                  21702439.2814
        29.7504         26.0004
  21069059.8134     757840.67448    552901.36647                  21069066.8134
        29.5004         28.2504
  22915811.5634    -134607.62646    -84083.06346                  22915819.9454
        14.7504         15.0004
 02  7 15 18 39 15.0000000  0  8G 3G 9G14G15G17G18G21G31
  21661712.7424    1059109.02548    773779.83847                  21661720.7034
        29.5004         28.7504
  23651731.1484     359480.03646    272950.86145                  23651741.2774
        12.7504         11.5004
  21429936.7424    -512492.37948   -359719.40047                  21429943.9774
        28.2504         29.7504
  21835666.0084    1863407.38247   1356081.97246                  21835674.5784
        24.5004         24.2504
  22551592.4534    2041548.02546   1493378.89246                  22551602.3714
        16.0004         16.2504
  21712912.3594    1719957.09748   1251390.48447                  21712919.3014
        29.7504         26.0004
  21074113.6644     784398.54648    573595.81047                  21074120.9454
        29.5004         28.2504
  22915877.4614    -134259.03946    -83811.39846                  22915886.1954
        15.0004         15.2504
 02  7 15 18 39 30.0000000  0  8G 3G 9G14G15G17G18G21G31
  21668654.8914    1095589.39648    802206.09347                  21668662.6414
        29.0004         28.2504
  23654652.9304     374836.44546    284916.90645                  23654663.4104
        12.7504         11.7504
  21427744.7584    -524012.02048   -368695.71947                  21427751.9804
        28.0004         29.7504
  21847120.8524    1923602.16647   1402986.96246                  21847129.4224
        24.5004         24.0004
  22563843.2424    2105926.20446   1543543.64646                  22563853.0554
        16.2504         16.0004
  21723415.6954    1775152.82548   1294400.11947                  21723422.4104
        30.0004         26.0004
  21079192.5234     811087.92748    594392.73147                  21079199.6174
        29.7504         28.2504
  22915984.1884    -133697.83846    -83374.08446                  22915993.3674
        14.5004         15.2504
 02  7 15 18 39 45.0000000  0  8G 3G 9G14G15G17G18G21G31
  21675636.3204    1132278.56448    830795.04547                  21675644.3404
        28.5004         28.5004
  23657614.3054     390399.10846    297043.65746                  23657624.6454
        12.5004         12.0004
  21425586.6804    -535352.85848   -377532.70847                  21425593.8204
        28.0004         29.7504
  21858604.0864    1983947.15247   1450008.99946                  21858612.5044
        24.7504         24.2504
  22576120.9844    2170447.26246   1593819.72346                  22576131.0314
        15.5004         15.7504
  21733940.4534    1830460.08148   1337496.65746                  21733947.1334
        30.0004         25.5004
  21084293.9144     837896.44448    615282.48247                  21084301.0314
        29.7504         28.5004
  22916129.2734    -132936.18646    -82780.55746                  22916137.9494
        15.0004         15.0004
 02  7 15 18 40  0.0000000  0  8G 3G 9G14G15G17G18G21G31
  21682656.4844    1169168.20748    859540.20747                  21682664.6684
        28.5004         28.2504
  23660613.7274     406160.22146    309325.09546                  23660624.4534
        12.5004         12.2504
  21423461.2974    -546522.76948   -386236.50447                  21423468.4024
        28.0004         29.7504
  21870114.2894    2044434.00347   1497141.58046                  21870122.7544
        25.2504         24.0004
  22588424.5394    2235103.05146   1644200.79546                  22588434.4574
        15.0004         15.5004
  21744484.6024    1885870.48148   1380673.57746                  21744490.9414
        30.0004         25.5004
  21089416.7504     864815.76248    636258.57247                  21089423.7854
        30.2504         28.5004
  22916310.6954    -131981.90946    -82036.92946                  22916319.7114
        16.0004         15.5004
 02  7 15 18 40 15.0000000  0  8G 3G 9G14G15G17G18G21G31
  21689715.7114    1206265.71748    888447.35047                  21689723.8244
        28.2504         28.2504
  23663651.8204     422127.46346    321767.12045                  23663662.2894
        12.2504         11.7504
  21421369.4844    -557513.94347   -394801.02447                  21421376.6134
        27.7504         29.7504
  21881653.1094    2105070.36147   1544390.67146                  21881661.4694
        25.0004         24.0004
  22600755.6254    2299901.11846   1694692.74346                  22600765.9534
        15.2504         15.5004
  21755050.0164    1941391.28348   1423936.52146                  21755056.2504
        30.0004         25.2504
  21094561.5234     891853.26148    657326.75547                  21094568.5594
        30.2504         28.5004
  22916530.2814    -130827.42246    -81137.30746                  22916538.6994
        15.2504         15.2504
 02  7 15 18 40 30.0000000  0  8G 3G 9G14G15G17G18G21G31
  21696814.8204    1243571.52548    917516.79847                  21696822.9224
        28.5004         28.2504
  23666729.8984     438301.51046    334370.29546                  23666739.7934
        12.2504         12.0004
  21419311.9924    -568325.64047   -403225.69747                  21419319.0864
        27.7504         29.5004
  21893220.2424    2165856.62747   1591756.55446                  21893228.7894
        25.2504         23.5004
  22613113.3444    2364841.84946   1745295.84246                  22613124.3404
        14.7504         14.5004
  21765636.2974    1997023.07648   1467285.94946                  21765642.6254
        29.7504         25.2504
  21099729.2194     919009.39348    678487.37647                  21099736.4534
        30.2504         28.5004
  22916788.4844    -129471.97346    -80081.07746                  22916797.3954
        15.2504         15.2504
 02  7 15 18 40 45.0000000  0  8G 3G 9G14G15G17G18G21G31
  21703953.5864    1281085.35648    946748.34547                  21703961.4884
        29.0004         28.5004
  23669846.9144     454682.46646    347134.70845                  23669857.4064
        12.5004         11.7504
  21417288.8754    -578957.75748   -411510.43147                  21417295.8984
        28.0004         29.7504
  21904815.9924    2226792.61847   1639239.11546                  21904824.5044
        24.7504         23.2504
  22625498.1954    2429924.97846   1796009.91146                  22625508.0204
        14.5004         15.2504
  21776243.7424    2052765.54548   1510721.62746                  21776250.2114
        29.5004         25.2504
  21104919.4454     946284.12048    699740.41247                  21104926.6094
        30.2504         28.5004
  22917084.4694    -127915.39546    -78868.13646                  22917093.0044
        15.0004         15.0004
 02  7 15 18 41  0.0000000  0  8G 3G 9G14G15G17G18G21G31
  21711131.0864    1318804.37748    976139.77647                  21711139.0354
        28.5004         28.5004
  23673003.0554     471267.90446    360058.46245                  23673012.3634
        12.7504         11.2504
  21415299.1804    -589412.69847   -419657.11447                  21415306.0984
        27.7504         29.7504
  21916439.7344    2287875.65847   1686836.26346                  21916448.1294
        24.5004         23.0004
  22637910.3054    2495147.82646   1846832.85346                  22637920.1524
        14.7504         15.2504
  21786871.7814    2108615.94348   1554241.39846                  21786878.1684
        29.5004         25.2504
  21110131.5864     973674.86148    721083.84847                  21110138.6454
        30.5004         28.2504
  22917418.5634    -126160.10246    -77500.35246                  22917426.8634
        15.5004         15.2504
 02  7 15 18 41 15.0000000  0  8G 3G 9G14G15G17G18G21G31
  21718346.8674    1356722.92948   1005686.68747                  21718354.7814
        28.5004         28.5004
  23676197.0634     488052.39146    373137.29145                  23676206.4884
        12.7504         11.5004
  21413342.3984    -599695.81848   -427669.90647                  21413349.4454
        28.2504         29.7504
  21928090.3984    2349100.05447   1734543.54246                  21928098.9454
        24.2504         22.7504
  22650347.0554    2560504.73146   1897760.24746                  22650357.5944
        14.5004         15.0004
  21797519.1564    2164568.53248   1597840.80146                  21797525.5904
        28.7504         25.0004
  21115364.9534    1001175.77348    742513.13047                  21115372.0704
        30.7504         28.5004
  22917789.2584    -124211.61546    -75982.03546                  22917797.8404
        15.0004         15.2504
 02  7 15 18 41 30.0000000  0  8G 3G 9G14G15G17G18G21G31
  21725601.2034    1394844.16348   1035391.53847                  21725609.0474
        28.7504         28.0004
  23679430.0084     505039.43046    386373.96645                  23679439.2234
        13.0004         11.7504
  21411418.9304    -609803.49148   -435545.98247                  21411426.0944
        28.0004         29.7504
  21939768.4304    2410469.02747   1782363.49646                  21939777.1174
        24.2504         22.7504
  22662809.8594    2625999.05246   1948794.71346                  22662820.0354
        14.5004         15.0004
  21808186.4924    2220626.51648   1641522.33346                  21808192.8674
        28.2504         25.0004
  21120619.7274    1028790.24448    764030.90447                  21120626.9144
        30.7504         28.5004
  22918197.3364    -122066.31746    -74310.34946                  22918206.4924
        15.0004         15.5004
 02  7 15 18 41 45.0000000  0  8G 3G 9G14G15G17G18G21G31
  21732892.9064    1433162.99148   1065250.35547                  21732900.7034
        28.5004         28.2504
  23682699.4924     522224.35146    399764.83345                  23682707.9344
        13.0004         11.2504
  21409527.9224    -619740.45748   -443289.04747                  21409535.0984
        28.5004         30.2504
  21951473.3914    2471977.69247   1830292.29246                  21951481.8204
        24.0004         22.2504
  22675298.5634    2691625.66446   1999932.26646                  22675309.0204
        14.5004         14.7504
  21818873.2424    2276784.85947   1685282.05846                  21818879.9224
        27.7504         25.0004
  21125895.3054    1056513.38348    785633.34547                  21125902.4344
        30.5004         28.2504
  22918642.2894    -119728.93346    -72488.98546                  22918651.2234
        15.0004         15.0004
 02  7 15 18 42  0.0000000  0  8G 3G 9G14G15G17G18G21G31
  21740221.6954    1471675.60048   1095260.16247                  21740229.5274
        28.2504         28.0004
  23686006.8594     539603.57546    413307.11545                  23686016.3794
        12.7504         11.7504
  21407668.8524    -629510.22348   -450901.82047                  21407676.1684
        28.7504         30.5004
  21963204.0084    2533622.25147   1878326.98546                  21963212.4264
        23.7504         22.5004
  22687811.2504    2757380.84746   2051170.01746                  22687821.9774
        14.2504         14.5004
  21829578.2664    2333039.71748   1729116.99246                  21829584.9454
        28.0004         25.0004
  21131190.8204    1084341.22748    807317.38447                  21131197.7734
        30.7504         28.2504
  22919122.8524    -117203.02946    -70520.72046                  22919131.7974
        15.0004         15.2504
 02  7 15 18 42 15.0000000  0  8G 3G 9G14G15G17G18G21G31
  21747586.1884    1510376.74148   1125416.88047                  21747594.0434
        28.7504         28.2504
  23689350.2424     557172.11646    426996.91645                  23689360.2424
        12.5004         11.2504
  21405840.5314    -639117.85448   -458388.25347                  21405847.6374
        28.7504         30.2504
  21974959.4304    2595397.42947   1926463.45846                  21974967.9064
        24.2504         22.2504
  22700347.6644    2823259.34646   2102503.86346                  22700357.5004
        14.5004         14.2504
  21840300.5234    2389385.75348   1773022.97546                  21840306.9694
        28.0004         25.0004
  21136505.2504    1112268.56148    829078.94447                  21136512.4144
        30.5004         28.2504
  22919638.7894    -114493.65746    -68409.49146                  22919647.8754
        14.7504         15.5004
 02  7 15 18 42 30.0000000  0  8G 3G 9G14G15G17G18G21G31
  21754989.7114    1549282.55548   1155733.08747                  21754997.5664
        28.5004         28.0004
  23692732.2194     574946.49146    440847.11145                  23692741.8674
        12.2504         11.7504
  21404046.5164    -648546.72448   -465735.39547                  21404053.5044
        28.7504         30.0004
  21986742.8674    2657319.50747   1974714.39846                  21986751.4144
        24.2504         22.2504
  22712910.7734    2889277.36746   2153946.41446                  22712920.3404
        14.7504         14.7504
  21851043.3364    2445839.26148   1817012.70146                  21851050.0044
        28.0004         25.0004
  21141841.5634    1140311.58048    850930.64447                  21141848.6804
        30.5004         28.0004
  22920191.9774    -111584.13546    -66142.29946                  22920201.0164
        14.7504         15.7504
 02  7 15 18 42 45.0000000  0  8G 3G 9G14G15G17G18G21G31
  21762431.9534    1588390.53947   1186206.82647                  21762439.8094
        27.7504         28.0004
  23696153.3984     592924.48845    454855.95445                  23696163.9144
        11.7504         11.5004
  21402285.7274    -657798.93848   -472944.88947                  21402292.3714
        28.7504         29.7504
  21998553.6954    2719385.91747   2023077.80646                  21998562.3364
        24.2504         22.0004
  22725499.7504    2955432.48246   2205495.79346                  22725509.6214
        15.2504         14.2504
  21861806.1254    2502397.70547   1861084.19946                  21861813.1724
        27.5004         25.2504
  21147199.6414    1168467.88048    872870.61647                  21147206.8054
        30.0004         28.2504
  22920783.1884    -108476.62946    -63720.83946                  22920792.3204
        15.0004         15.7504
 02  7 15 18 43  0.0000000  0  8G 3G 9G14G15G17G18G21G31
  21769909.3284    1627684.87648   1216825.77647                  21769916.9844
        28.5004         27.7504
  23699610.1334     611090.67945    469011.45145                  23699620.0984
        11.2504         11.7504
  21400555.6334    -666889.90848   -480028.73447                  21400562.3834
        29.0004         29.7504
  22010388.9614    2781580.96447   2071541.45046                  22010397.3914
        23.7504         22.0004
  22738111.6254    3021708.83546   2257139.65946                  22738121.1214
        14.7504         14.2504
  21872585.8444    2559045.31147   1905225.17446                  21872592.5704
        27.2504         25.0004
  21152576.2664    1196721.86048    894886.70147                  21152583.3364
        30.2504         28.2504
  22921409.3984    -105186.89146    -61157.37146                  22921418.5204
        15.5004         16.0004
 02  7 15 18 43 15.0000000  0  8G 3G 9G14G15G17G18G21G31
  21777423.3444    1667171.74148   1247594.74847                  21777430.8594
        28.5004         27.7504
  23703103.6174     629451.69345    483318.78745                  23703114.0984
        11.2504         11.5004
  21398857.5864    -675813.11848   -486981.85447                  21398864.4304
        29.2504         30.0004
  22022249.9924    2843910.98147   2120110.27246                  22022258.7034
        23.5004         21.7504
  22750748.2424    3088112.94146   2308883.04946                  22750757.8094
        14.7504         14.7504
  21883383.6484    2615788.35247   1949440.51646                  21883390.2814
        27.2504         25.0004
  21157972.4844    1225079.65948    916983.68447                  21157979.7194
        30.2504         28.0004
  22922071.4454    -101708.13846    -58446.64046                  22922080.4144
        15.7504         15.7504
 02  7 15 18 43 30.0000000  0  8G 3G 9G14G15G17G18G21G31
  21784973.3834    1706847.42648   1278510.85447                  21784980.9804
        28.0004         27.7504
  23706634.2974     648003.97545    497775.11845                  23706644.1684
        11.2504         11.5004
  21397190.8444    -684572.01548   -493806.93947                  21397197.7734
        29.0004         30.2504
  22034136.2344    2906372.20147   2168781.31046                  22034144.9344
        23.5004         22.0004
  22763407.9064    3154640.97646   2360723.03946                  22763417.4964
        14.7504         14.7504
  21894198.8674    2672622.94047   1993727.19746                  21894205.5474
        26.7504         24.7504
  21163387.7894    1253537.78448    939158.84647                  21163394.9414
        30.0004         28.0004
  22922768.7814     -98043.90246    -55591.35546                  22922777.3524
        16.0004         15.7504
 02  7 15 18 43 45.0000000  0  8G 3G 9G14G15G17G18G21G31
  21792556.8834    1746698.52148   1309563.64147                  21792564.5274
        28.7504         28.0004
  23710198.5394     666734.50845    512370.37345                  23710208.6914
        11.0004         11.5004
  21395553.0164    -693179.51448   -500514.05247                  21395560.0744
        28.2504         30.2504
  22046044.3284    2968951.53447   2217544.40346                  22046052.6884
        23.5004         22.0004
  22776088.7814    3221279.71746   2412649.27546                  22776098.5594
        14.5004         14.5004
  21905028.9064    2729535.84547   2038074.90246                  21905035.7894
        26.0004         24.5004
  21168819.7664    1282082.73748    961401.66147                  21168827.0354
        29.7504         28.2504
  22923498.7034     -94207.12246    -52601.63046                  22923507.5314
        15.7504         16.0004
 02  7 15 18 44  0.0000000  0  8G 3G 9G14G15G17G18G21G31
  21800177.1644    1786743.18448   1340767.26247                  21800184.9384
        28.7504         27.5004
  23713800.0164     685661.80745    527118.94745                  23713810.3554
        11.0004         11.5004
  21393947.1254    -701617.08948   -507088.74847                  21393954.2544
        28.5004         30.2504
  22057978.9224    3031667.13947   2266413.66946                  22057987.5984
        23.2504         22.0004
  22788794.4614    3288047.31746   2464675.91146                  22788804.9654
        14.5004         15.2504
  21915877.6414    2786545.27847   2082497.82846                  21915884.4614
        26.5004         24.5004
  21174271.5554    1310732.93648    983726.49647                  21174278.9884
        29.7504         28.0004
  22924265.3984     -90179.21046    -49462.97846                  22924273.3954
        16.0004         15.5004
 02  7 15 18 44 15.0000000  0  8G 3G 9G14G15G17G18G21G31
  21807831.4224    1826966.79848   1372110.32547                  21807839.2894
        28.2504         27.7504
  23717436.4694     704771.55045    542009.70546                  23717447.0084
        11.5004         12.2504
  21392371.2814    -709899.03548   -513542.18747                  21392378.2344
        29.2504         30.2504
  22069936.5944    3094504.47347   2315377.80846                  22069945.1414
        23.0004         21.7504
  22801521.6414    3354929.18946   2516791.60146                  22801532.3324
        14.5004         15.0004
  21926741.5234    2843636.51147   2126984.49246                  21926748.0864
        26.5004         24.5004
  21179740.7584    1339473.71048   1006121.90647                  21179748.1214
        29.5004         28.0004
  22925065.1094     -85974.73346    -46186.72746                  22925073.9614
        15.7504         15.5004
 02  7 15 18 44 30.0000000  0  8G 3G 9G14G15G17G18G21G31
  21815518.8754    1867364.29648   1403588.87547                  21815526.7194
        28.5004         28.0004
  23721107.2194     724058.95345    557038.87346                  23721118.5084
        11.5004         12.2504
  21390823.9534    -718030.08748   -519878.04347                  21390830.7154
        29.0004         30.2504
  22081916.1334    3157458.58947   2364432.93946                  22081925.1024
        22.2504         22.5004
  22814269.9614    3421920.42846   2568992.50246                  22814280.6174
        14.7504         15.5004
  21937620.3754    2900804.52047   2171530.98046                  21937626.6804
        26.5004         24.2504
  21185226.3444    1368300.18348   1028584.09447                  21185233.7664
        29.0004         28.0004
  22925898.1094     -81598.32146    -42776.52946                  22925906.7504
        15.2504         15.5004
 02  7 15 18 44 45.0000000  0  8G 3G 9G14G15G17G18G21G31
  21823239.7734    1907938.25448   1435204.93447                  21823247.4184
        28.0004         27.5004
  23724811.8834     743527.04945    572208.82846                  23724822.4104
        11.5004         12.2504
  21389305.8594    -726007.21648   -526093.95647                  21389312.6684
        29.2504         30.2504
  22093918.6804    3220532.07547   2413581.06946                  22093927.9774
        22.0004         22.0004
  22827039.2034    3489023.74046   2621280.73846                  22827049.7304
        15.0004         15.2504
  21948514.2814    2958051.98847   2216139.38746                  21948520.5514
        26.2504         24.5004
  21190728.5084    1397215.00748   1051115.12347                  21190736.0704
        28.7504         28.0004
  22926763.9304     -77047.03546    -39230.04046                  22926772.8754
        15.2504         15.5004
 02  7 15 18 45  0.0000000  0  8G 3G 9G14G15G17G18G21G31
  21830996.9534    1948702.23948   1466969.05847                  21831004.7854
        28.5004         28.0004
  23728553.1484     763189.58446    587530.32846                  23728563.3714
        12.2504         12.5004
  21387819.8134    -733816.66148   -532179.20447                  21387826.6334
        29.0004         30.2504
  22105946.5394    3283738.47347   2462832.77946                  22105955.7774
        22.7504         22.0004
  22839832.2974    3556252.58346   2673666.77246                  22839842.3914
        15.0004         15.0004
  21959425.7664    3015392.53447   2260820.32346                  21959431.8594
        26.7504         24.5004
  21196250.2734    1426231.84948   1073725.65347                  21196257.7894
        28.7504         27.7504
  22927666.1024     -72306.96246    -35536.46146                  22927674.7664
        15.0004         15.5004
 02  7 15 18 45 15.0000000  0  8G 3G 9G14G15G17G18G21G31
  21838788.0554    1989644.33948   1498871.97247                  21838795.7114
        28.5004         27.7504
  23732329.4614     783035.13046    602994.39446                  23732338.9804
        12.2504         12.5004
  21386363.5234    -741469.75148   -538142.62047                  21386370.4774
        29.0004         30.5004
  22117997.5634    3347066.00147   2512178.88046                  22118006.7544
        22.7504         22.5004
  22852647.6094    3623595.23846   2726141.50846                  22852657.2704
        15.5004         15.2504
  21970352.8834    3072814.22047   2305564.48846                  21970359.0944
        27.0004         24.7504
  21201789.3444    1455338.91748   1096406.48347                  21201796.8594
        28.7504         28.2504
  22928601.5784     -67389.60046    -31704.71846                  22928610.2194
        15.0004         15.5004
 02  7 15 18 45 30.0000000  0  8G 3G 9G14G15G17G18G21G31
  21846612.7424    2030763.23448   1530912.65747                  21846620.4804
        28.7504         27.7504
  23736140.8444     803062.64846    618600.29346                  23736151.5124
        12.2504         12.5004
  21384936.6254    -748967.46948   -543984.96147                  21384943.6604
        28.7504         30.5004
  22130071.0234    3410513.55947   2561618.50646                  22130079.9924
        22.7504         22.5004
  22865484.0394    3691050.45446   2778703.96746                  22865494.0164
        15.5004         15.2504
  21981295.0944    3130315.86147   2350370.94546                  21981301.6564
        27.2504         24.7504
  21207345.0634    1484534.83948   1119156.55547                  21207352.6024
        28.7504         28.0004
  22929571.0234     -62296.04846    -27735.68546                  22929579.7344
        15.5004         15.5004
 02  7 15 18 45 45.0000000  0  8G 3G 9G14G15G17G18G21G31
  21854472.0634    2072063.52948   1563094.68747                  21854479.7894
        28.2504         27.7504
  23739987.6884     823277.10146    634351.81846                  23739997.4654
        12.5004         12.5004
  21383540.2504    -756304.88348   -549702.39547                  21383547.5084
        28.5004         30.5004
  22142168.3204    3474085.87247   2611155.34546                  22142177.2304
        22.7504         22.5004
  22878342.3674    3758623.08046   2831357.89646                  22878352.2854
        15.2504         15.0004
  21992253.4144    3187902.15048   2395243.36446                  21992259.7194
        28.5004         25.0004
  21212918.6254    1513824.52648   1141979.68347                  21212926.1524
        28.5004         28.2504
  22930574.5784     -57021.22346    -23625.40846                  22930583.2774
        16.0004         15.7504
 02  7 15 18 46  0.0000000  0  8G 3G 9G14G15G17G18G21G31
  21862363.2344    2113532.33748   1595408.02747                  21862371.1024
        28.2504         27.7504
  23743867.7584     843665.85346    650239.18846                  23743877.7934
        12.7504         12.5004
  21382172.1024    -763494.44648   -555304.61547                  21382179.2894
        28.7504         30.5004
  22154287.3594    3537770.02047   2660779.33146                  22154296.0944
        22.5004         22.5004
  22891221.1334    3826300.16946   2884093.24546                  22891230.9104
        15.2504         15.2504
  22003225.4614    3245560.25448   2440171.74246                  22003231.8364
        29.2504         25.2504
  21218507.6804    1543195.04348   1164865.80347                  21218515.2424
        28.5004         28.0004
  22931610.5784     -51577.73246    -19383.68846                  22931619.3834
        16.0004         16.0004
 02  7 15 18 46 15.0000000  0  8G 3G 9G14G15G17G18G21G31
  21870287.6024    2155175.21247   1627857.00047                  21870295.4454
        27.7504         27.7504
  23747781.8754     864234.74146    666266.91646                  23747792.9064
        12.5004         13.0004
  21380833.1414    -770530.37448   -560787.11947                  21380840.1644
        28.7504         30.2504
  22166428.4774    3601571.50947   2710494.74346                  22166437.1994
        22.7504         22.5004
  22904120.8914    3894087.29246   2936914.30646                  22904131.3954
        14.5004         14.7504
  22014212.3364    3303295.57648   2485160.28746                  22014218.8874
        29.5004         25.5004
  21224113.2584    1572652.16148   1187819.40247                  21224120.5514
        28.2504         28.0004
  22932679.5784     -45959.88846    -15006.12146                  22932688.4654
        16.5004         16.0004
 02  7 15 18 46 30.0000000  0  8G 3G 9G14G15G17G18G21G31
  21878246.2664    2196998.76548   1660446.76347                  21878254.2034
        28.0004         27.5004
  23751731.4924     884990.64046    682440.36346                  23751742.0784
        12.7504         13.2504
  21379524.8364    -777405.70748   -566144.48747                  21379531.8484
        28.5004         30.2504
  22178593.0474    3665497.20647   2760306.95046                  22178601.7344
        22.7504         22.2504
  22917041.8204    3961991.14646   2989826.34946                  22917051.6564
        14.0004         14.7504
  22025214.7584    3361114.84048   2530214.24446                  22025221.5204
        30.0004         25.5004
  21229736.4924    1602202.70348   1210845.80047                  21229743.8794
        28.0004         27.7504
  22933783.2504     -40160.56746    -10487.13946                  22933792.2424
        17.0004         16.2504
 02  7 15 18 46 45.0010000  0  8G 3G 9G14G15G17G18G21G31
  21886236.7164    2238988.38347   1693165.93247                  21886244.6424
        27.7504         27.5004
  23755713.9424     905917.97946    698747.41146                  23755724.1884
        13.2504         13.2504
  21378243.6694    -784137.83548   -571390.26747                  21378250.6344
        28.5004         30.0004
  22190778.6774    3729534.04447   2810205.75546                  22190787.1884
        22.2504         22.5004
  22929983.7864    4029998.99346   3042819.39846                  22929994.4894
        13.5004         14.5004
  22036230.8254    3419004.59148   2575323.12046                  22036237.5754
        30.2504         25.5004
  21235374.5914    1631831.09848   1233932.85947                  21235382.0014
        28.2504         28.0004
  22934918.2314     -34196.54346     -5839.82846                  22934927.3294
        16.7504         16.7504
 02  7 15 18 47  0.0010000  0  8G 3G 9G14G15G17G18G21G31
  21894261.5524    2281159.64947   1726026.63947                  21894269.6304
        27.7504         27.2504
  23759732.1924     927035.51846    715202.66446                  23759742.0404
        13.0004         13.5004
  21376994.3254    -790704.23848   -576506.91747                  21377001.2314
        28.5004         30.5004
  22202988.3414    3793694.83747   2860201.14046                  22202997.2634
        22.0004         22.5004
  22942947.0994    4098122.98946   3095902.96446                  22942958.0484
        13.5004         14.5004
  22047262.9274    3476978.43548   2620497.52247                  22047269.9274
        30.5004         25.7504
  21241030.9974    1661554.78948   1257094.17947                  21241038.1854
        28.2504         28.0004
  22936088.6304     -28046.94246     -1047.90446                  22936098.3134
        16.7504         17.0004
 02  7 15 18 47 15.0010000  0  8G 3G 9G14G15G17G18G21G31
  21902319.3334    2323503.54547   1759021.86047                  21902327.2824
        27.2504         27.2504
  23763785.1854     948333.13946    731798.24246                  23763795.5604
        13.2504         13.7504
  21375773.9584    -797116.88148   -581503.74547                  21375780.8644
        28.7504         30.5004
  22215219.8494    3857972.11047   2910287.29746                  22215228.9234
        22.0004         22.5004
  22955931.2944    4166355.95646   3149071.43946                  22955942.2434
        13.5004         14.0004
  22058309.3964    3535028.39348   2665731.23546                  22058316.4194
        30.2504         25.2504
  21246703.4974    1691363.95248   1280322.09747                  21246710.8134
        28.0004         28.0004
  22937291.7634     -21722.82546      3879.99746                  22937301.4114
        16.0004         16.5004
 02  7 15 18 47 30.0010000  0  8G 3G 9G14G15G17G18G21G31
  21910409.8724    2366019.19447   1792150.92747                  21910417.7284
        27.5004         27.0004
  23767872.1854     969810.20746    748533.64746                  23767882.3964
        13.7504         13.7504
  21374582.8494    -803376.26148   -586381.15247                  21374589.8374
        28.7504         30.7504
  22227473.3174    3922365.00347   2960463.54846                  22227482.4504
        22.2504         22.7504
  22968936.5834    4234697.14946   3202324.25546                  22968947.6854
        14.2504         14.5004
  22069370.2394    3593153.58048   2711023.56546                  22069377.3684
        30.0004         25.0004
  21252392.0444    1721257.92148   1303616.09747                  21252399.2554
        28.2504         28.0004
  22938528.3024     -15224.88046      8943.35746                  22938537.6224
        16.2504         16.5004
 02  7 15 18 47 45.0010000  0  8G 3G 9G14G15G17G18G21G31
  21918534.0284    2408710.88647   1825417.16347                  21918541.9194
        27.0004         27.0004
  23771994.1534     991471.38446    765412.50746                  23772004.5754
        13.5004         14.2504
  21373421.5364    -809477.68548   -591135.47047                  21373428.6064
        28.5004         30.7504
  22239749.6694    3986877.81747   3010733.24046                  22239758.7674
        22.7504         22.7504
  22981962.8564    4303150.91246   3255664.77546                  22981973.8884
        14.2504         14.5004
  22080446.4034    3651358.45548   2756377.99246                  22080453.2984
        29.2504         24.5004
  21258097.9354    1751241.08448   1326979.60447                  21258105.1814
        28.0004         28.0004
  22939798.8254      -8548.45546     14145.79046                  22939808.0054
        16.2504         16.2504
 02  7 15 18 48  0.0010000  0  8G 3G 9G14G15G17G18G21G31
  21926690.1224    2451572.51347   1858815.81547                  21926697.9894
        27.0004         27.0004
  23776149.7004    1013311.00446    782430.42746                  23776160.1694
        13.5004         14.2504
  21372289.6464    -815426.89348   -595771.18447                  21372296.6104
        29.2504         30.7504
  22252048.1694    4051504.67147   3061091.79546                  22252057.5484
        22.2504         22.7504
  22995009.2864    4371711.12646   3309088.26846                  22995020.2714
        14.5004         14.5004
  22091536.3964    3709636.93948   2801789.77646                  22091542.9464
        29.2504         24.2504
  21263819.1064    1781307.45048   1350407.93847                  21263826.2944
        28.0004         28.2504
  22941101.8804      -1699.19846     19482.90046                  22941110.3804
        16.0004         16.5004
 02  7 15 18 48 15.0010000  0  8G 3G 9G14G15G17G18G21G31
  21934877.7164    2494598.75247   1892342.73947                  21934885.6304
        27.0004         26.7504
  23780339.0284    1035323.91546    799583.36446                  23780349.5914
        14.2504         14.5004
  21371185.3334    -821228.84648   -600292.15447                  21371192.2044
        28.5004         30.7504
  22264367.0524    4116240.33047   3111535.13546                  22264376.3024
        22.7504         23.0004
  23008075.2394    4440372.69646   3362590.73146                  23008085.5564
        14.7504         14.7504
  22102639.1774    3767983.57348   2847254.67246                  22102645.7864
        28.7504         24.0004
  21269555.5364    1811451.84848   1373897.08047                  21269562.7004
        28.0004         28.2504
  22942437.1384       5317.79246     24950.71346                  22942445.4624
        16.7504         16.5004
 02  7 15 18 48 30.0010000  0  8G 3G 9G14G15G17G18G21G31
  21943096.2634    2537787.13547   1925996.01047                  21943104.0834
        26.7504         26.7504
  23784560.2314    1057508.06046    816869.73646                  23784570.5014
        14.5004         14.2504
  21370109.1384    -826885.71848   -604700.07447                  21370115.9814
        28.5004         30.5004
  22276705.8104    4181082.36247   3162061.36446                  22276714.9074
        22.7504         22.7504
  23021160.1854    4509133.16546   3416170.25346                  23021170.1964
        14.2504         14.7504
  22113754.9584    3826396.12248   2892770.92146                  22113761.4154
        28.5004         23.5004
  21275306.0914    1841671.94848   1397445.20347                  21275313.3024
        28.0004         28.0004
  22943804.4114      12500.43446     30547.60246                  22943812.9464
        17.0004         17.0004
 02  7 15 18 48 45.0010000  0  8G 3G 9G14G15G17G18G21G31
  21951346.3724    2581141.82247   1959778.86947                  21951354.4154
        26.5004         26.7504
  23788815.1144    1079867.93546    834293.04146                  23788825.2674
        15.0004         14.2504
  21369060.8334    -832392.90248   -608991.35447                  21369067.5714
        28.2504         30.5004
  22289065.9114    4246035.08847   3212673.83646                  22289074.9034
        23.0004         22.7504
  23034264.4504    4577996.89746   3469830.23346                  23034274.4974
        14.2504         14.5004
  22124883.7474    3884878.89248   2938341.88746                  22124890.1104
        28.2504         23.2504
  21281071.9664    1871972.17347   1421055.76747                  21281079.3884
        27.7504         28.2504
  22945203.3174      19853.18346     36277.03346                  22945211.4784
        17.0004         16.7504
 02  7 15 18 49  0.0010000  0  8G 3G 9G14G15G17G18G21G31
  21959626.3254    2624653.67347   1993684.18947                  21959634.3454
        26.7504         27.0004
  23793102.2084    1102394.61646    851846.32146                  23793111.4704
        15.2504         14.2504
  21368039.8024    -837759.12548   -613172.79547                  21368046.4934
        28.5004         30.5004
  22301445.4504    4311089.39347   3263365.47746                  22301454.4074
        23.0004         22.5004
  23047386.6144    4646954.59446   3523563.42646                  23047396.8724
        14.0004         14.2504
  22136024.3414    3943422.64948   2983960.38146                  22136030.6574
        28.0004         22.7504
  21286851.4894    1902343.33747   1444721.61147                  21286858.8644
        27.7504         28.0004
  22946633.4504      27367.30746     42132.22146                  22946641.3764
        17.5004         16.7504
 02  7 15 18 49 15.0010000  0  8G 3G 9G14G15G17G18G21G31
  21967937.4194    2668329.15047   2027717.01047                  21967945.4384
        27.0004         27.0004
  23797422.0284    1125094.91046    869534.87646                  23797431.2314
        15.0004         14.2504
  21367046.6614    -842977.56348   -617239.08447                  21367053.3884
        28.2504         30.5004
  22313845.6774    4376251.81947   3314141.35846                  22313854.7744
        23.0004         22.7504
  23060528.1384    4716012.92546   3577375.06446                  23060538.5364
        13.7504         14.0004
  22147177.6774    4002033.98147   3029631.52646                  22147184.0284
        27.2504         22.5004
  21292645.5674    1932791.99247   1468447.82847                  21292652.9314
        27.5004         28.0004
  22948095.0524      35049.54646     48118.40846                  22948102.9664
        17.5004         16.7504
 02  7 15 18 49 30.0010000  0  8G 3G 9G14G15G17G18G21G31
  21976281.6854    2712176.61247   2061883.85047                  21976289.8684
        27.0004         27.2504
  23801776.6924    1147977.58546    887365.55646                  23801785.6964
        15.2504         14.0004
  21366083.2394    -848039.48348   -621183.40547                  21366089.8844
        28.5004         30.5004
  22326267.5284    4441530.82147   3365008.08446                  22326276.5564
        22.5004         22.7504
  23073690.5214    4785180.51946   3631271.81946                  23073700.6614
        13.5004         14.0004
  22158345.4664    4060721.30447   3075361.89146                  22158351.8064
        26.7504         22.5004
  21298456.0364    1963326.64047   1492241.06847                  21298463.5404
        27.7504         28.0004
  22949590.4744      42908.57446     54242.34546                  22949598.5174
        17.7504         17.0004
 02  7 15 18 49 45.0010000  0  8G 3G 9G14G15G17G18G21G31
  21984657.9274    2756195.23547   2096184.06147                  21984665.9934
        27.0004         27.2504
  23806165.0364    1171042.06546    905337.92146                  23806174.2744
        14.2504         13.5004
  21365149.8104    -852945.51548   -625006.26147                  21365156.4784
        29.0004         31.0004
  22338711.8334    4506925.65247   3415965.05446                  22338720.9424
        22.5004         22.0004
  23086873.0054    4854456.39046   3685252.94946                  23086883.6034
        12.7504         13.5004
  22169527.5754    4119483.82847   3121150.85546                  22169534.2084
        26.7504         22.5004
  21304282.7004    1993946.60347   1516100.77847                  21304289.9934
        27.5004         28.0004
  22951119.5444      50943.80146     60503.58846                  22951127.9744
        17.5004         17.0004
 02  7 15 18 50  0.0010000  0  8G 3G 9G14G15G17G18G21G31
  21993065.4894    2800376.12047   2130610.70647                  21993073.4974
        26.7504         27.0004
  23810587.0914    1194279.75546    923445.22546                  23810596.4934
        14.2504         14.0004
  21364244.2164    -857704.00048   -628714.13747                  21364251.0014
        28.7504         31.0004
  22351176.4194    4572427.62847   3467005.52646                  22351185.4114
        22.2504         22.0004
  23100074.9354    4923831.80946   3739311.65446                  23100085.8964
        12.7504         12.7504
  22180722.2784    4178312.63647   3166991.46046                  22180728.9704
        26.2504         22.5004
  21310124.3254    2024643.11047   1540020.13847                  21310131.6424
        27.7504         28.0004
  22952680.4974      59146.79546     66895.55546                  22952688.9504
        17.0004         16.7504
 02  7 15 18 50 15.0010000  0  8G 3G 9G14G15G17G18G21G31
  22001501.2084    2844708.31747   2165155.25947                  22001509.0634
        27.2504         27.0004
  23815039.7554    1217680.09446    941679.28346                  23815048.4894
        14.5004         13.7504
  21363364.9504    -862325.54948   -632315.31547                  21363371.8454
        29.2504         31.0004
  22363659.3964    4638025.87147   3518121.00046                  22363668.4814
        22.2504         22.2504
  23113293.6924    4993295.87046   3793439.43146                  23113304.3024
        13.5004         14.0004
  22191927.5054    4237196.87147   3212875.26846                  22191934.4114
        25.7504         22.5004
  21315978.1224    2055405.25348   1563990.63647                  21315985.3804
        28.0004         28.0004
  22954271.4974      67506.89146     73409.93246                  22954280.7944
        17.5004         17.0004
 02  7 15 18 50 30.0010000  0  8G 3G 9G14G15G17G18G21G31
  22009967.3494    2889197.57347   2199822.19347                  22009975.4154
        26.7504         27.0004
  23819525.0284    1241249.22946    960044.87046                  23819534.4664
        14.0004         13.2504
  21362512.4664    -866804.03148   -635805.00747                  21362519.2864
        28.5004         31.0004
  22376161.9194    4703726.29947   3569316.09946                  22376171.3214
        22.2504         22.0004
  23126529.9424    5062854.58046   3847640.95746                  23126540.3294
        13.5004         13.5004
  22203144.6064    4296142.54047   3258806.94046                  22203151.6424
        25.2504         22.7504
  21321845.4744    2086238.97648   1588016.91747                  21321852.7204
        28.0004         28.2504
  22955893.4114      76030.35046     80051.60346                  22955902.0874
        17.7504         17.0004
 02  7 15 18 50 45.0010000  0  8G 3G 9G14G15G17G18G21G31
  22018465.5054    2933855.17147   2234620.30047                  22018473.7124
        26.5004         26.7504
  23824044.3564    1264998.62646    978550.91246                  23824054.0054
        14.0004         13.5004
  21361689.7004    -871127.89948   -639174.22347                  21361696.5834
        28.5004         31.2504
  22388685.9744    4769540.27147   3620599.67346                  22388695.2944
        22.0004         21.5004
  23139787.1854    5132519.11946   3901924.96846                  23139797.2554
        14.0004         13.5004
  22214375.5994    4355160.98147   3304795.31646                  22214382.9974
        25.2504         22.7504
  21327728.6464    2117155.84048   1612107.98247                  21327735.8454
        28.2504         28.0004
  22957548.5834      84728.63546     86829.50746                  22957557.0834
        18.0004         17.2504
 02  7 15 18 51  0.0010000  0  8G 3G 9G14G15G17G18G21G31
  22026992.2634    2978663.56247   2269535.90947                  22027000.4114
        26.0004         26.5004
  23828594.9744    1288911.06846    997184.03346                  23828604.6224
        13.5004         13.2504
  21360893.1224    -875314.27348   -642436.30047                  21360899.7904
        28.5004         31.0004
  22401228.1614    4835450.26547   3671958.07846                  22401237.2714
        22.7504         21.5004
  23153060.4894    5202272.25146   3956277.98546                  23153071.1574
        13.0004         13.2504
  22225616.8884    4414234.59247   3350826.67746                  22225624.2044
        26.0004         23.2504
  21333624.4424    2148138.24548   1636250.11947                  21333631.6064
        28.2504         28.0004
  22959234.0914      93584.52446     93730.21546                  22959242.3804
        18.7504         17.2504
 02  7 15 18 51 15.0010000  0  8G 3G 9G14G15G17G18G21G31
  22035551.9194    3023645.44147   2304586.70647                  22035559.7984
        26.0004         26.5004
  23833180.2394    1313009.59046   1015962.12646                  23833189.9464
        14.0004         13.2504
  21360126.7634    -879339.96748   -645573.17947                  21360133.3494
        28.7504         31.0004
  22413793.0754    4901479.07747   3723409.06246                  22413801.9504
        22.7504         21.5004
  23166355.6144    5272136.62146   4010717.69946                  23166365.8724
        13.2504         13.2504
  22236872.9504    4473386.10947   3396918.75946                  22236880.3024
        26.0004         23.2504
  21339537.1924    2179209.01848   1660461.10947                  21339544.2864
        28.2504         28.0004
  22960953.6614     102621.07046    100771.69546                  22960961.6814
        19.2504         17.5004
 02  7 15 18 51 30.0010000  0  8G 3G 9G14G15G17G18G21G31
  22044140.6304    3068779.23747   2339755.88347                  22044148.6614
        25.5004         26.5004
  23837797.2714    1337273.00646   1034868.72146                  23837807.0604
        13.7504         13.5004
  21359387.4894    -883226.19048   -648601.37847                  21359394.0754
        29.0004         31.0004
  22426376.2944    4967605.28647   3774935.94446                  22426385.0404
        22.5004         21.2504
  23179667.4354    5342090.64046   4065227.25946                  23179676.8254
        13.7504         13.5004
  22248140.0444    4532594.29847   3443054.99246                  22248147.3024
        25.7504         23.2504
  21345462.2944    2210346.84048   1684724.34847                  21345469.6104
        28.5004         28.0004
  22962703.5994     111817.09846    107937.44746                  22962711.2554
        19.0004         17.5004
 02  7 15 18 51 45.0010000  0  8G 3G 9G14G15G17G18G21G31
  22052755.5914    3114050.60547   2375032.25347                  22052763.7044
        26.2504         26.5004
  23842443.3414    1361687.22446   1053892.81846                  23842452.9664
        14.0004         13.5004
  21358671.5834    -886986.95548   -651531.81447                  21358678.2634
        28.2504         31.2504
  22438975.8174    5033814.64747   3826527.61246                  22438984.9274
        22.7504         21.2504
  23192993.5754    5412120.26646   4119795.74646                  23193003.6224
        13.5004         13.0004
  22259415.0134    4591844.76747   3489224.17146                  22259422.3294
        26.5004         23.5004
  21351397.7944    2241537.58648   1709028.82647                  21351404.9354
        28.7504         28.2504
  22964481.3724     121158.55146    115216.51946                  22964489.0634
        19.2504         17.5004
 02  7 15 18 52  0.0010000  0  8G 3G 9G14G15G17G18G21G31
  22061401.1614    3159483.81547   2410434.73847                  22061409.2164
        26.0004         26.2504
  23847122.3884    1386276.83446   1073053.56246                  23847132.0014
        14.0004         13.5004
  21357984.6144    -890597.58248   -654345.25847                  21357991.3644
        28.7504         31.2504
  22451595.4974    5100131.46447   3878203.02146                  22451604.4894
        22.0004         21.2504
  23206338.8884    5482249.85646   4174442.10946                  23206348.7474
        13.2504         13.7504
  22270702.8104    4651161.96847   3535445.35146                  22270709.9854
        26.5004         23.5004
  21357347.9034    2272805.44848   1733393.39447                  21357355.1144
        28.5004         28.2504
  22966291.3174     130670.01146    122628.06846                  22966299.3134
        18.7504         17.5004
 02  7 15 18 52 15.0010000  0  8G 3G 9G14G15G17G18G21G31
  22070077.4814    3205077.42247   2445962.21147                  22070085.7474
        26.0004         26.2504
  23851834.7474    1411040.78646   1092350.17946                  23851845.2394
        13.0004         13.2504
  21357326.0674    -894059.22548   -657042.61647                  21357332.7124
        29.2504         31.2504
  22464235.2634    5166554.47847   3929961.17346                  22464244.9704
        21.7504         21.0004
  23219702.8884    5552478.04546   4229165.30546                  23219712.9234
        13.0004         13.5004
  22282002.8494    4710544.44147   3581717.39746                  22282009.8964
        27.0004         23.5004
  21363312.3254    2304149.22248   1757817.11347                  21363319.6304
        28.5004         28.2504
  22968133.3724     140350.48346    130171.30346                  22968141.3564
        18.5004         17.5004
 02  7 15 18 52 30.0010000  0  8G 3G 9G14G15G17G18G21G31
  22078786.2634    3250841.91047   2481622.83347                  22078794.4584
        26.2504         26.2504
  23856582.4584    1435989.88146   1111791.04846                  23856592.6464
        12.7504         13.0004
  21356697.6614    -897361.07648   -659615.45847                  21356704.4464
        29.5004         31.5004
  22476897.4114    5233094.15447   3981810.22946                  22476906.8024
        22.0004         20.7504
  23233087.6774    5622815.32346   4283973.51546                  23233098.2744
        12.7504         13.0004
  22293317.3564    4770002.57347   3628048.39246                  22293324.4624
        26.5004         23.7504
  21369293.3644    2335579.42848   1782308.17847                  21369300.6814
        28.7504         28.2504
  22970009.3804     150210.59846    137854.53946                  22970017.1534
        18.2504         17.2504
 02  7 15 18 52 45.0010000  0  8G 3G 9G14G15G17G18G21G31
  22087525.8644    3296768.98047   2517410.14847                  22087533.8724
        26.0004         26.5004
  23861363.7944    1461116.08346   1131369.95046                  23861373.7474
        12.7504         13.0004
  21356098.2784    -900510.91748   -662069.85147                  21356104.9814
        29.2504         31.5004
  22489580.0054    5299742.34947   4033743.85146                  22489589.4194
        21.5004         20.2504
  23246491.1924    5693253.61946   4338860.43446                  23246501.8494
        12.7504         13.5004
  22304644.7244    4829528.30247   3674432.06046                  22304651.8174
        26.2504         23.5004
  21375289.2314    2367088.09748   1806860.38747                  21375296.7944
        28.2504         28.2504
  22971918.6774     160242.51246    145671.63846                  22971926.5214
        18.2504         17.7504
 02  7 15 18 53  0.0010000  0  8G 3G 9G14G15G17G18G21G31
  22096293.6464    3342844.80447   2553313.37647                  22096301.8534
        26.2504         26.2504
  23866176.1464    1486405.94246   1151076.35646                  23866186.3804
        12.2504         12.7504
  21355525.0364    -903522.17648   -664416.25647                  21355531.5404
        29.2504         31.5004
  22502280.6854    5366485.34447   4085751.34046                  22502289.9704
        21.5004         20.0004
  23259911.9274    5763779.08846   4393815.27846                  23259922.7824
        12.7504         13.0004
  22315982.5364    4889107.86147   3720857.67946                  22315989.3454
        26.5004         23.5004
  21381297.6304    2398661.38148   1831462.94647                  21381305.1924
        28.5004         28.2504
  22973857.5674     170432.79246    153612.13746                  22973865.3644
        18.7504         17.5004
 02  7 15 18 53 15.0010000  0  8G 3G 9G14G15G17G18G21G31
  22105095.1224    3389097.32147   2589354.28247                  22105103.4354
        25.5004         26.0004
  23871025.3494    1511887.69646   1170932.29346                  23871035.2314
        12.2504         12.5004
  21354983.8804    -906366.48748   -666632.57547                  21354990.5604
        29.5004         31.5004
  22515005.1694    5433351.27247   4137854.62046                  22515014.1614
        21.5004         20.2504
  23273354.7394    5834419.92246   4448860.02046                  23273365.1384
        12.7504         13.2504
  22327335.5834    4948769.47847   3767347.23346                  22327342.4664
        26.5004         23.2504
  21387323.2474    2430327.50248   1856137.84147                  21387330.8564
        28.7504         28.5004
  22975832.1614     180809.70546    161698.05546                  22975840.2394
        18.5004         17.5004
 02  7 15 18 53 30.0010000  0  8G 3G 9G14G15G17G18G21G31
  22113927.3884    3435510.48247   2625520.36747                  22113935.5134
        26.0004         26.0004
  23875907.2474    1537545.62746   1190925.51646                  23875916.8024
        12.2504         12.2504
  21354471.5214    -909059.64648   -668731.11247                  21354478.1184
        29.5004         31.5004
  22527749.6304    5500324.18647   4190041.27146                  22527758.5054
        21.7504         20.0004
  23286815.8564    5905160.01746   4503982.11946                  23286827.2634
        13.0004         13.0004
  22338701.5994    5008497.06247   3813888.18846                  22338708.0674
        26.7504         23.2504
  21393363.6614    2462070.51348   1880872.65147                  21393371.3534
        28.7504         28.5004
  22977838.9194     191357.52346    169917.14946                  22977847.2904
        18.5004         17.5004
 02  7 15 18 53 45.0010000  0  8G 3G 9G14G15G17G18G21G31
  22122789.7554    3482083.48047   2661811.00147                  22122797.9504
        25.7504         26.0004
  23880823.2474    1563379.14046   1211055.54246                  23880832.6384
        12.0004         12.0004
  21353987.5054    -911602.07548   -670712.19947                  21353994.2434
        28.7504         31.7504
  22540514.6224    5567403.35547   4242310.70846                  22540523.6264
        22.0004         19.7504
  23300296.3884    5975998.72946   4559181.05146                  23300307.8884
        13.2504         13.0004
  22350079.6694    5068289.87947   3860479.98146                  22350086.0914
        27.0004         23.2504
  21399418.8254    2493889.76948   1905666.87447                  21399426.3644
        28.7504         28.2504
  22979878.8724     202075.65546    178268.95346                  22979887.2554
        19.0004         18.2504
 02  7 15 18 54  0.0010000  0  8G 3G 9G14G15G17G18G21G31
  22131683.1924    3528818.35147   2698227.76747                  22131691.4234
        25.2504         26.0004
  23885773.6774    1589390.56646   1231324.20746                  23885783.1964
        12.2504         12.5004
  21353532.7784    -913991.40448   -672573.98647                  21353539.4704
        29.7504         31.5004
  22553299.8884    5634590.79947   4294664.53046                  22553308.7284
        21.7504         19.5004
  23313796.2244    6046938.13846   4614458.47246                  23313806.5994
        13.2504         13.2504
  22361470.7864    5128149.93647   3907124.16446                  22361477.5954
        27.0004         23.2504
  21405488.6614    2525787.41748   1930522.18447                  21405496.0364
        29.0004         28.2504
  22981951.3564     212966.50046    186755.34946                  22981959.8804
        18.5004         18.2504
 02  7 15 18 54 15.0010000  0  8G 3G 9G14G15G17G18G21G31
  22140606.4114    3575710.45947   2734767.05647                  22140614.6534
        24.7504         25.7504
  23890756.2784    1615575.66646   1251728.19746                  23890766.1034
        12.2504         12.2504
  21353106.3564    -916231.84548   -674319.75847                  21353112.8254
        29.0004         31.2504
  22566105.1304    5701882.04547   4347099.23446                  22566113.5014
        21.7504         19.5004
  23327313.5834    6117973.69846   4669810.79146                  23327324.0404
        13.2504         12.7504
  22372873.7784    5188072.96347   3953817.41246                  22372880.7204
        27.2504         23.5004
  21411572.6694    2557759.00248   1955435.10647                  21411579.9274
        29.5004         28.2504
  22984056.1854     224025.75746    195372.96946                  22984065.0484
        19.0004         18.2504
 02  7 15 18 54 30.0010000  0  8G 3G 9G14G15G17G18G21G31
  22149559.5994    3622758.91047   2771428.17047                  22149567.7354
        24.7504         25.7504
  23895772.2004    1641933.88146   1272267.09046                  23895782.4704
        12.5004         12.5004
  21352708.3174    -918323.85948   -675949.87947                  21352714.6574
        29.0004         31.2504
  22578929.6854    5769276.40447   4399614.28346                  22578938.2904
        21.2504         19.5004
  23340849.3174    6189104.70546   4725237.51846                  23340860.1494
        13.2504         12.5004
  22384288.3494    5248058.11147   4000559.07146                  22384295.1104
        27.0004         23.2504
  21417670.6464    2589803.78848   1980405.07247                  21417677.7044
        29.7504         28.5004
  22986192.4814     235252.87946    204121.37646                  22986200.8294
        19.7504         18.2504
 02  7 15 18 54 45.0010000  0  8G 3G 9G14G15G17G18G21G31
  22158540.7244    3669954.85047   2808204.20647                  22158548.9194
        25.0004         25.7504
  23900819.2944    1668456.67946   1292934.20946                  23900829.0834
        13.2504         12.5004
  21352336.9034    -920275.89148   -677470.91647                  21352343.3494
        29.2504         31.2504
  22591772.4354    5836765.19847   4452202.90946                  22591781.3684
        20.5004         19.0004
  23354401.2314    6260322.45546   4780731.80146                  23354411.4894
        13.0004         13.0004
  22395713.5214    5308096.47447   4047342.18246                  22395720.5794
        27.0004         23.5004
  21423780.8254    2621913.00548   2005425.23447                  21423787.7434
        29.5004         28.5004
  22988359.5444     246639.45146    212994.04946                  22988367.7984
        19.7504         18.5004
 02  7 15 18 55  0.0010000  0  8G 3G 9G14G15G17G18G21G31
  22167551.8174    3717308.44547   2845103.09247                  22167560.1774
        24.7504         25.7504
  23905899.9424    1695154.48046   1313737.71546                  23905909.8134
        13.5004         12.5004
  21351994.1224    -922077.51148   -678874.75547                  21352000.6734
        28.7504         31.2504
  22604634.9274    5904358.56247   4504873.02246                  22604644.1424
        20.0004         19.0004
  23367971.9504    6331637.16946   4836301.64446                  23367983.0174
        12.5004         13.0004
  22407150.7394    5368198.36947   4094174.81246                  22407157.8684
        26.7504         23.2504
  21429905.2864    2654097.03148   2030503.69747                  21429912.2984
        29.5004         28.5004
  22990558.3964     258195.84146    221999.04446                  22990566.3214
        19.5004         18.2504
 02  7 15 18 55 15.0010000  0  8G 3G 9G14G15G17G18G21G31
  22176594.7944    3764829.32847   2882132.33047                  22176603.2594
        25.0004         26.0004
  23911015.3644    1722037.31046   1334685.37746                  23911025.5054
        13.2504         12.7504
  21351681.5994    -923718.74348   -680153.60847                  21351688.1854
        28.5004         31.0004
  22617519.5284    5972066.30947   4557632.26146                  22617528.9424
        20.5004         19.2504
  23381563.5754    6403058.58246   4891954.61346                  23381574.8294
        12.7504         13.2504
  22418601.5054    5428373.58047   4141064.57046                  22418608.3764
        26.5004         23.5004
  21436045.5994    2686365.84448   2055648.22747                  21436052.7984
        29.2504         28.5004
  22992791.8334     269932.24446    231144.31346                  22992799.4194
        19.2504         18.0004
 02  7 15 18 55 30.0010000  0  8G 3G 9G14G15G17G18G21G31
  22185665.5284    3812497.35847   2919276.23147                  22185673.7824
        25.0004         26.0004
  23916162.5834    1749085.36246   1355761.79746                  23916172.3494
        13.2504         12.7504
  21351396.0054    -925219.20448   -681322.77647                  21351402.5324
        28.2504         31.0004
  22630421.6384    6039868.45047   4610465.05646                  22630430.5604
        20.0004         19.5004
  23395170.7634    6474566.72946   4947675.20646                  23395182.5914
        12.2504         13.2504
  22430062.6064    5488602.20147   4187995.93646                  22430069.7474
        26.2504         23.7504
  21442198.8024    2718699.39548   2080843.20547                  21442206.0364
        29.5004         28.2504
  22995055.4114     281828.67946    240414.27746                  22995062.7634
        19.5004         17.5004
 02  7 15 18 55 45.0010000  0  8G 3G 9G14G15G17G18G21G31
  22194765.0134    3860315.69547   2956537.25547                  22194773.5134
        24.2504         26.0004
  23921341.4584    1776302.09046   1376969.64746                  23921350.7314
        13.2504         12.7504
  21351138.1464    -926575.33548   -682379.47747                  21351144.6734
        28.5004         31.0004
  22643342.6534    6107768.26147   4663373.95246                  22643351.7284
        20.5004         19.5004
  23408795.4664    6546164.73545   5003465.78446                  23408807.3534
        11.5004         12.7504
  22441534.4584    5548887.42847   4234971.42246                  22441541.7394
        26.2504         23.5004
  21448364.3414    2751100.89148   2106091.12147                  21448371.5634
        29.0004         28.5004
  22997350.4194     293888.69046    249811.71046                  22997357.5834
        19.2504         18.0004
 02  7 15 18 56  0.0010000  0  8G 3G 9G14G15G17G18G21G31
  22203894.8964    3908292.42047   2993921.69547                  22203903.4784
        24.0004         26.0004
  23926554.6694    1803695.91346   1398315.48446                  23926564.8104
        13.5004         13.0004
  21350908.9424    -927778.71048   -683317.15047                  21350915.5874
        28.2504         31.0004
  22656284.1304    6175773.97947   4716365.37746                  22656293.3334
        20.7504         19.7504
  23422439.4584    6617861.01246   5059332.95846                  23422451.6264
        12.0004         13.2504
  22453018.7784    5609237.57947   4281997.49146                  22453026.0834
        26.5004         23.5004
  21454544.7394    2783578.75448   2131398.54747                  21454552.0214
        29.2504         28.5004
  22999678.1924     306120.74546    259343.19746                  22999685.4624
        19.2504         17.7504
 02  7 15 18 56 15.0010000  0  8G 3G 9G14G15G17G18G21G31
  22213051.5834    3956412.28947   3031417.68047                  22213060.1774
        23.7504         25.7504
  23931798.4664    1831251.84846   1419787.66546                  23931808.6304
        13.5004         13.2504
  21350706.1774    -928844.15548   -684147.34347                  21350712.6694
        28.5004         31.0004
  22669242.2474    6243870.48747   4769427.54446                  22669251.2164
        20.5004         19.5004
  23436098.5054    6689640.23145   5115264.72746                  23436111.4114
        11.7504         13.7504
  22464512.4274    5669637.37747   4329062.24446                  22464519.6964
        26.5004         23.2504
  21460736.8334    2816117.77748   2156753.63247                  21460744.2314
        28.5004         28.2504
  23002035.8024     318509.83646    268997.04546                  23002043.1884
        19.2504         18.0004
 02  7 15 18 56 30.0010000  0  8G 3G 9G14G15G17G18G21G31
  22222237.8334    4004685.54647   3069033.18547                  22222246.3104
        24.2504         25.7504
  23937075.0994    1858980.38946   1441394.32946                  23937085.3804
        14.0004         13.5004
  21350531.8104    -929761.11748   -684861.83447                  21350538.2674
        28.2504         31.0004
  22682219.9274    6312067.99047   4822568.41546                  22682228.8494
        20.2504         19.5004
  23449775.2784    6761512.73946   5171269.20746                  23449786.7084
        12.2504         13.5004
  22476017.6774    5730097.11547   4376173.70546                  22476024.8644
        26.2504         23.2504
  21466942.2944    2848728.31548   2182164.44347                  21466949.7744
        28.7504         28.5004
  23004425.1464     331066.51846    278781.48946                  23004433.0014
        19.5004         18.2504
 02  7 15 18 56 45.0010000  0  8G 3G 9G14G15G17G18G21G31
  22231452.9814    4053112.34247   3106768.33046                  22231461.5054
        24.2504         25.5004
  23942384.1464    1886882.04246   1463135.88346                  23942394.4034
        14.0004         13.7504
  21350385.5134    -930529.13148   -685460.25947                  21350392.1814
        28.0004         30.7504
  22695216.8024    6380366.93047   4875788.32946                  22695225.8174
        20.5004         19.7504
  23463469.9114    6833478.84846   5227346.63646                  23463480.8604
        12.2504         13.5004
  22487534.2714    5790617.03447   4423332.05946                  22487541.3644
        26.7504         23.2504
  21473161.4814    2881410.78648   2207631.30547                  21473168.9274
        29.0004         28.7504
  23006846.4974     343791.33646    288696.95346                  23006854.7164
        19.2504         18.5004
 02  7 15 18 57  0.0010000  0  8G 3G 9G14G15G17G18G21G31
  22240697.4504    4101691.48647   3144622.18846                  22240706.0214
        23.5004         25.5004
  23947726.6924    1914956.02446   1485011.72746                  23947736.7044
        13.2504         13.7504
  21350267.8494    -931148.92148   -685943.18647                  21350274.5634
        28.2504         30.7504
  22708232.5834    6448766.18447   4929086.40946                  22708241.2824
        20.5004         19.7504
  23477182.1304    6905537.53746   5283496.19646                  23477193.4664
        12.2504         13.2504
  22499062.1614    5851196.24947   4470536.61946                  22499069.3374
        26.7504         23.2504
  21479394.2784    2914164.17848   2233153.43247                  21479401.7354
        29.2504         28.5004
  23009299.8644     356683.38846    298742.72046                  23009308.2474
        19.2504         18.7504
 02  7 15 18 57 15.0010000  0  8G 3G 9G14G15G17G18G21G31
  22249968.4894    4150409.88747   3182584.55946                  22249977.2944
        23.7504         25.2504
  23953099.0994    1943189.47146   1507011.80946                  23953109.1574
        14.0004         13.7504
  21350175.3414    -931633.23448   -686320.55047                  21350182.0564
        28.2504         30.7504
  22721265.4034    6517252.78447   4982452.55246                  22721274.2434
        20.5004         20.0004
  23490909.2244    6977675.75946   5339707.74046                  23490919.8104
        12.0004         13.0004
  22510598.8644    5911821.64047   4517777.16046                  22510605.6964
        27.2504         23.2504
  21485638.2634    2946975.66248   2258720.82247                  21485645.5914
        29.0004         28.7504
  23011782.5284     369729.99746    308908.92746                  23011791.3804
        18.7504         19.0004
 02  7 15 18 57 30.0010000  0  8G 3G 9G14G15G17G18G21G31
  22259268.0444    4199279.46847   3220664.73446                  22259276.5674
        23.5004         25.0004
  23958505.2474    1971594.58546   1529145.67946                  23958515.2244
        14.2504         13.7504
  21350111.1614    -931969.80648   -686582.79047                  21350117.8414
        28.0004         30.7504
  22734316.8564    6585838.69147   5035896.07246                  22734325.8964
        20.5004         20.2504
  23504654.5834    7049905.65345   5395990.70846                  23504665.3214
        11.7504         12.5004
  22522146.5134    5972505.29847   4565063.10546                  22522153.5364
        27.2504         23.2504
  21491895.3644    2979857.26548   2284342.85047                  21491902.7634
        29.2504         28.5004
  23014296.9584     382943.36446    319205.07346                  23014306.0094
        18.5004         19.0004
 02  7 15 18 57 45.0010000  0  8G 3G 9G14G15G17G18G21G31
  22268598.6854    4248313.14247   3258872.77346                  22268607.1034
        23.5004         24.7504
  23963945.2394    2000184.68946   1551423.68146                  23963955.0054
        14.0004         13.7504
  21350077.9664    -932145.24847   -686719.47447                  21350084.6464
        27.7504         30.7504
  22747389.8334    6654537.04947   5089427.21746                  22747399.5524
        20.0004         20.0004
  23518419.2864    7122240.12645   5452355.17746                  23518430.5404
        11.5004         12.5004
  22533707.8724    6033260.18247   4612404.55746                  22533714.5874
        27.7504         23.2504
  21498168.1464    3012821.93048   2310029.60447                  21498175.6034
        29.0004         28.5004
  23016845.8334     396336.72246    329641.46946                  23016854.9544
        19.0004         19.2504
 02  7 15 18 58  0.0010000  0  8G 3G 9G14G15G17G18G21G31
  22277960.1384    4297508.47047   3297206.78046                  22277968.2284
        23.7504         24.5004
  23969420.7714    2028957.53546   1573844.08046                  23969430.5014
        14.0004         13.7504
  21350074.6774    -932161.66448   -686732.24147                  21350081.1814
        28.2504         31.0004
  22760483.0524    6723345.41646   5143044.07546                  22760492.9934
        19.5004         20.0004
  23532204.0834    7194676.75345   5508799.21146                  23532215.1734
        11.2504         12.7504
  22545282.4354    6094084.00347   4659799.71546                  22545289.2784
        27.7504         23.2504
  21504456.7244    3045867.45148   2335779.35947                  21504464.2284
        29.0004         28.5004
  23019428.3414     409908.02646    340216.54146                  23019437.2284
        19.5004         19.2504
 02  7 15 18 58 15.0010000  0  8G 3G 9G14G15G17G18G21G31
  22287349.2164    4346847.49547   3335652.76546                  22287357.3534
        23.2504         24.0004
  23974927.5674    2057895.44946   1596393.10746                  23974936.6884
        15.0004         14.5004
  21350098.5134    -932036.54648   -686634.72247                  21350104.9464
        28.2504         31.0004
  22773594.7084    6792246.02046   5196732.79946                  22773604.9314
        19.2504         20.2504
  23546003.9504    7267197.97345   5565309.18846                  23546015.9074
        10.7504         12.0004
  22556866.2944    6154958.95447   4707234.72346                  22556873.3294
        27.2504         23.2504
  21510757.0914    3078976.07048   2361578.27647                  21510764.5714
        28.7504         28.5004
  23022040.9974     423639.56246    350916.45746                  23022049.6614
        19.5004         19.5004
 02  7 15 18 58 30.0010000  0  8G 3G 9G14G15G17G18G21G31
  22296764.3964    4396325.40347   3374206.95846                  22296772.6614
        23.0004         24.2504
  23980464.6224    2086993.97446   1619067.27346                  23980473.0874
        15.5004         14.5004
  21350148.5834    -931774.37548   -686430.41147                  21350155.1574
        28.2504         31.5004
  22786722.9504    6861234.19546   5250489.76046                  22786732.7514
        19.7504         20.7504
  23559819.9034    7339798.87945   5621881.25046                  23559830.8294
        11.2504         12.2504
  22568459.3414    6215880.29347   4754705.87546                  22568466.2944
        27.0004         22.5004
  21517068.6064    3112143.34448   2387422.90447                  21517075.9704
        28.5004         28.5004
  23024683.7314     437526.89746    361737.76746                  23024692.8884
        19.2504         19.7504
 02  7 15 18 58 45.0010000  0  8G 3G 9G14G15G17G18G21G31
  22306209.3024    4445958.49447   3412882.08146                  22306217.7434
        23.0004         24.0004
  23986035.5134    2116269.89746   1641879.69546                  23986044.3294
        15.2504         14.7504
  21350227.4744    -931358.38648   -686106.24047                  21350233.9784
        28.0004         31.2504
  22799870.9274    6930326.48547   5304327.85646                  22799880.6694
        20.2504         20.7504
  23573653.4814    7412496.03946   5678528.30646                  23573665.2514
        12.0004         12.7504
  22580064.1384    6276864.66747   4802226.14846                  22580071.0094
        26.5004         22.2504
  21523394.3884    3145385.49548   2413325.87447                  21523401.7744
        28.7504         28.5004
  23027359.0914     451586.70046    372693.48046                  23027367.8374
        19.5004         19.5004
 02  7 15 18 59  0.0010000  0  8G 3G 9G14G15G17G18G21G31
  22315683.4974    4495744.88347   3451676.65146                  22315691.8804
        23.0004         24.0004
  23991640.0834    2145721.49246   1664828.98746                  23991649.9894
        14.7504         14.2504
  21350335.6224    -930790.28948   -685663.54347                  21350342.0214
        28.0004         31.5004
  22813038.4274    6999521.05747   5358245.64846                  22813047.8414
        21.5004         21.2504
  23587505.7714    7485287.50146   5735248.85246                  23587517.0484
        12.5004         12.2504
  22591680.7634    6337910.17247   4849794.05446                  22591687.6814
        26.0004         22.0004
  21529733.9664    3178700.83648   2439285.87747                  21529741.6224
        28.2504         28.5004
  23030067.5444     465817.40246    383782.35046                  23030076.2904
        19.2504         19.2504
 02  7 15 18 59 15.0010000  0  8G 3G 9G14G15G17G18G21G31
  22325187.1304    4545686.57047   3490592.24046                  22325195.5134
        23.5004         24.2504
  23997278.5444    2175351.06746   1687916.97246                  23997288.1694
        14.5004         14.5004
  21350473.1384    -930067.63448   -685100.41447                  21350479.6654
        28.2504         31.5004
  22826225.6464    7068819.93947   5412244.73246                  22826234.7084
        22.0004         21.2504
  23601375.9504    7558175.46946   5792044.60046                  23601387.1104
        12.7504         12.7504
  22603309.4274    6399018.87447   4897411.19646                  22603316.3804
        26.0004         22.0004
  21536088.3724    3212091.66348   2465304.70147                  21536095.9464
        28.0004         28.2504
  23032808.0444     480221.30346    395006.19046                  23032816.4854
        19.7504         19.0004
 02  7 15 18 59 30.0010000  0  8G 3G 9G14G15G17G18G21G31
  22334718.3964    4595773.55247   3529621.03746                  22334726.7204
        23.5004         24.5004
  24002948.6064    2205149.06946   1711136.18546                  24002958.6654
        15.0004         14.5004
  21350638.2864    -929200.01148   -684424.32247                  21350644.8604
        28.0004         31.5004
  22839430.4664    7138213.19847   5466317.35246                  22839439.5634
        21.2504         21.0004
  23615262.5524    7631150.13746   5848907.92346                  23615273.1614
        13.2504         12.5004
  22614948.2864    6460181.02147   4945069.98446                  22614955.1304
        25.5004         22.0004
  21542454.6224    3245547.95948   2491374.54247                  21542462.1494
        28.0004         28.2504
  23035580.0214     494788.72247    406357.44646                  23035588.2864
        20.0004         19.0004
 02  7 15 18 59 45.0010000  0  8G 3G 9G14G15G17G18G21G31
  22344277.3804    4646006.89447   3568763.88346                  22344285.8924
        23.7504         24.7504
  24008651.6384    2235116.82746   1734487.68646                  24008661.1464
        15.2504         14.7504
  21350831.3564    -928185.83148   -683634.02747                  21350837.9314
        28.5004         31.5004
  22852653.8174    7207702.22447   5520464.59146                  22852663.5484
        20.2504         21.0004
  23629165.8964    7704212.73546   5905839.75346                  23629176.4114
        13.0004         12.2504
  22626597.1774    6521397.83747   4992771.37846                  22626604.1534
        25.7504         21.7504
  21548833.8644    3279071.21647   2517496.55847                  21548841.3564
        27.5004         28.2504
  23038383.8724     509521.13046    417837.25946                  23038392.0324
        19.5004         19.2504
 02  7 15 19  0  0.0010000  0  8G 3G 9G14G15G17G18G21G31
  22353866.4664    4696397.42747   3608029.21546                  22353874.9424
        24.0004         24.7504
  24014388.3104    2265265.37446   1757980.05646                  24014397.7354
        14.7504         14.7504
  21351054.2244    -927014.03548   -682720.91547                  21351060.6104
        28.7504         31.5004
  22865897.3104    7277297.82546   5574694.87646                  22865907.5794
        19.5004         20.5004
  23643088.2084    7777373.99146   5962848.46046                  23643098.1964
        13.5004         12.2504
  22638258.9974    6582680.19447   5040523.83746                  22638265.8924
        26.2504         21.7504
  21555228.0054    3312672.36547   2543679.27047                  21555235.6144
        27.5004         28.2504
  23041220.8494     524429.69046    429454.32946                  23041229.1264
        19.7504         19.2504
 02  7 15 19  0 15.0010000  0  8G 3G 9G14G15G17G18G21G31
  22363484.2864    4746939.83647   3647412.89746                  22363492.5994
        23.2504         24.7504
  24020159.0444    2295589.75246   1781609.45046                  24020168.3884
        15.0004         15.0004
  21351306.2004    -925689.56448   -681688.83547                  21351312.7044
        29.0004         31.7504
  22879160.5674    7346994.88947   5629004.22346                  22879170.5324
        20.0004         20.2504
  23657028.3564    7850628.89046   6019930.13046                  23657038.5094
        12.5004         12.2504
  22649932.1774    6644022.95547   5088323.36946                  22649939.3534
        26.0004         21.7504
  21561635.9664    3346346.58947   2569918.92647                  21561643.5284
        27.7504         28.0004
  23044090.5674     539509.36147    441204.74546                  23044098.3764
        20.2504         19.2504
 02  7 15 19  0 30.0010000  0  8G 3G 9G14G15G17G18G21G31
  22373130.0914    4797628.26147   3686910.35246                  22373138.7084
        23.2504         24.7504
  24025961.9424    2326084.49546   1805371.57846                  24025971.5324
        15.0004         14.2504
  21351586.0054    -924217.86048   -680542.03347                  21351592.6264
        28.7504         31.7504
  22892441.6924    7416787.69347   5683388.16546                  22892451.2244
        20.5004         20.2504
  23670984.5754    7923971.70746   6077080.31446                  23670995.1264
        12.7504         12.2504
  22661615.6534    6705420.50947   5136165.58646                  22661622.8534
        25.2504         21.2504
  21568056.6384    3380088.06848   2596210.98347                  21568064.1424
        28.0004         28.0004
  23046991.4034     554754.70546    453084.25146                  23046999.2474
        19.5004         19.5004
 02  7 15 19  0 45.0020000  0  8G 3G 9G14G15G17G18G21G31
  22382805.6664    4848474.75447   3726530.97646                  22382814.2604
        23.2504         24.7504
  24031799.0414    2356760.38846   1829274.86246                  24031809.2294
        14.7504         15.0004
  21351896.1824    -922589.89948   -679273.46847                  21351902.9204
        28.7504         32.0004
  22905743.7994    7486689.53147   5737857.07746                  22905753.4594
        21.2504         20.7504
  23684961.2834    7997415.89146   6134309.48746                  23684972.0454
        12.2504         12.0004
  22673312.3384    6766885.45347   5184060.31646                  22673319.2794
        25.5004         21.2504
  21574492.4164    3413907.71247   2622563.95347                  21574499.8614
        27.7504         28.0004
  23049925.6354     570175.53246    465100.49446                  23049934.1934
        19.2504         19.2504
 02  7 15 19  1  0.0020000  0  8G 3G 9G14G15G17G18G21G31
  22392509.6354    4899468.70547   3766266.51146                  22392518.2404
        23.0004         24.7504
  24037669.8074    2387609.87346   1853313.42946                  24037679.3384
        14.5004         14.2504
  21352234.8774    -920809.21148   -677885.89847                  21352241.3464
        28.7504         31.7504
  22919064.1504    7556687.55947   5792400.94646                  22919073.4944
        22.2504         20.7504
  23698953.8544    8070948.13145   6191607.26946                  23698965.3184
        11.7504         12.0004
  22685019.3464    6828406.14447   5231998.50446                  22685026.2644
        25.7504         21.2504
  21580941.3544    3447797.55348   2648971.62247                  21580948.6934
        28.0004         28.2504
  23052892.8144     585766.45646    477249.28746                  23052901.6314
        19.2504         19.7504
 02  7 15 19  1 15.0020000  0  8G 3G 9G14G15G17G18G21G31
  22402242.3464    4950614.17647   3806120.10146                  22402251.0214
        22.5004         24.5004
  24043573.9164    2418635.95246   1877489.59546                  24043583.5764
        14.7504         14.7504
  21352602.9864    -918874.69848   -676378.46147                  21352609.6544
        28.5004         31.7504
  22932403.5184    7626787.13847   5847023.94646                  22932412.6624
        22.2504         21.0004
  23712963.9324    8144573.92945   6248977.95945                  23712974.4714
        11.2504         11.0004
  22696737.9004    6889987.39047   5279983.86746                  22696744.5214
        26.0004         21.5004
  21587404.4004    3481760.47948   2675436.23747                  21587411.7644
        28.2504         28.0004
  23055891.9714     601529.29646    489532.03146                  23055901.0804
        18.7504         19.5004
 02  7 15 19  1 30.0020000  0  8G 3G 9G14G15G17G18G21G31
  22412003.3934    5001909.30447   3846090.31046                  22412012.1744
        22.7504         24.5004
  24049511.1974    2449837.19546   1901802.24546                  24049520.6354
        14.2504         14.2504
  21353000.1114    -916787.78948   -674752.27847                  21353006.8034
        28.2504         31.7504
  22945762.0254    7696986.57347   5901724.74946                  22945771.2054
        22.7504         21.0004
  23726991.9244    8218291.72545   6306420.33045                  23727002.4044
        11.2504         10.7504
  22708467.6434    6951627.63847   5328015.20746                  22708474.3934
        26.2504         21.5004
  21593881.0184    3515794.80248   2701956.49047                  21593888.3934
        28.0004         28.0004
  23058923.9944     617462.74846    501947.73146                  23058933.3034
        18.5004         19.5004
 02  7 15 19  1 45.0020000  0  8G 3G 9G14G15G17G18G21G31
  22421792.8224    5053353.24847   3886176.48146                  22421801.4864
        22.7504         24.5004
  24055481.9084    2481213.05446   1926250.95946                  24055491.6624
        14.0004         13.7504
  21353426.0574    -914549.00647   -673007.74547                  21353432.8184
        27.5004         32.0004
  22959139.3614    7767285.20947   5956502.86446                  22959148.4364
        22.2504         20.5004
  23741037.5804    8292100.92545   6363933.91945                  23741048.3544
        11.0004         11.2504
  22720208.5884    7013326.09147   5376091.90146                  22720215.2794
        26.5004         21.5004
  21600370.9164    3549900.04548   2728531.99947                  21600378.2794
        28.5004         28.2504
  23061988.3614     633566.34146    514496.00146                  23061997.7644
        18.2504         19.2504
 02  7 15 19  2  0.0020000  0  8G 3G 9G14G15G17G18G21G31
  22431612.5104    5104954.79047   3926385.45246                  22431621.1044
        22.7504         24.5004
  24061487.0574    2512772.58946   1950842.79346                  24061497.3734
        13.7504         14.0004
  21353882.5644    -912149.02047   -671137.60747                  21353889.2794
        27.2504         31.7504
  22972537.3694    7837691.92347   6011365.18146                  22972546.7254
        21.5004         20.2504
  23755101.8304    8366010.32645   6421525.60545                  23755113.2014
        10.7504         11.0004
  22731962.1274    7075091.70747   5424220.92346                  22731968.6894
        26.7504         21.5004
  21606876.1194    3584085.31048   2755169.86747                  21606883.4594
        28.5004         28.2504
  23065086.9714     649849.10646    527183.88146                  23065096.1274
        18.0004         19.5004
 02  7 15 19  2 15.0020000  0  8G 3G 9G14G15G17G18G21G31
  22441458.4324    5156696.31547   3966703.51046                  22441467.1894
        22.5004         24.2504
  24067524.9324    2544498.35846   1975564.17246                  24067535.0144
        14.0004         14.0004
  21354366.7684    -909605.19347   -669155.37847                  21354373.4474
        27.7504         31.5004
  22985952.4084    7908189.26147   6066298.12446                  22985961.4594
        21.2504         20.0004
  23769181.7754    8440002.31145   6479181.62445                  23769193.0764
        10.5004         11.0004
  22743725.1744    7136906.97747   5472388.64846                  22743731.5494
        26.7504         21.2504
  21613393.1354    3618332.92948   2781856.32447                  21613400.4634
        28.2504         28.2504
  23068216.3074     666293.67646    539997.84746                  23068225.3114
        18.2504         19.2504
 02  7 15 19  2 30.0020000  0  8G 3G 9G14G15G17G18G21G31
  22451333.6584    5208590.44847   4007140.48246                  22451342.4634
        22.0004         24.2504
  24073595.7994    2576403.39646   2000425.23446                  24073605.7174
        14.0004         14.2504
  21354880.5724    -906904.55547   -667050.96347                  21354887.0064
        27.7504         31.2504
  22999387.4084    7978789.96047   6121311.60346                  22999396.5294
        20.5004         19.5004
  23783281.0414    8514089.77745   6536912.04045                  23783292.1544
        10.5004         11.5004
  22755500.1584    7198784.77847   5520605.08746                  22755506.3694
        26.0004         21.7504
  21619924.6744    3652655.76548   2808601.38847                  21619932.0724
        28.2504         28.2504
  23071378.7604     682913.01746    552947.99846                  23071387.4124
        18.5004         19.2504
 02  7 15 19  2 45.0020000  0  8G 3G 9G14G15G17G18G21G31
  22461237.4394    5260636.35447   4047695.71246                  22461246.1864
        21.7504         24.0004
  24079701.3464    2608487.16746   2025425.56846                  24079710.9474
        13.5004         14.0004
  21355424.2994    -904047.53247   -664824.69147                  21355430.6744
        27.7504         31.2504
  23012841.8614    8049493.32647   6176405.08046                  23012851.2404
        20.5004         19.2504
  23797396.8934    8588271.94445   6594716.26845                  23797407.5024
        10.7504         11.2504
  22767286.8224    7260724.37047   5568869.68146                  22767293.3144
        25.5004         22.0004
  21626470.3304    3687053.45548   2835404.78047                  21626477.8114
        28.2504         28.5004
  23074574.3304     699706.73346    566034.02646                  23074583.0414
        18.2504         19.0004
 02  7 15 19  3  0.0020000  0  8G 3G 9G14G15G17G18G21G31
  22471169.5184    5312829.22447   4088365.46146                  22471177.8074
        22.5004         24.0004
  24085839.5494    2640745.23446   2050561.71946                  24085849.1624
        13.2504         13.5004
  21355996.8694    -901038.47248   -662479.94747                  21356003.1154
        28.0004         31.2504
  23026314.9474    8120294.71247   6231574.93746                  23026324.2794
        20.5004         18.7504
  23811530.2754    8662544.06945   6652590.58445                  23811541.1544
        10.5004         11.2504
  22779084.3144    7322721.01747   5617178.72346                  22779091.2564
        25.5004         22.2504
  21633029.3464    3721521.43847   2862262.94947                  21633036.7684
        27.5004         28.2504
  23077802.4474     716670.31746    579252.41546                  23077811.1004
        18.5004         19.0004
 02  7 15 19  3 15.0020000  0  8G 3G 9G14G15G17G18G21G31
  22481129.8464    5365171.03047   4129151.26446                  22481138.0414
        22.5004         23.7504
  24092011.8384    2673179.77446   2075835.36746                  24092021.8614
        13.2504         13.5004
  21356598.7214    -897875.11448   -660014.97047                  21356605.0724
        28.0004         31.2504
  23039807.1744    8191196.18647   6286822.79146                  23039816.3894
        21.0004         18.7504
  23825681.4474    8736908.34745   6710536.70145                  23825692.4324
        10.5004         11.5004
  22790893.1974    7384776.87647   5665533.92146                  22790900.1274
        25.0004         22.0004
  21639602.0574    3756061.77347   2889177.49347                  21639609.6784
        27.7504         28.5004
  23081063.5104     733805.95146    592604.88246                  23081072.2564
        18.5004         18.7504
 02  7 15 19  3 30.0020000  0  8G 3G 9G14G15G17G18G21G31
  22491118.1434    5417660.00047   4170051.74246                  22491126.6544
        22.7504         23.7504
  24098217.2914    2705789.29846   2101245.37246                  24098227.5374
        13.7504         13.7504
  21357229.9944    -894558.88548   -657430.87647                  21357236.3114
        28.2504         31.2504
  23053318.0414    8262196.08047   6342147.33546                  23053327.6434
        21.0004         18.2504
  23839850.4004    8811363.07845   6768553.28345                  23839861.5254
        10.5004         11.7504
  22802712.9714    7446890.25647   5713933.93646                  22802720.0414
        24.7504         22.0004
  21646188.4164    3790672.89347   2916147.19047                  21646195.8614
        27.7504         28.2504
  23084356.7134     751112.27246    606090.33146                  23084365.5414
        18.5004         19.2504
 02  7 15 19  3 45.0020000  0  8G 3G 9G14G15G17G18G21G31
  22501136.3934    5470306.32447   4211074.82846                  22501144.5764
        23.2504         23.7504
  24104457.8854    2738584.25046   2126799.87846                  24104468.2254
        13.5004         14.0004
  21357892.1354    -891079.27148   -654719.46247                  21357898.5454
        28.0004         31.0004
  23066849.6974    8333304.65747   6397556.57146                  23066858.9244
        20.7504         18.0004
  23854037.7294    8885918.48245   6826648.35245                  23854049.3344
        11.2504         11.5004
  22814546.0024    7509071.52547   5762386.84146                  22814552.9794
        24.5004         22.0004
  21652789.9244    3825364.92248   2943179.93747                  21652797.4164
        28.0004         28.5004
  23087684.3144     768599.59546    619716.83046                  23087692.8264
        18.5004         19.2504
 02  7 15 19  4  0.0020000  0  8G 3G 9G14G15G17G18G21G31
  22511185.1114    5523111.98847   4252222.07246                  22511193.4364
        22.7504         23.7504
  24110734.1274    2771566.98446   2152500.71146                  24110743.8574
        14.0004         13.5004
  21358585.4794    -887433.68347   -651878.72247                  21358591.8654
        27.7504         31.0004
  23080402.3544    8404524.17847   6453052.25346                  23080410.9124
        20.5004         17.7504
  23868244.6274    8960576.78845   6884823.56346                  23868256.6784
        11.2504         12.5004
  22826391.8934    7571322.96847   5810894.43946                  22826398.9284
        24.2504         22.0004
  21659407.6044    3860140.33348   2970277.65747                  21659415.2714
        28.0004         28.5004
  23091047.0414     786270.44046    633486.34146                  23091055.6004
        18.7504         19.0004
 02  7 15 19  4 15.0020000  0  8G 3G 9G14G15G17G18G21G31
  22521261.1744    5576062.03447   4293481.83146                  22521269.5334
        22.2504         23.5004
  24117043.6114    2804722.92246   2178336.50746                  24117053.0844
        14.0004         13.7504
  21359308.0254    -883636.69748   -648920.00847                  21359314.3544
        28.0004         31.0004
  23093972.9794    8475839.80847   6508622.82646                  23093981.8184
        20.5004         17.5004
  23882468.5644    9035323.25545   6943067.50846                  23882480.6864
        11.2504         12.0004
  22838248.3854    7633629.82047   5859445.20946                  22838255.4084
        24.5004         22.2504
  21666038.3544    3894984.30848   2997428.80247                  21666045.8344
        28.2504         28.5004
  23094441.6504     804110.27046    647387.51446                  23094450.2794
        19.2504         19.2504
 02  7 15 19  4 30.0020000  0  8G 3G 9G14G15G17G18G21G31
  22531366.4244    5629164.26047   4334860.15746                  22531374.8304
        22.7504         23.7504
  24123387.6354    2838060.11346   2204313.52546                  24123397.5414
        14.0004         13.5004
  21360061.1584    -879680.31848   -645837.09647                  21360067.4164
        28.0004         31.0004
  23107563.7214    8547259.48746   6564274.48946                  23107572.3504
        19.5004         17.2504
  23896710.4794    9110165.67545   7001386.20346                  23896723.5254
        11.2504         12.5004
  22850117.0254    7696000.06147   5908045.37946                  22850124.2604
        24.0004         22.2504
  21672683.4084    3929904.85248   3024639.61247                  21672690.8304
        28.7504         28.7504
  23097870.0184     822127.02846    661426.56046                  23097878.5884
        19.2504         19.5004
 02  7 15 19  4 45.0020000  0  8G 3G 9G14G15G17G18G21G31
  22541500.5254    5682419.38347   4376357.63046                  22541508.9794
        23.0004         23.7504
  24129766.5414    2871579.57446   2230432.56946                  24129776.9044
        13.5004         13.7504
  21360844.3854    -875563.36247   -642629.06147                  21360850.7364
        27.7504         31.0004
  23121174.5414    8618784.02246   6620007.83246                  23121183.9434
        18.5004         17.5004
  23910971.0964    9185105.06045   7059780.43546                  23910983.8734
        10.7504         12.7504
  22861998.0884    7758434.45347   5956695.53546                  22862005.3344
        24.5004         22.0004
  21679343.0964    3964902.95548   3051910.85747                  21679350.4714
        29.0004         28.7504
  23101332.4864     840321.83746    675604.34046                  23101340.9864
        19.2504         19.7504
 02  7 15 19  5  0.0020000  0  8G 3G 9G14G15G17G18G21G31
  22551662.0334    5735819.00247   4417967.70346                  22551670.4754
        23.2504         24.0004
  24136177.9864    2905273.20646   2256687.34346                  24136188.4554
        13.5004         13.7504
  21361657.0724    -871293.80047   -639302.11147                  21361663.6354
        27.7504         31.0004
  23134803.5644    8690405.18146   6675816.46646                  23134812.7444
        18.5004         17.0004
  23925249.1504    9260133.09045   7118243.75446                  23925261.7294
        10.7504         12.2504
  22873889.6434    7820924.84347   6005389.31746                  22873896.9594
        23.7504         21.7504
  21686016.4244    3999970.38448   3079236.12147                  21686023.8224
        29.0004         28.7504
  23104827.1584     858686.67346    689914.61346                  23104835.5884
        19.5004         19.5004
 02  7 15 19  5 15.0020000  0  8G 3G 9G14G15G17G18G21G31
  22561851.1974    5789362.59447   4459689.95946                  22561859.7564
        23.0004         24.2504
  24142622.7134    2939140.74546   2283077.62646                  24142632.4324
        13.5004         13.7504
  21362498.4394    -866871.82747   -635856.39347                  21362504.9434
        27.5004         31.2504
  23148450.8224    8762122.59946   6731700.12246                  23148460.1784
        17.7504         16.2504
  23939542.9714    9335249.16945   7176775.67546                  23939555.5964
        11.2504         12.5004
  22885791.4714    7883470.86747   6054126.46146                  22885798.8114
        24.2504         22.0004
  21692702.8074    4035106.90748   3106615.23247                  21692710.1114
        29.5004         29.0004
  23108354.2294     877221.18246    704357.09546                  23108362.6464
        18.7504         19.2504
 02  7 15 19  5 30.0020000  0  8G 3G 9G14G15G17G18G21G31
  22572067.9634    5843051.78347   4501525.66846                  22572076.5574
        23.2504         24.2504
  24149101.0254    2973184.08846   2309604.90046                  24149110.8854
        13.5004         13.2504
  21363369.2754    -862295.38947   -632290.32047                  21363375.9324
        27.7504         31.2504
  23162116.9004    8833938.09846   6787660.19946                  23162126.6664
        17.5004         16.7504
  23953854.5024    9410455.26745   7235377.76246                  23953866.5184
        11.5004         12.7504
  22897704.5254    7946074.24247   6102908.28846                  22897711.6544
        24.7504         22.0004
  21699402.4324    4070314.45148   3134049.67547                  21699409.8774
        29.2504         29.0004
  23111914.0184     895927.46046    718933.43346                  23111922.2714
        18.7504         19.2504
 02  7 15 19  5 45.0020000  0  8G 3G 9G14G15G17G18G21G31
  22582311.5884    5896882.45847   4543471.62346                  22582320.7324
        22.7504         24.2504
  24155611.6744    3007399.46146   2336266.21746                  24155621.6154
        13.0004         13.2504
  21364268.7834    -857568.42148   -628606.94947                  21364275.3344
        28.0004         31.5004
  23175800.8934    8905847.61846   6843693.52446                  23175810.7754
        17.2504         16.5004
  23968181.7914    9485747.33045   7294046.82145                  23968193.5254
        11.7504         11.7504
  22909627.7994    8008731.01847   6151731.73246                  22909635.0574
        25.0004         21.7504
  21706115.0024    4105588.96248   3161536.30447                  21706122.5534
        29.0004         29.0004
  23115505.4004     914801.63946    733640.59346                  23115513.9944
        19.0004         19.2504
 02  7 15 19  6  0.0020000  0  8G 3G 9G14G15G17G18G21G31
  22592582.5254    5950856.06447   4585528.95146                  22592591.2834
        23.0004         24.2504
  24162155.6824    3041788.57346   2363062.92846                  24162165.7294
        12.7504         13.0004
  21365197.4474    -852688.81047   -624804.63047                  21365204.1394
        27.7504         31.2504
  23189503.0494    8977852.82446   6899801.43646                  23189512.5924
        17.5004         16.7504
  23982526.3464    9561126.95745   7352784.11146                  23982537.3304
        11.7504         12.2504
  22921561.6504    8071442.88747   6200598.10146                  22921568.9324
        25.2504         21.7504
  21712840.5334    4140932.18748   3189076.47947                  21712848.0024
        28.7504         29.0004
  23119129.6354     933845.47346    748479.95846                  23119138.1584
        19.0004         18.7504
 02  7 15 19  6 15.0020000  0  8G 3G 9G14G15G17G18G21G31
  22602882.4944    6004982.67947   4627705.52046                  22602891.1234
        23.0004         24.2504
  24168734.8774    3076361.71246   2390003.02846                  24168744.7484
        12.7504         12.5004
  21366157.0024    -847646.26647   -620875.36247                  21366163.7404
        27.5004         31.2504
  23203225.4084    9049963.81046   6955991.75846                  23203234.4594
        17.5004         16.2504
  23996888.9324    9636604.29645   7411597.56746                  23996900.7014
        11.5004         12.2504
  22933507.8224    8134220.06647   6249515.35646                  22933515.1504
        25.5004         21.7504
  21719580.9634    4176354.33248   3216678.14247                  21719588.4904
        28.7504         29.2504
  23122787.7994     953069.34246    763459.60346                  23122796.1464
        19.0004         19.0004
 02  7 15 19  6 30.0020000  0  8G 3G 9G14G15G17G18G21G31
  22613211.9474    6059264.26047   4670002.82746                  22613220.6114
        23.5004         24.5004
  24175349.3144    3111121.16946   2417088.30146                  24175358.4594
        12.7504         12.5004
  21367147.8694    -842438.52947   -616817.35747                  21367154.6894
        27.7504         31.5004
  23216968.3544    9122182.69446   7012266.15746                  23216977.4164
        17.2504         16.5004
  24011271.1354    9712181.58545   7470488.88145                  24011282.4244
        11.2504         11.0004
  22945466.6434    8197064.66947   6298485.14946                  22945474.0184
        25.5004         21.5004
  21726337.1194    4211857.58748   3244343.01947                  21726344.5644
        29.0004         29.2504
  23126480.6664     972475.61146    778581.38546                  23126488.6974
        18.7504         19.0004
 02  7 15 19  6 45.0020000  0  8G 3G 9G14G15G17G18G21G31
  22623571.1504    6113703.97447   4712423.36146                  22623579.6864
        23.5004         24.5004
  24181999.9634    3146070.59546   2444321.61746                  24182010.1154
        12.7504         12.5004
  21368170.7684    -837061.91248   -612627.76447                  21368177.5184
        28.2504         31.2504
  23230732.1894    9194512.91746   7068627.32146                  23230740.8544
        17.7504         16.5004
  24025672.5494    9787862.05845   7529460.60945                  24025684.5064
        11.2504         11.5004
  22957439.2754    8259980.14447   6347510.16146                  22957446.1934
        25.5004         21.5004
  21733109.3694    4247445.66048   3272073.98047                  21733116.7564
        29.2504         29.0004
  23130208.6824     992067.80146    793848.04946                  23130217.0294
        18.5004         18.7504
 02  7 15 19  7  0.0020000  0  8G 3G 9G14G15G17G18G21G31
  22633959.0334    6168290.80147   4754958.52346                  22633967.3934
        23.5004         24.0004
  24188684.5574    3181199.18746   2471694.54446                  24188694.6744
        12.5004         12.7504
  21369224.1044    -831527.02948   -608314.84647                  21369230.6314
        28.5004         31.5004
  23244515.3304    9266943.52146   7125066.69846                  23244524.6154
        17.2504         16.5004
  24040091.8694    9863634.87645   7588504.27245                  24040103.8384
        11.0004         11.7504
  22969422.8144    8322955.58147   6396581.90146                  22969429.8854
        24.7504         21.0004
  21739895.5334    4283107.59448   3299862.49847                  21739902.7564
        29.2504         29.2504
  23133970.1894    1011835.10946    809251.16546                  23133978.4904
        18.5004         18.7504
 02  7 15 19  7 15.0020000  0  8G 3G 9G14G15G17G18G21G31
  22644374.8304    6223027.99647   4797610.86446                  22644383.0844
        23.7504         24.2504
  24195404.2834    3216510.39346   2499209.75346                  24195413.5684
        12.5004         12.5004
  21370308.3074    -825830.29748   -603875.81547                  21370314.9164
        28.5004         31.7504
  23258318.5024    9339477.84046   7181586.89446                  23258327.9394
        17.7504         16.7504
  24054529.1744    9939503.30145   7647622.46145                  24054540.8504
        10.5004         11.0004
  22981418.8774    8385994.45947   6445703.07646                  22981426.0764
        24.5004         21.0004
  21746696.7054    4318846.89248   3327711.29647                  21746703.9514
        29.5004         29.2504
  23137766.0104    1031781.13946    824793.53646                  23137774.8384
        18.7504         19.0004
 02  7 15 19  7 30.0020000  0  8G 3G 9G14G15G17G18G21G31
  22654820.2214    6277918.02747   4840382.29046                  22654828.6154
        23.5004         24.2504
  24202158.5184    3252007.01246   2526869.46046                  24202167.7914
        12.5004         12.5004
  21371423.7054    -819968.85848   -599308.43647                  21371430.2564
        28.5004         31.5004
  23272141.2834    9412118.51946   7238189.96346                  23272151.2714
        17.7504         16.7504
  24068985.4474   10015470.00845   7706817.20445                  24068997.7324
        10.2504         11.0004
  22993427.3304    8449099.34147   6494875.67246                  22993434.6464
        24.2504         20.7504
  21753512.7444    4354665.99348   3355622.28447                  21753520.0844
        29.5004         29.2504
  23141595.9474    1051908.58146    840477.27846                  23141604.3424
        18.5004         18.7504
 02  7 15 19  7 45.0020000  0  8G 3G 9G14G15G17G18G21G31
  22665293.4794    6332955.85747   4883268.88246                  22665301.8504
        23.5004         24.2504
  24208948.0334    3287684.31746   2554669.97146                  24208957.9044
        12.7504         12.7504
  21372569.5184    -813947.35848   -594616.34047                  21372575.8574
        28.5004         31.7504
  23285983.7914    9484860.75746   7294872.15846                  23285993.9794
        17.0004         16.7504
  24083459.1744   10091530.16345   7766084.76145                  24083471.5414
        10.2504         11.2504
  23005447.5964    8512265.45847   6544095.98146                  23005454.8544
        24.5004         20.7504
  21760343.2914    4390560.39148   3383591.93747                  21760350.5964
        29.7504         29.5004
  23145459.6274    1072212.91546    856298.84946                  23145468.5144
        18.2504         19.0004
 02  7 15 19  8  0.0020000  0  8G 3G 9G14G15G17G18G21G31
  22675795.1194    6388141.82147   4926270.91046                  22675803.6664
        22.7504         24.0004
  24215772.2214    3323542.90246   2582611.69945                  24215782.8894
        12.7504         11.5004
  21373745.9244    -807765.13048   -589798.99747                  21373752.1704
        28.5004         31.7504
  23299845.8074    9557704.96746   7351633.81446                  23299856.1584
        17.0004         16.7504
  24097950.7444   10167684.14545   7825425.43145                  24097963.6744
         9.7504         10.2504
  23017479.5494    8575493.24047   6593364.34946                  23017486.4674
        24.2504         20.2504
  21767188.1584    4426530.45048   3411620.55247                  21767195.5104
        29.7504         29.5004
  23149357.1824    1092694.71946    872258.69546                  23149366.3854
        18.2504         19.0004
 02  7 15 19  8 15.0020000  0  8G 3G 9G14G15G17G18G21G31
  22686326.1044    6443481.90147   4969393.01346                  22686334.6504
        22.7504         24.0004
  24222630.9714    3359588.96346
        12.5004
  21374954.1434    -801415.78047   -584851.43347                  21374960.4474
        27.7504         31.5004
  23313727.9554    9630657.29946   7408479.72346                  23313737.8144
        17.7504         17.2504
  24112460.9944   10243938.26745   7884844.15245                  24112472.6114
         9.5004         10.0004
  23029524.2994    8638788.94547   6642685.63946                  23029531.1074
        24.2504         20.2504
  21774048.5964    4462582.47248   3439713.03847                  21774055.9594
        30.0004         29.5004
  23153289.6974    1113360.28146    888361.75046                  23153298.1504
        18.5004         19.0004
 02  7 15 19  8 30.0020000  0  8G 3G 9G14G15G17G18G21G31
  22696884.9004    6498969.40347   5012630.00046                  22696893.4824
        22.2504         24.0004
  24229524.6824    3395816.12145
        11.7504
  21376192.9084    -794905.71548   -579778.62747                  21376199.2134
        28.0004         31.2504
  23327629.7834    9703711.20846   7465404.80346                  23327639.5724
        18.0004         17.7504
  24126989.6274   10320285.66145   7944335.51345                  24127000.7644
         9.5004         10.0004
  23041580.5184    8702146.03947   6692054.77746                  23041587.4474
        23.5004         20.0004
  21780923.4864    4498709.77848   3467864.17847                  21780930.8854
        29.7504         29.7504
  23157255.7364    1134203.10446    904602.91746                  23157264.8114
        18.7504         19.2504
 02  7 15 19  8 45.0020000  0  8G 3G 9G14G15G17G18G21G31
  22707472.2364    6554605.83647   5055983.02946                  22707481.3344
        22.5004         24.0004
  24236452.6584    3432226.17545      9469.97555                  24236461.9904
        11.5004         11.5004
  21377462.6894    -788233.05448   -574579.13147                  21377468.8304
        28.0004         31.5004
  23341551.2294    9776868.32346   7522410.28746                  23341560.6784
        18.2504         17.7504
  24141535.8934   10396728.07645   8003900.94545                  24141547.7094
         9.7504          9.7504
  23053648.8144    8765566.13847   6741473.01746                  23053656.0844
        23.2504         20.2504
  21787812.9794    4534914.42948   3496075.59247                  21787820.2834
        29.7504         29.5004
  23161256.2914    1155225.14746    920983.74346                  23161264.9204
        18.5004         19.2504
 02  7 15 19  9  0.0020000  0  8G 3G 9G14G15G17G18G21G31
  22718087.3384    6610387.39947   5099449.14546                  22718096.2484
        22.7504         23.7504
  24243415.9864    3468815.76345     37981.32246                  24243426.0334
        11.5004         12.0004
  21378762.8144    -781401.08447   -569255.49947                  21378769.0144
        27.7504         31.5004
  23355491.9554    9850125.08646   7579493.42346                  23355501.2874
        18.2504         17.7504
  24156100.3304   10473261.92945   8063537.61845                  24156110.8934
        10.0004          9.7504
  23065729.0104    8829045.81347   6790937.66146                  23065736.6314
        22.7504         20.2504
  21794716.4794    4571192.94948   3524344.56247                  21794723.9124
        30.0004         29.7504
  23165290.0494    1176422.92146    937501.48646                  23165298.6434
        18.5004         18.7504
 02  7 15 19  9 15.0020000  0  8G 3G 9G14G15G17G18G21G31
  22728731.3934    6666322.34347   5143034.77246                  22728740.1624
        23.0004         23.7504
  24250414.4474    3505593.24345     66639.11046                  24250424.9284
        11.2504         12.5004
  21380094.7364    -774401.21848   -563801.04047                  21380101.0294
        28.0004         31.5004
  23369452.6504    9923489.82546   7636660.70546                  23369462.4634
        17.7504         17.2504
  24170683.3934   10549895.66345   8123252.13045                  24170693.8964
         9.5004          9.5004
  23077821.4084    8892593.37047   6840455.20546                  23077828.9594
        22.5004         20.0004
  21801635.7684    4607553.66248   3552677.58147                  21801643.2484
        29.7504         29.7504
  23169359.1824    1197805.00646    954162.85846                  23169367.5294
        19.0004         18.7504
 02  7 15 19  9 30.0020000  0  8G 3G 9G14G15G17G18G21G31
  22739404.7604    6722410.87847   5186740.09346                  22739413.2134
        23.5004         23.7504
  24257448.7444    3542559.06945     95443.64846                  24257459.0844
        11.7504         12.2504
  21381458.9864    -767232.88348   -558215.30147                  21381465.3854
        28.0004         31.7504
  23383433.8934    9996962.86246   7693912.36646                  23383443.5884
        17.7504         17.2504
  24185285.6354   10626629.45545   8183044.60345                  24185297.0184
        10.2504         10.0004
  23089927.3384    8956209.21447   6890025.97246                  23089934.9004
        22.0004         20.2504
  21808570.6744    4643997.03548   3581075.01347                  21808578.2484
        29.7504         29.7504
  23173463.1744    1219371.77346    970968.14646                  23173471.1234
        18.7504         18.2504
 02  7 15 19  9 45.0020000  0  8G 3G 9G14G15G17G18G21G31
  22750105.3854    6778643.12247   5230557.39646                  22750113.7914
        23.5004         23.5004
  24264517.5884    3579703.77945    124387.58146                  24264528.0684
        11.2504         12.2504
  21382853.1664    -759905.56848   -552505.68847                  21382859.6114
        28.2504         31.7504
  23397434.1194   10070534.51646   7751240.87446                  23397444.2014
        17.2504         17.5004
  24199904.5724   10703453.61545   8242907.47045                  24199916.6464
        10.2504          9.2504
  23102044.0884    9019883.68747   6939642.41346                  23102051.3114
        22.2504         20.0004
  21815519.6274    4680513.40848   3609529.32147                  21815527.2014
        29.7504         30.0004
  23177600.7294    1241113.79546    987909.97846                  23177608.7254
        19.0004         18.5004
 02  7 15 19 10  0.0020000  0  8G 3G 9G14G15G17G18G21G31
  22760833.1354    6835017.03147   5274485.08046                  22760841.5064
        23.7504         23.5004
  24271619.2914    3617025.53545    153469.45946                  24271629.9364
        11.7504         12.7504
  21384277.4004    -752420.95048   -546673.49547                  21384283.6704
        28.2504         31.5004
  23411452.4554   10144202.89446   7808644.73846                  23411462.8304
        17.0004         17.2504
  24214540.3694   10780366.33745   8302839.36245                  24214551.6114
        10.0004          9.5004
  23114171.6974    9083614.97147   6989303.13646                  23114178.7094
        22.2504         20.2504
  21822481.9084    4717100.99348   3638039.12447                  21822489.4944
        30.0004         29.7504
  23181770.7754    1263029.32346   1004987.03046                  23181778.7134
        19.0004         18.5004
 02  7 15 19 10 15.0020000  0  8G 3G 9G14G15G17G18G21G31
  22771588.1114    6891535.66047   5318525.54246                  22771596.6464
        23.5004         23.5004
  24278755.7214    3654527.64745    182691.87746                  24278766.3544
        11.7504         12.5004
  21385732.3614    -744775.67848   -540716.12147                  21385738.7714
        28.5004         31.7504
  23425490.4634   10217971.07846   7866126.38146                  23425500.9794
        17.5004         17.7504
  24229194.5414   10857370.65245   8362842.62545                  24229205.6664
        10.5004          9.7504
  23126310.9554    9147406.20547   7039010.56746                  23126318.2714
        22.7504         20.5004
  21829458.4324    4753763.17648   3666607.06147                  21829465.9594
        30.2504         30.0004
  23185974.9394    1285121.73546   1022201.90546                  23185982.8544
        19.2504         18.7504
 02  7 15 19 10 30.0020000  0  8G 3G 9G14G15G17G18G21G31
  22782369.6664    6948193.37147   5362674.37446                  22782378.0844
        23.7504         23.2504
  24285925.4394    3692204.85546    212050.75946                  24285935.6154
        12.5004         12.5004
  21387216.7294    -736974.97648   -534637.63147                  21387222.8934
        28.7504         31.7504
  23439546.4324   10291833.66146   7923681.57546                  23439556.6434
        18.2504         18.0004
  24243864.6974   10934461.20145   8422913.10245                  24243875.2714
        11.0004          9.7504
  23138460.5884    9211252.02347   7088760.52446                  23138467.8224
        23.2504         21.0004
  21836448.2754    4790494.50848   3695228.87047                  21836455.7684
        30.5004         30.2504
  23190211.7994    1307385.64246   1039550.40946                  23190219.7014
        19.2504         18.2504
 02  7 15 19 10 45.0020000  0  8G 3G 9G14G15G17G18G21G31
  22793178.8854    7004994.74947   5406935.15846                  22793187.1044
        23.5004         23.0004
  24293129.6894    3730061.91846    241549.76446                  24293140.2054
        13.0004         13.5004
  21388731.6664    -729013.94548   -528434.20947                  21388737.8184
        29.0004         31.7504
  23453621.2604   10365795.31846   7981313.97446                  23453631.0144
        19.5004         18.5004
  24258551.4794   11011642.63245   8483054.40645                  24258562.6744
        10.7504         10.2504
  23150621.3614    9275157.08947   7138556.65146                  23150628.5494
        24.0004         21.0004
  21843452.0104    4827299.61848   3723908.17247                  21843459.5964
        30.7504         30.2504
  23194481.7294    1329825.85946   1057036.29846                  23194489.2684
        19.2504         18.2504
 02  7 15 19 11  0.0020000  0  8G 3G 9G14G15G17G18G21G31
  22804015.4794    7061940.70447   5451308.59846                  22804023.9204
        23.7504         23.5004
  24300368.2754    3768100.11046    271189.90746                  24300378.5804
        12.7504         13.0004
  21390277.3614    -720891.24648   -522104.81247                  21390283.6544
        29.0004         31.7504
  23467714.5254   10439857.17946   8039024.45546                  23467724.3264
        19.7504         18.5004
  24273256.3934   11088915.97545   8543267.29145                  24273267.2714
        10.2504         10.7504
  23162793.7054    9339122.54047   7188399.84146                  23162800.6114
        24.7504         21.2504
  21850470.1354    4864179.88748   3752646.04247                  21850477.7684
        30.5004         30.2504
  23198785.9794    1352443.76246   1074660.64346                  23198793.6114
        19.5004         18.2504
 02  7 15 19 11 15.0020000  0  8G 3G 9G14G15G17G18G21G31
  22814879.1194    7119030.88947   5495794.42546                  22814887.3144
        24.0004         23.5004
  24307641.5024    3806319.26546    300971.05646                  24307651.3854
        13.0004         13.5004
  21391853.7444    -712606.77548   -515649.35747                  21391860.1194
        28.7504         31.7504
  23481826.9084   10514019.11546   8096812.91346                  23481836.8614
        19.5004         19.0004
  24287977.9004   11166281.05145   8603551.69045                  24287989.9984
        10.2504         10.0004
  23174977.3224    9403148.37247   7238290.07846                  23174984.1934
        24.5004         21.0004
  21857502.5334    4901135.20848   3781442.39147                  21857510.1074
        30.2504         30.0004
  23203123.8304    1375239.27446   1092423.39246                  23203130.9244
        19.7504         18.5004
 02  7 15 19 11 30.0020000  0  8G 3G 9G14G15G17G18G21G31
  22825769.8694    7176261.48747   5540389.67346                  22825777.9474
        24.2504         23.5004
  24314947.5104    3844715.89646    330890.50246                  24314957.3574
        12.7504         13.0004
  21393460.7294    -704164.03948   -509070.58347                  21393467.2094
        29.0004         31.7504
  23495957.9244   10588277.41946   8154676.45946                  23495968.1704
        18.7504         18.7504
  24302716.7994   11243734.32345   8663904.77645                  24302729.4474
         9.5004         10.2504
  23187171.8544    9467230.98247   7288224.55546                  23187178.9594
        24.5004         21.0004
  21864548.5644    4938161.84648   3810294.31447                  21864555.9984
        30.2504         30.0004
  23207494.7994    1398208.84946   1110321.75746                  23207502.0334
        19.7504         18.2504
 02  7 15 19 11 45.0020000  0  8G 3G 9G14G15G17G18G21G31
  22836688.2834    7233637.27647   5585098.05046                  22836696.0804
        24.5004         23.5004
  24322289.0964    3883295.13046    360952.25646                  24322299.9164
        12.7504         13.0004
  21395098.0884    -695557.79348   -502364.39247                  21395104.3934
        28.7504         31.5004
  23510108.2054   10662637.09546   8212618.99746                  23510118.4984
        18.2504         18.5004
  24317473.4394   11321280.69845   8724330.40645                  24317487.0494
         9.2504         10.2504
  23199377.9554    9531375.45947   7338207.24746                  23199385.3424
        23.7504         21.0004
  21871609.0334    4975265.04648   3839205.89547                  21871616.5614
        30.2504         29.7504
  23211900.1894    1421357.72046   1128359.84446                  23211907.2484
        19.5004         18.2504
 02  7 15 19 12  0.0020000  0  8G 3G 9G14G15G17G18G21G31
  22847634.9474    7291162.51647   5629922.89846                  22847642.8854
        24.2504         23.5004
  24329665.9794    3922061.35846    391159.69746                  24329676.7054
        12.5004         12.7504
  21396767.7684    -686783.52448   -495527.28347                  21396774.0144
        29.0004         31.5004
  23524278.4394   10737102.38246   8270643.84346                  23524288.6274
        18.2504         18.5004
  24332248.6044   11398924.33645   8784831.85545                  24332260.6544
         9.7504         10.0004
  23211597.1114    9595585.94147   7388241.35946                  23211604.2524
        24.0004         21.2504
  21878684.8464    5012449.29748   3868180.63147                  21878692.4204
        29.7504         29.7504
  23216339.6584    1444690.10546   1146540.92746                  23216347.5024
        19.7504         18.7504
 02  7 15 19 12 15.0020000  0  8G 3G 9G14G15G17G18G21G31
  22858607.9794    7348826.98547   5674856.23146                  22858616.2564
        24.2504         23.5004
  24337076.8694    3961004.69946    421505.17046                  24337087.9244
        12.7504         12.7504
  21398467.6664    -677851.15748   -488566.97447                  21398473.9124
        29.2504         31.5004
  23538467.1194   10811663.25046   8328743.14946                  23538477.4944
        18.2504         18.5004
  24347040.9164   11476655.26945   8845401.31645                  24347053.3654
         9.7504         10.7504
  23223826.5964    9659852.60047   7438319.24946                  23223833.7604
        23.7504         21.0004
  21885774.2834    5049704.52948   3897210.67947                  21885781.9394
        29.0004         29.5004
  23220813.0104    1468196.38546   1164857.51346                  23220820.4904
        19.7504         18.7504
 02  7 15 19 12 30.0020000  0  8G 3G 9G14G15G17G18G21G31
  22869607.4944    7406628.96447   5719896.70946                  22869615.9714
        23.7504         23.5004
  24344520.6974    4000123.68746    451987.49746                  24344531.2604
        12.7504         13.0004
  21400197.0024    -668762.02148   -481484.51347                  21400203.4124
        29.0004         31.7504
  23552673.6114   10886318.19746   8386915.77546                  23552683.5534
        18.7504         18.0004
  24361849.3464   11554471.97445   8906037.62745                  24361862.0644
         9.7504         10.7504
  23236066.4394    9724173.87047   7488439.69146                  23236073.7444
        23.7504         20.7504
  21892876.9714    5087029.45248   3926295.03247                  21892884.5684
        29.2504         29.5004
  23225318.7444    1491875.16046   1183308.51046                  23225326.7994
        19.5004         19.0004
 02  7 15 19 12 45.0020000  0  8G 3G 9G14G15G17G18G21G31
  22880633.5884    7464572.63747   5765047.59746                  22880641.9004
        23.5004         23.2504
  24351998.7834    4039422.75046    482610.15646                  24352009.2644
        13.0004         13.0004
  21401957.3614    -659511.47248   -474276.27247                  21401963.4794
        29.0004         31.2504
  23566898.6044   10961071.50946   8445165.05546                  23566908.3934
        19.2504         18.2504
  24376674.5884   11632378.73845   8966744.10045                  24376686.1704
        10.2504         11.0004
  23248317.6434    9788554.15447   7538606.11846                  23248325.2054
        23.5004         20.5004
  21899993.8464    5124428.25748   3955436.95747                  21900001.4434
        29.0004         29.7504
  23229858.3544    1515730.77246   1201897.30246                  23229866.4674
        19.2504         18.7504
 02  7 15 19 13  0.0020000  0  8G 3G 9G14G15G17G18G21G31
  22891685.5574    7522650.33647   5810302.92146                  22891693.7404
        23.0004         23.2504
  24359510.4714    4078894.49646    513367.36546                  24359520.6704
        13.2504         13.0004
  21403747.1274    -650106.66648   -466947.82847                  21403753.3504
        29.0004         31.2504
  23581140.9714   11035915.80846   8503485.22846                  23581151.0644
        19.0004         18.2504
  24391515.2604   11710368.11245   9027514.95245                  24391526.6664
        10.0004         10.7504
  23260578.7994    9852986.01847   7588812.73546                  23260586.3144
        23.2504         20.2504
  21907123.0644    5161893.69748   3984630.80347                  21907130.6744
        29.0004         29.2504
  23234430.2364    1539755.95246   1220618.22046                  23234438.4434
        19.5004         19.0004
 02  7 15 19 13 15.0020000  0  8G 3G 9G14G15G17G18G21G31
  22902763.3854    7580864.59947   5855664.65246                  22902771.6974
        23.2504         23.5004
  24367054.5574    4118541.71746    544261.30946                  24367063.7134
        13.5004         13.7504
  21405566.4554    -640544.87748   -459497.06647                  21405572.7134
        28.7504         31.2504
  23595401.0884   11110853.60946   8561878.25846                  23595411.0534
        18.5004         18.0004
  24406372.4634   11788442.69945   9088352.19645                  24406384.0804
         9.7504         10.5004
  23272850.0644    9917472.26847   7639061.73046                  23272857.2754
        23.7504         19.7504
  21914265.8224    5199428.54248   4013878.72847                  21914273.4674
        29.0004         29.2504
  23239034.8544    1563953.43946   1239473.40446                  23239042.5804
        19.5004         18.5004
 02  7 15 19 13 30.0020000  0  8G 3G 9G14G15G17G18G21G31
  22913866.4394    7639210.59247   5901129.03146                  22913874.9044
        24.2504         23.2504
  24374632.2834    4158359.93446    575288.49546                  24374642.2834
        13.5004         13.5004
  21407415.0414    -630830.48848   -451927.39647                  21407421.2994
        28.5004         31.2504
  23609678.2524   11185880.22346   8620340.48946                  23609688.5924
        18.5004         17.5004
  24421244.5964   11866597.91345   9149252.27945                  24421257.3384
         9.5004         10.2504
  23285130.9084    9982008.20647   7689349.44646                  23285137.7914
        23.7504         19.7504
  21921420.8074    5237028.20248   4043177.16247                  21921428.2754
        29.5004         29.2504
  23243671.7214    1588318.88147   1258459.46146                  23243679.5414
        20.0004         18.7504
 02  7 15 19 13 45.0020000  0  8G 3G 9G14G15G17G18G21G31
  22924995.6584    7697696.57547   5946702.50246                  22925003.8774
        23.5004         23.7504
  24382243.8774    4198357.75746    606455.63646                  24382253.7954
        14.0004         13.2504
  21409294.1894    -620954.98248   -444232.17247                  21409300.5534
        28.7504         31.0004
  23623973.6354   11261004.17646   8678878.56646                  23623983.9864
        18.5004         17.2504
  24436134.2444   11944842.08545   9210221.68345                  24436146.8694
         9.7504         10.5004
  23297422.4164   10046602.28847   7739682.47246                  23297429.3574
        22.7504         19.2504
  21928589.5494    5274701.40548   4072532.90047                  21928596.9124
        29.5004         29.5004
  23248341.6194    1612860.67447   1277582.93946                  23248349.0644
        20.2504         18.2504
 02  7 15 19 14  0.0030000  0  8G 3G 9G14G15G17G18G21G31
  22936151.5854    7756318.98847   5992382.27346                  22936159.7454
        23.2504         23.5004
  24389888.5384    4238530.63246    637759.17546                  24389897.9764
        14.2504         13.2504
  21411203.1634    -610924.66248   -436416.32247                  21411209.3154
        28.7504         31.2504
  23638287.7264   11336223.33746   8737490.83446                  23638297.8194
        18.0004         17.2504
  24451040.3274   12023173.13645   9271258.77945                  24451052.5424
        10.0004         11.2504
  23309725.1244   10111251.73247   7790058.63146                  23309731.2764
        22.7504         18.7504
  21935771.9444    5312443.33948   4101942.20047                  21935779.2964
        29.0004         29.2504
  23253044.5224    1637573.49546   1296839.68846                  23253051.7804
        19.7504         18.5004
 02  7 15 19 14 15.0030000  0  8G 3G 9G14G15G17G18G21G31
  22947330.4374    7815066.41547   6038159.46446                  22947338.9134
        23.2504         23.2504
  24397564.4914    4278869.84346    669192.33246                  24397573.9874
        14.2504         13.2504
  21413140.4524    -600744.08548   -428483.38447                  21413146.5114
        28.7504         31.2504
  23652617.0544   11411524.20646   8796166.77246                  23652627.0194
        17.7504         17.0004
  24465960.0384   12101577.33845   9332352.88045                  24465972.3584
         9.2504         10.2504
  23322035.6474   10175944.43047   7840468.49546                  23322042.1044
        22.5004         18.2504
  21942965.2724    5350245.58548   4131398.49347                  21942972.7294
        29.0004         29.0004
  23257778.3514    1662450.57446   1316224.43046                  23257785.8314
        19.5004         18.2504
 02  7 15 19 14 30.0030000  0  8G 3G 9G14G15G17G18G21G31
  22958535.6404    7873947.85647   6084041.07346                  22958543.9174
        23.5004         23.2504
  24405274.0074    4319383.52446    700761.45346                  24405284.0194
        14.2504         13.2504
  21415107.4994    -590407.06448   -420428.54247                  21415113.5934
        28.5004         31.0004
  23666963.7804   11486916.94846   8854914.28746                  23666973.5344
        17.7504         16.5004
  24480896.1714   12180064.97445   9393511.97845                  24480908.9014
         9.2504          9.7504
  23334356.2024   10240690.14647   7890919.67846                  23334362.6124
        22.2504         18.2504
  21950171.9214    5388116.25348   4160908.10547                  21950179.5074
        29.0004         29.0004
  23262544.9214    1687499.14046   1335742.78946                  23262552.1674
        19.5004         18.0004
 02  7 15 19 14 45.0030000  0  8G 3G 9G14G15G17G18G21G31
  22969765.1244    7932960.18547   6130024.67246                  22969773.1444
        24.0004         23.5004
  24413016.2724    4360068.66246    732464.17746                  24413025.9794
        14.0004         13.0004
  21417103.6014    -579916.46048   -412254.02747                  21417109.8004
        28.0004         31.2504
  23681327.5854   11562398.47146   8913730.99546                  23681337.5734
        17.0004         16.2504
  24495847.1324   12258633.02545   9454733.72945                  24495858.9134
         9.0004          9.5004
  23346686.7104   10305485.75947   7941409.74746                  23346692.8274
        22.0004         18.2504
  21957390.9834    5426052.41948   4190468.75047                  21957398.3944
        28.7504         28.7504
  23267343.6324    1712716.30946   1355392.53846                  23267351.1124
        19.7504         18.2504
 02  7 15 19 15  0.0030000  0  8G 3G 9G14G15G17G18G21G31
  22981020.0934    7992104.78247   6176111.35246                  22981028.2764
        23.7504         23.2504
  24420791.6404    4400927.00246    764301.86446                  24420800.7614
        14.2504         12.7504
  21419129.4834    -569270.53047   -403958.47747                  21419135.6014
        27.7504         31.0004
  23695708.4604   11637970.41146   8972618.15446                  23695718.5424
        16.7504         15.7504
  24510813.5934   12337283.17945   9516019.48445                  24510826.2184
         9.0004          9.2504
  23359026.8044   10370332.98047   7991940.01846                  23359033.4254
        22.0004         18.2504
  21964622.6554    5464055.58348   4220081.60647                  21964630.2534
        28.7504         28.7504
  23272174.8514    1738103.61947   1375174.86146                  23272182.3194
        20.2504         18.2504
 02  7 15 19 15 15.0030000  0  8G 3G 9G14G15G17G18G21G31
  22992299.6164    8051378.34147   6222298.50646                  22992307.7414
        23.7504         23.2504
  24428598.8434    4441955.35046    796272.01146                  24428608.1514
        14.2504         12.7504
  21421184.4374    -558472.23648   -395544.20247                  21421190.6014
        28.2504         31.2504
  23710106.0624   11713629.56946   9031573.27546                  23710116.4134
        16.7504         15.5004
  24525795.2654   12416012.07445   9577366.56145                  24525806.6244
         9.0004          9.2504
  23371375.6794   10435228.69947   8042508.09746                  23371381.7964
        21.7504         18.7504
  21971866.4834    5502122.74048   4249744.32147                  21971874.1284
        28.2504         28.7504
  23277037.4914    1763658.14346   1395087.47046                  23277044.7724
        19.5004         18.5004
 02  7 15 19 15 30.0030000  0  8G 3G 9G14G15G17G18G21G31
  23003604.9294    8110788.12447   6268591.81246                  23003613.2534
        23.7504         23.2504
  24436439.5544    4483161.32746    828380.58246                  24436449.1204
        13.5004         12.7504
  21423269.7184    -547513.89348   -387005.22047                  21423275.7884
        28.2504         31.0004
  23724521.4604   11789383.42246   9090602.19646                  23724531.2494
        16.5004         15.0004
  24540793.8664   12494827.36645   9638781.00345                  24540805.3664
         9.5004          9.2504
  23383735.6944   10500180.30647   8093119.71246                  23383742.7294
        21.5004         18.7504
  21979124.1324    5540261.27748   4279462.65947                  21979131.7294
        28.2504         28.7504
  23281933.5694    1789387.41346   1415136.26346                  23281941.5774
        19.5004         18.5004
 02  7 15 19 15 45.0030000  0  8G 3G 9G14G15G17G18G21G31
  23014934.3514    8170325.82247   6314984.79946                  23014942.9334
        23.5004         23.0004
  24444313.1474    4524536.86246    860621.26446                  24444323.2414
        13.2504         12.2504
  21425383.8354    -536403.51648   -378347.76747                  21425389.8824
        28.5004         31.0004
  23738953.4994   11865223.68746   9149698.44646                  23738963.3584
        16.2504         14.7504
  24555806.4214   12573720.55645   9700256.12745                  24555817.2884
        10.0004         10.0004
  23396104.5224   10565179.71347   8143768.58046                  23396111.8274
        22.0004         19.0004
  21986393.7184    5578463.14648   4309230.34547                  21986401.4444
        28.0004         28.5004
  23286861.2654    1815283.44246   1435314.97646                  23286869.4724
        19.0004         18.2504
 02  7 15 19 16  0.0030000  0  8G 3G 9G14G15G17G18G21G31
  23026288.9684    8229994.23047   6361479.63146                  23026297.4444
        23.7504         23.0004
  24452219.6084    4566085.04146    892996.48646                  24452229.1044
        13.2504         12.2504
  21427527.6164    -525137.91848   -369569.36247                  21427533.6404
        28.5004         31.2504
  23753401.8904   11941153.43846   9208864.42746                  23753411.2924
        15.7504         14.7504
  24570835.1714   12652694.86545   9761794.45945                  24570848.6284
        10.2504         10.0004
  23408483.4444   10630230.07747   8194457.15546                  23408490.9134
        21.7504         19.2504
  21993676.0854    5616731.76448   4339050.05147                  21993683.7064
        28.2504         28.5004
  23291821.4054    1841349.32846   1455626.06046                  23291829.9644
        18.5004         18.5004
 02  7 15 19 16 15.0030000  0  7G 3G 9G14G17G18G21G31
  23037668.1084    8289791.78747   6408075.09746                  23037676.2224
        24.2504         22.7504
  24460158.8434    4607804.64046    925505.25546                  24460168.3864
        13.5004         12.7504
  21429701.0154    -513718.28448   -360670.92347                  21429707.1084
        28.5004         31.0004
  24585877.9604   12731748.94645   9823394.94645                  24585890.6084
         9.7504         10.0004
  23420871.5934   10695330.05447   8245184.37546                  23420879.4374
        21.5004         19.5004
  22000970.8974    5655065.69048   4368920.63947                  22000978.5074
        28.2504         28.2504
  23296813.9374    1867583.83246   1476068.52946                  23296822.5544
        18.5004         18.5004
 02  7 15 19 16 30.0030000  0  8G 3G 9G14G15G17G18G21G31
  23049071.7414    8349717.97547   6454770.80646                  23049079.7614
        24.2504         22.5004
  24468130.2724    4649695.36746    958147.39646                  24468139.8044
        13.5004         12.5004
  21431903.1554    -502144.72748   -351652.54747                  21431909.2144
        29.0004         31.2504
  23782350.6084      25371.92956
        15.7504
  24600936.5934   12810882.24645   9885057.14745                  24600948.2224
         9.7504         10.5004
  23433269.0624   10760479.32347   8295950.01446                  23433277.0584
        22.0004         19.5004
  22008277.7654    5693464.74148   4398841.97247                  22008285.3274
        28.5004         28.5004
  23301838.2654    1893986.73046   1496642.21846                  23301846.5544
        18.5004         18.7504
 02  7 15 19 16 45.0030000  0  8G 3G 9G14G15G17G18G21G31
  23060499.8194    8409772.00847   6501566.12846                  23060507.6874
        24.0004         22.5004
  24476134.2334    4691756.58546    990922.35746                  24476143.9524
        14.2504         12.5004
  21434134.6474    -490417.77648   -342514.64647                  21434140.6594
        29.0004         31.2504
  23796849.8194     101564.76646
        16.0004
  24616010.6014   12890094.15945   9946780.62945                  24616024.6324
        10.0004         10.2504
  23445675.7804   10825677.26547   8346753.58346                  23445683.7414
        22.0004         19.5004
  22015597.1714    5731928.27848   4428813.55947                  22015604.6634
        28.5004         28.5004
  23306894.3584    1920557.46646   1517346.68646                  23306903.0464
        19.0004         18.5004
 02  7 15 19 17  0.0030000  0  8G 3G 9G14G15G17G18G21G31
  23071950.9684    8469948.65747   6548456.99046                  23071958.9174
        23.5004         22.5004
  24484169.7334    4733983.26046   1023826.26146                  24484179.1714
        14.2504         12.7504
  21436394.5074    -478542.18748   -333260.92947                  21436400.4834
        29.2504         31.0004
  23811364.2264     177839.66546
        16.0004
  24631098.0464   12969379.64745  10008561.42245                  24631110.1674
         9.7504         10.2504
  23458091.0854   10890918.95647   8397591.22846                  23458098.7764
        22.0004         19.2504
  22022928.0464    5770451.43248   4458831.59847                  22022935.4334
        28.2504         28.2504
  23311981.6014    1947291.05046   1538178.05446                  23311990.1124
        19.2504         18.7504
 02  7 15 19 17 15.0030000  0  8G 3G 9G14G15G17G18G21G31
  23083425.7494    8530249.27947   6595444.45346                  23083433.9794
        24.0004         22.7504
  24492237.1634    4776376.99446   1056860.35546                  24492246.9294
        14.0004         12.7504
  21438682.9684    -466516.23448   -323890.03047                  21438689.1444
        29.2504         31.0004
  23825895.0854     254198.09246     51567.01556                  23825904.4524
        16.2504         14.2504
  24646200.0464   13048740.12045  10070400.66745                  24646212.9764
        10.5004         10.2504
  23470514.8194   10956205.91347   8448464.16346                  23470522.5464
        22.2504         19.7504
  22030270.4214    5809035.80948   4488897.34447                  22030277.6204
        28.2504         28.2504
  23317100.0854    1974189.25546   1559137.69046                  23317108.3744
        19.5004         18.7504
 02  7 15 19 17 30.0030000  0  8G 3G 9G14G15G17G18G21G31
  23094925.6014    8590682.54947   6642535.28546                  23094933.6794
        23.0004         22.2504
  24500337.6164    4818946.92746   1090031.75046                  24500346.9014
        14.0004         12.5004
  21441001.7884    -454330.86848   -314394.91947                  21441007.8474
        28.7504         31.0004
  23840443.3124     330648.90646    111139.01646                  23840453.2414
        16.2504         14.2504
  24661318.1014   13128184.54245  10132305.32045                  24661330.2694
        10.2504         10.2504
  23482948.9604   11021547.19447   8499379.42346                  23482956.6754
        22.5004         19.7504
  22037626.0624    5847690.56448   4519017.93247                  22037633.3904
        28.2504         28.0004
  23322251.5854    2001261.03546   1580232.59046                  23322259.7924
        19.2504         18.7504
 02  7 15 19 17 45.0030000  0  8G 3G 9G14G15G17G18G21G31
  23106450.5304    8651244.85047   6689726.65146                  23106458.9374
        22.7504         22.2504
  24508471.4834    4861689.66246   1123337.78946                  24508480.9334
        13.0004         12.0004
  21443350.2184    -441989.29148   -304778.09247                  21443356.5114
        28.7504         30.7504
  23855007.8434     407188.63746    170780.29946                  23855017.9134
        16.0004         14.2504
  24676451.2184   13207709.47445  10194272.67345                  24676463.6904
        10.0004         10.2504
  23495392.8124   11086939.34347   8550334.31646                  23495400.5154
        23.0004         19.7504
  22044994.5464    5886412.19548   4549190.62747                  22045001.9794
        28.0004         28.2504
  23327435.6554    2028503.10846   1601460.18146                  23327443.9684
        19.5004         18.2504
 02  7 15 19 18  0.0030000  0  8G 3G 9G14G15G17G18G21G31
  23117996.7884    8711921.71447   6737007.28246                  23118005.2414
        22.2504         22.0004
  24516635.4444    4904590.98746   1156767.40946                  24516644.6474
        12.5004         12.0004
  21445725.7184    -429505.74548   -295050.63247                  21445731.9874
        28.5004         30.7504
  23869587.4994     483802.93746    230479.67846                  23869597.4404
        16.0004         14.2504
  24691596.8354   13287300.56845  10256291.59645                  24691609.4834
        10.0004          9.7504
  23507843.5074   11152368.16447   8601317.79046                  23507850.9294
        23.7504         19.7504
  22052372.9524    5925186.43848   4579404.31847                  22052380.2454
        28.0004         28.0004
  23332649.1714    2055901.20946   1622809.35346                  23332657.3084
        18.7504         18.0004
 02  7 15 19 18 15.0030000  0  8G 3G 9G14G15G17G18G21G31
  23129568.4764    8772731.02747   6784391.13046                  23129577.0934
        22.5004         21.7504
  24524832.5074    4947668.99346   1190334.68445                  24524841.7454
        12.5004         11.7504
  21448131.8584    -416862.00548   -285198.34647                  21448138.1984
        28.5004         30.7504
  23884184.4834     560509.89746    290251.25646                  23884194.9294
        16.0004         14.7504
  24706758.5694   13366975.74045  10318376.03845                  24706770.9014
         9.5004          9.5004
  23520304.5774   11217851.67647   8652343.88146                  23520311.8474
        23.7504         19.5004
  22059765.0304    5964031.56748   4609673.24447                  22059772.3944
        28.2504         28.0004
  23337896.1474    2083473.53046   1644294.28746                  23337904.3784
        19.0004         18.2504
 02  7 15 19 18 30.0030000  0  8G 3G 9G14G15G17G18G21G31
  23141161.9684    8833655.49147   6831864.70346                  23141170.4214
        22.5004         21.7504
  24533060.3514    4990906.58245   1224026.31245                  24533070.2924
        11.5004         11.2504
  21450565.1244    -404074.90348   -275234.35247                  21450571.5584
        28.0004         30.5004
  23898795.9994     637292.47146    350081.77546                  23898806.0934
        16.2504         15.0004
  24721933.1944   13446717.92345  10380512.68945                  24721946.2534
         8.7504          8.7504
  23532772.7024   11283372.87647   8703399.33846                  23532779.7374
        23.7504         19.2504
  22067167.2414    6002930.55348   4639984.14047                  22067174.5464
        28.2504         27.7504
  23343173.4214    2111203.06946   1665901.72146                  23343180.9604
        18.7504         18.0004
 02  7 15 19 18 45.0030000  0  8G 3G 9G14G15G17G18G21G31
  23152778.8514    8894701.34947   6879432.87446                  23152787.1984
        22.7504         22.0004
  24541319.1794    5034310.22745   1257847.34945                  24541328.0774
        11.2504         11.0004
  21453026.8434    -391137.86948   -265153.53347                  21453033.3354
        28.0004         30.5004
  23913422.5854     714156.88446    409976.05246                  23913432.2224
        16.2504         15.2504
  24737121.5464   13526533.53145  10442706.57145                  24737133.6324
         8.0004          9.5004
  23545249.0624   11348938.14247   8754489.13646                  23545256.1674
        23.0004         19.2504
  22074580.8974    6041889.62548   4670341.85347                  22074588.1324
        28.5004         27.7504
  23348480.9214    2139096.33746   1687636.73646                  23348488.4484
        18.7504         18.0004
 02  7 15 19 19  0.0030000  0  8G 3G 9G14G15G17G18G21G31
  23164418.8274    8955868.54447   6927095.58946                  23164426.8234
        23.7504         22.2504
  24549610.1714    5077880.18545   1291797.96345                  24549619.3864
        11.2504         10.7504
  21455516.9524    -378050.63847   -254955.67147                  21455523.3744
        27.7504         30.2504
  23928065.3434     791103.39646    469934.30346                  23928075.5654
        17.0004         15.5004
  24752323.3354   13606422.69245  10504957.74045                  24752335.8194
         8.0004          8.5004
  23557734.2724   11414547.74547   8805613.48046                  23557741.2964
        22.5004         19.0004
  22082006.1634    6080909.19448   4700746.70547                  22082013.4094
        28.5004         27.5004
  23353819.9214    2167153.55046   1709499.50846                  23353827.6244
        19.2504         18.0004
 02  7 15 19 19 15.0030000  0  8G 3G 9G14G15G17G18G21G31
  23176080.1634    9017151.39947   6974848.42646                  23176088.3234
        23.5004         22.0004
  24557932.7184    5121611.05445   1325873.98245                  24557942.2374
        11.0004         10.5004
  21458035.2654    -364818.51347   -244644.90747                  21458041.6874
        27.7504         30.5004
  23942722.5074     868126.50146    529952.22246                  23942732.8824
        17.5004         15.7504
  24767539.3584   13686379.82245  10567261.89045                  24767550.6714
         7.7504          8.7504
  23570226.7964   11480196.26747   8856768.15046                  23570233.8784
        21.7504         18.7504
  22089441.7264    6119983.98348   4731194.58647                  22089448.7024
        28.7504         27.7504
  23359189.2024    2195369.37146   1731485.86446                  23359196.7064
        18.7504         18.0004
 02  7 15 19 19 30.0030000  0  8G 3G 9G14G15G17G18G21G31
  23187764.5384    9078551.18547   7022692.38446                  23187772.4174
        23.5004         21.7504
  24566285.0624    5165504.30745   1360076.51645                  24566293.7614
        11.0004         10.7504
  21460581.3044    -351439.86647   -234219.96847                  21460587.7374
        27.5004         30.2504
  23957394.4834     945227.61146    590030.94646                  23957405.0814
        17.5004         16.0004
  24782767.9374   13766406.27745  10629620.07445                  24782779.2024
         7.7504          8.5004
  23582726.8514   11545885.10547   8907954.23246                  23582734.1324
        21.5004         18.7504
  22096888.2494    6159115.53348   4761686.69647                  22096895.2264
        28.5004         27.7504
  23364588.8434    2223745.33346   1753597.00146                  23364596.7804
        18.7504         18.0004
 02  7 15 19 19 45.0030000  0  8G 3G 9G14G15G17G18G21G31
  23199470.7494    9140068.51947   7070627.93846                  23199478.4994
        23.5004         21.7504
  24574668.1554    5209560.92945   1394406.34145                  24574678.2844
        10.7504         10.5004
  21463154.9604    -337913.63547   -223680.03047                  21463161.5114
        27.5004         30.7504
  23972081.2884    1022407.49546    650171.04846                  23972091.5224
        17.7504         16.2504
  24798009.4994   13846503.03145  10692033.02045                  24798022.9214
         8.0004          8.5004
  23595234.6714   11611615.23647   8959172.48746                  23595242.3624
        20.0004         18.2504
  22104345.7574    6198304.80948   4792223.78547                  22104352.8624
        28.5004         27.5004
  23370019.3824    2252282.36546   1775833.65846                  23370027.6364
        19.2504         18.5004
 02  7 15 19 20  0.0030000  0  8G 3G 9G14G15G17G18G21G31
  23211201.4294    9201712.75847   7118662.37146                  23211209.2964
        24.2504         22.2504
  24583085.0934    5253790.36845   1428870.81945                  24583095.2104
        10.5004         10.2504
  21465758.7104    -324230.23647   -213017.62547                  21465765.2374
        27.5004         30.5004
  23986784.8904    1099675.60946    710379.91646                  23986795.3704
        17.5004         15.7504
  24813267.5074   13926679.35345  10754507.98445                  24813280.5894
         8.2504          8.5004
  23607752.8354   11677396.19246   9010430.34346                  23607760.3974
        19.7504         17.7504
  22111816.0544    6237561.40448   4822813.34147                  22111823.1124
        28.5004         27.7504
  23375482.2494    2280990.01346   1798203.25746                  23375490.6904
        18.7504         18.7504
 02  7 15 19 20 15.0030000  0  8G 3G 9G14G15G17G18G21G31
  23222954.1164    9263474.60847   7166788.45746                  23222962.4644
        23.5004         22.5004
  24591533.0774    5298183.54545   1463462.88745                  24591542.1634
        10.7504         10.5004
  21468391.0544    -310398.49448   -202239.62747                  21468397.5114
        28.0004         30.5004
  24001503.3044    1177022.80946    770650.40146                  24001513.4334
        16.7504         15.5004
  24828537.5624   14006926.13545  10817037.86445                  24828550.0584
         8.2504          9.0004
  23620278.2104   11743218.88846   9061720.73246                  23620285.7844
        19.7504         18.0004
  22119297.4914    6276876.44848   4853448.42847                  22119304.5154
        28.5004         27.5004
  23380975.7334    2309859.24846   1820698.76646                  23380984.5384
        19.2504         18.7504
 02  7 15 19 20 30.0030000  0  8G 3G 9G14G15G17G18G21G31
  23234730.5544    9325358.54047   7215009.66946                  23234738.7844
        22.7504         22.5004
  24600013.1404    5342745.26945   1498186.31645                  24600021.2184
        11.2504         10.5004
  21471052.2184    -296413.61648   -191342.30947                  21471058.5934
        28.2504         30.5004
  24016237.8434    1254453.78946    830986.16246                  24016247.9954
        16.2504         16.0004
  24843822.6244   14087248.15245  10879626.32645                  24843834.0774
         8.5004          8.2504
  23632812.8194   11809088.19046   9113047.43046                  23632820.1594
        19.7504         17.7504
  22126790.8194    6316254.61148   4884132.70447                  22126797.9484
        28.7504         27.5004
  23386501.1554    2338894.93946   1843323.97846                  23386509.6904
        18.7504         18.7504
 02  7 15 19 20 45.0030000  0  8G 3G 9G14G15G17G18G21G31
  23246529.9444    9387366.68647   7263327.66846                  23246538.2454
        22.7504         22.2504
  24608525.3354    5387477.94145   1533042.91945                  24608534.0694
        11.0004         10.7504
  21473743.0304    -282273.18748   -180323.77447                  21473749.2884
        28.0004         30.7504
  24030989.2024    1331970.85946    891388.99846                  24031000.0344
        16.2504         16.0004
  24859121.7334   14167647.53245  10942275.08945                  24859135.5304
         9.2504          9.2504
  23645356.6794   11875006.43947   9164412.27746                  23645363.7374
        20.2504         17.7504
  22134296.8354    6355698.24248   4914868.00447                  22134303.8584
        28.7504         27.5004
  23392058.6244    2368099.39246   1866080.69946                  23392066.7374
        19.2504         18.7504
 02  7 15 19 21  0.0030000  0  8G 3G 9G14G15G17G18G21G31
  23258351.5774    9449489.32447   7311734.88146                  23258360.1364
        23.0004         22.7504
  24617068.6944    5432372.15745   1568025.41245                  24617078.1324
        11.2504         11.5004
  21476461.6404    -267986.42248   -169191.20847                  21476467.9444
        28.0004         30.5004
  24045754.9994    1409564.52746    951851.51646                  24045765.7964
        16.5004         15.7504
  24874434.7884   14248114.90145  11004976.85445                  24874448.2574
         9.5004          9.2504
  23657908.0774   11940964.22447   9215807.93346                  23657915.5344
        20.2504         18.0004
  22141813.4524    6395198.03848   4945647.05447                  22141820.5224
        29.0004         27.5004
  23397646.2804    2397463.29246   1888961.65546                  23397654.7574
        19.2504         18.5004
 02  7 15 19 21 15.0030000  0  8G 3G 9G14G15G17G18G21G31
  23270195.1244    9511726.00247   7360230.95946                  23270203.5424
        23.7504         23.0004
  24625641.6944    5477427.74545   1603133.67745                  24625650.6404
        11.5004         11.5004
  21479208.3044    -253553.35948   -157944.65047                  21479214.4794
        28.7504         30.7504
  24060535.0544    1487234.60346   1012373.59646                  24060545.4764
        16.2504         16.0004
  24889760.2964   14328650.07645  11067731.45245                  24889773.0034
         9.7504          9.2504
  23670467.1324   12006961.37047   9267234.26646                  23670474.2144
        20.2504         17.7504
  22149340.7884    6434754.01948   4976469.89747                  22149347.7764
        29.0004         27.7504
  23403264.6014    2426986.65946   1911966.87346                  23403273.1124
        19.2504         18.5004
 02  7 15 19 21 30.0030000  0  8G 3G 9G14G15G17G18G21G31
  23282058.7414    9574068.68147   7408809.63746                  23282067.4994
        23.5004         23.0004
  24634245.3744    5522636.82845   1638361.52345                  24634255.2454
        11.2504         11.7504
  21481981.1554    -238981.77448   -146590.14947                  21481987.4014
        28.7504         30.7504
  24075328.1944    1564973.08546   1072948.95446                  24075339.0384
        16.5004         16.0004
  24905097.3824   14409244.96345  11130532.58745                  24905108.3194
        10.0004          8.7504
  23683031.9444   12072989.95247   9318685.08946                  23683038.9684
        20.2504         18.0004
  22156877.1164    6474358.32548   5007330.38847                  22156884.0584
        29.0004         27.5004
  23408911.3664    2456661.49746   1935090.12146                  23408919.9374
        19.5004         19.0004
 02  7 15 19 21 45.0030000  0  8G 3G 9G14G15G17G18G21G31
  23293944.4214    9636528.85047   7457479.85646                  23293953.0854
        23.5004         23.0004
  24642879.3124    5568011.08145   1673718.08145                  24642890.5074
        10.7504         11.7504
  21484782.4764    -224259.87948   -135118.53047                  21484788.6874
        28.5004         30.5004
  24090136.6324    1642791.56046   1133586.66446                  24090147.2414
        16.7504         16.2504
  24920446.9834   14489911.24545  11193389.35745                  24920458.5074
        10.2504          8.7504
  23695604.9524   12139061.74947   9370169.59246                  23695612.0224
        20.5004         18.0004
  22164425.0624    6514022.55948   5038237.57847                  22164432.0734
        29.2504         27.5004
  23414589.5544    2486499.58346   1958340.58046                  23414597.8664
        19.2504         19.0004
 02  7 15 19 22  0.0030000  0  8G 3G 9G14G15G17G18G21G31
  23305850.1324    9699094.90447   7506232.58146                  23305858.7264
        23.5004         23.0004
  24651543.3434    5613539.11245   1709194.45945                  24651554.6794
        10.7504         11.2504
  21487610.4054    -209399.01748   -123538.62347                  21487616.6634
        28.5004         30.5004
  24104958.1474    1720678.65046   1194277.84246                  24104968.9914
        16.7504         16.2504
  24935809.2494   14570637.45645  11256292.81745                  24935822.6364
        10.2504          8.7504
  23708184.0384   12205165.46647   9421678.96446                  23708191.3434
        20.5004         18.5004
  22171982.3044    6553735.46448   5069182.68947                  22171989.3624
        29.5004         27.5004
  23420296.4684    2516489.50747   1981709.35046                  23420304.7694
        20.0004         19.0004
 02  7 15 19 22 15.0030000  0  8G 3G 9G14G15G17G18G21G31
  23317779.1474    9761782.08347   7555079.70046                  23317787.7764
        22.7504         23.0004
  24660238.6474    5659236.46445   1744802.79545                  24660249.3974
        10.5004         10.7504
  21490467.7184    -194383.34348   -111838.07347                  21490473.8584
        28.2504         30.2504
  24119795.7414    1798649.75746   1255034.47446                  24119807.2884
        16.0004         15.7504
  24951185.3904   14651438.95045  11319254.94045                  24951197.7924
         9.5004          9.5004
  23720772.3514   12271316.57247   9473225.25746                  23720779.9484
        20.2504         18.0004
  22179551.4524    6593512.61548   5100177.86947                  22179558.3944
        29.5004         27.5004
  23426035.0774    2546646.92247   2005208.63746                  23426042.9794
        20.0004         19.0004
 02  7 15 19 22 30.0030000  0  8G 3G 9G14G15G17G18G21G31
  23329729.7884    9824582.52047   7604015.06646                  23329738.4874
        22.7504         22.5004
  24668965.8584    5705095.53145   1780537.13045                  24668975.7534
        11.2504         11.0004
  21493353.2804    -179220.48548   -100022.84947                  21493359.2334
        28.2504         30.0004
  24134647.3584    1876697.25746   1315850.63346                  24134658.1084
        16.2504         15.7504
  24966574.4374   14732308.20245  11382269.85645                  24966586.7694
         9.2504          9.0004
  23733367.9294   12337507.40447   9524802.50846                  23733375.7614
        20.0004         18.2504
  22187131.6794    6633346.50348   5131217.25847                  22187138.5854
        29.5004         27.5004
  23431804.3744    2576964.29446   2028832.56746                  23431811.9724
        19.7504         18.7504
 02  7 15 19 22 45.0030000  0  8G 3G 9G14G15G17G18G21G31
  23341702.9134    9887501.28847   7653042.63546                  23341711.4014
        23.0004         22.5004
  24677724.2104    5751121.61345   1816401.60345                  24677733.2144
        11.7504         11.5004
  21496267.7184    -163905.04548    -88088.72547                  21496273.5894
        28.2504         30.0004
  24149514.9834    1954826.27746   1376730.32446                  24149525.6754
        16.2504         15.7504
  24981977.1164   14813250.28645  11445341.50445                  24981990.8664
         8.7504          9.2504
  23745972.2334   12403743.30147   9576414.87446                  23745979.9484
        20.0004         18.0004
  22194723.6084    6673242.32348   5162304.90147                  22194730.5154
        30.0004         27.5004
  23437605.0464    2607446.78646   2052585.15446                  23437612.9014
        19.7504         18.7504
 02  7 15 19 23  0.0030000  0  8G 3G 9G14G15G17G18G21G31
  23353696.3904    9950527.40847   7702153.86846                  23353704.8434
        23.2504         22.2504
  24686512.5074    5797304.11345   1852387.96845                  24686522.0034
        11.5004         11.2504
  21499209.1714    -148447.64448    -76043.97847                  21499215.1244
        28.2504         29.7504
  24164395.9134    2033026.04746   1437665.13446                  24164406.9334
        16.2504         15.7504
  24997391.2724   14894254.45545  11508461.54645                  24997403.8974
         8.7504          9.7504
  23758583.0154   12470013.54647   9628054.01346                  23758590.7764
        20.2504         18.0004
  22202325.3194    6713189.61648   5193432.66247                  22202332.3084
        30.0004         27.7504
  23443434.9294    2638083.71746   2076458.09046                  23443442.4564
        19.7504         19.0004
 02  7 15 19 23 15.0030000  0  7G 3G 9G14G17G18G21G31
  23365710.4524   10013661.87547   7751349.52146                  23365718.7184
        23.2504         22.2504
  24695331.2024    5843644.03045   1888496.97345                  24695340.0894
        11.2504         11.0004
  21502177.9604    -132847.00648    -63887.62447                  21502183.7264
        28.2504         29.7504
  25012818.0224   14975321.62545  11571630.67445                  25012832.3584
         9.0004          8.7504
  23771200.6944   12536319.32947   9679720.83346                  23771208.0694
        20.5004         17.7504
  22209937.0154    6753189.68548   5224601.53947                  22209943.8584
        30.0004         27.5004
  23449294.7804    2668876.27246   2100452.28146                  23449302.6714
        19.7504         19.0004
 02  7 15 19 23 30.0030000  0  8G 3G 9G14G15G17G18G21G31
  23377745.7024   10076906.81547   7800631.26346                  23377754.0154
        23.0004         21.7504
  24704179.7024    5890143.82245   1924730.56545                  24704189.0814
        11.7504         11.5004
  21505174.2804    -117100.55948    -51617.64647                  21505180.1874
        28.0004         29.7504
  24194199.4294      26116.39356
        16.5004
  25028257.6714   15056454.35345  11634850.85745                  25028271.8194
         9.0004          9.2504
  23783825.3124   12602663.08547   9731417.24946                  23783832.5344
        20.7504         17.5004
  22217559.4134    6793244.94948   5255813.43047                  22217566.2334
        30.0004         27.5004
  23455184.6084    2699827.10447   2124569.81246                  23455192.5344
        20.2504         19.2504
 02  7 15 19 23 45.0030000  0  8G 3G 9G14G15G17G18G21G31
  23389803.0304   10140268.73247   7850004.14746                  23389811.4374
        22.7504         21.7504
  24713060.2494    5936810.17345   1961093.94245                  24713069.2064
        11.7504         11.5004
  21508199.7414    -101201.47747    -39228.74147                  21508205.5544
        27.7504         29.5004
  24209123.4604     104543.04546
        16.2504
  25043710.8124   15137659.27645  11698127.36045                  25043725.5814
         9.0004          9.7504
  23796459.1014   12669051.70647   9783148.62646                  23796466.0654
        21.0004         17.5004
  22225193.4684    6833362.18648   5287073.60747                  22225200.3004
        30.0004         27.7504
  23461105.7104    2730942.94347   2148815.91546                  23461113.9524
        20.2504         19.7504
 02  7 15 19 24  0.0030000  0  8G 3G 9G14G15G17G18G21G31
  23401880.7104   10203737.86047   7899460.57746                  23401889.1984
        22.0004         21.7504
  24721970.2574    5983633.58646   1997579.70445                  24721979.2264
        12.2504         11.2504
  21511252.4684     -85159.20047    -26728.25347                  21511258.3514
        27.7504         29.5004
  24224061.3274     183040.95046     20390.22156                  24224071.9254
        16.2504         15.5004
  25059175.2964   15218926.77745  11761452.57445                  25059187.7224
         9.0004          9.2504
  23809099.0464   12735475.60047   9834907.48646                  23809105.6674
        21.0004         17.2504
  22232837.5854    6873531.98148   5318374.74447                  22232844.3354
        30.5004         27.7504
  23467056.4054    2762214.12147   2173183.06346                  23467064.8584
        20.0004         19.7504
 02  7 15 19 24 15.0030000  0  8G 3G 9G14G15G17G18G21G31
  23413979.8904   10267319.80647   7949004.91446                  23413988.1444
        21.7504         21.0004
  24730911.5854    6030619.90845   2034192.42745                  24730921.2224
        11.2504         11.5004
  21514333.6084     -68967.71148    -14111.49347                  21514339.5034
        28.0004         29.5004
  24239013.8514     261615.86046     81617.37246                  24239024.7064
        16.5004         15.2504
  25074653.1794   15300262.41445  11824830.89145                  25074665.6044
         8.2504          8.5004
  23821746.8044   12801940.54047   9886698.33746                  23821753.0264
        21.7504         17.0004
  22240492.7024    6913760.19648   5349721.39647                  22240499.4644
        30.7504         27.7504
  23473037.7264    2793646.61846   2197675.91246                  23473046.3434
        19.7504         19.5004
 02  7 15 19 24 30.0030000  0  8G 3G 9G14G15G17G18G21G31
  23426099.8824   10331009.87447   7998633.50546                  23426108.4764
        21.7504         21.2504
  24739882.4294    6077764.71545   2070928.63545                  24739891.6204
        11.2504         11.2504
  21517442.2964     -52631.36348     -1381.85847                  21517448.2724
        28.0004         29.5004
  24253980.0464     340263.31946    142901.03746                  24253990.4564
        16.7504         15.2504
  25090142.3514   15381661.90245  11888258.97445                  25090156.0424
         7.7504          8.0004
  23834401.5544   12868442.27847   9938517.84246                  23834407.9874
        22.0004         17.2504
  22248158.2494    6954042.47448   5381110.18447                  22248164.9054
        30.7504         27.7504
  23479048.9294    2825236.04946   2222291.05046                  23479057.5344
        19.7504         19.5004
 02  7 15 19 24 45.0030000  0  8G 3G 9G14G15G17G18G21G31
  23438239.8514   10394807.49947   8048345.90746                  23438248.3274
        21.5004         20.5004
  24748884.3274    6125067.62645   2107788.03245                  24748894.7374
        11.7504         11.7504
  21520578.4374     -36150.30548     11460.53847                  21520584.4724
        28.0004         29.5004
  24268960.1794     418983.03646    204241.01046                  24268970.4604
        16.5004         15.5004
  25105644.5854   15463124.74845  11951736.43845                  25105658.4994
         7.5004          8.7504
  23847063.3274   12934980.45247   9990365.75146                  23847069.7494
        22.0004         17.2504
  22255833.8744    6994378.63548   5412540.95147                  22255840.5654
        30.5004         27.7504
  23485089.7494    2856982.05746   2247028.18446                  23485098.5074
        19.7504         19.5004
 02  7 15 19 25  0.0030000  0  8G 3G 9G14G15G17G18G21G31
  23450400.5384   10458710.94347   8098140.75946                  23450409.0734
        21.5004         20.7504
  24757915.6474    6172527.03346   2144769.40746                  24757925.4134
        12.2504         12.5004
  21523742.1554     -19526.05548     24414.51147                  21523748.1794
        28.2504         29.7504
  24283953.2334     497773.35946    265635.99846                  24283964.0194
        15.7504         15.5004
  25121157.2264   15544649.50244  12015262.15845                  25121172.6514
         7.0004          8.5004
  23859732.0074   13001553.48147  10042240.81846                  23859738.3704
        21.7504         17.2504
  22263519.4214    7034767.02348   5444012.42147                  22263526.1124
        30.5004         27.5004
  23491160.8514    2888883.26146   2271886.25946                  23491169.2104
        19.7504         19.5004
 02  7 15 19 25 15.0030000  0  8G 3G 9G14G15G17G18G21G31
  23462580.5074   10522716.66647   8148015.31546                  23462588.8084
        21.5004         20.7504
  24766976.4834    6220139.65446   2181870.14546                  24766987.5264
        12.7504         12.5004
  21526932.2884      -2761.78548     37477.58647                  21526938.2294
        28.5004         30.0004
  24298959.5074     576630.83146    327083.31646                  24298970.7724
        15.2504         15.5004
  25136683.4834   15626232.59144  12078833.26345                  25136698.5584
         7.0004          8.5004
  23872406.2334   13068158.19247  10094140.56846                  23872412.9134
        21.2504         17.2504
  22271214.4604    7075204.50748   5475522.14147                  22271221.1514
        30.5004         27.5004
  23497260.4684    2920936.24447   2296862.60346                  23497268.4174
        20.0004         19.2504
 02  7 15 19 25 30.0030000  0  8G 3G 9G14G15G17G18G21G31
  23474778.6634   10586817.45747   8197963.93946                  23474787.3974
        21.7504         21.0004
  24776064.2654    6267898.48446   2219084.83046                  24776074.3124
        13.2504         12.7504
  21530147.7654      14135.62548     50644.41447                  21530153.7414
        28.2504         30.0004
  24313976.4684     655548.39546    388577.43546                  24313988.2614
        14.7504         15.0004
  25152217.4054   15707866.98044  12142444.34545                  25152231.2844
         7.0004          9.0004
  23885085.5934   13134787.53847  10146059.50246                  23885092.5114
        21.2504         17.2504
  22278917.4684    7115684.23348   5507064.78047                  22278924.0654
        30.2504         27.5004
  23503387.3354    2953134.08747   2321951.82546                  23503395.4724
        20.2504         19.2504
 02  7 15 19 25 45.0030000  0  8G 3G 9G14G15G17G18G21G31
  23486996.1324   10651020.65347   8247992.37546                  23487004.6554
        21.7504         21.2504
  24785181.6324    6315811.22846   2256419.42846                  24785191.1984
        13.2504         12.7504
  21533389.9604      31174.06848     63921.13647                  21533395.8664
        28.7504         30.0004
  24329007.2264     734533.74446    450124.37046                  24329017.7764
        14.5004         14.5004
  25167763.6014   15789560.41444  12206101.45445                  25167777.6794
         7.0004          9.2504
  23897771.0384   13201449.27047  10198003.68946                  23897778.2024
        21.0004         17.2504
  22286629.9834    7156214.08248   5538646.47647                  22286636.6284
        30.2504         27.5004
  23509543.2414    2985484.48647   2347159.92446                  23509550.9334
        20.5004         19.2504
 02  7 15 19 26  0.0030000  0  8G 3G 9G14G15G17G18G21G31
  23499233.7264   10715330.54747   8298103.94346                  23499242.4374
        22.0004         21.0004
  24794329.3354    6363882.32046   2293877.40646                  24794338.9254
        13.5004         13.2504
  21536659.9604      48358.01248     77311.23147                  21536665.9014
        28.7504         30.2504
  24344051.3354     813591.19646    511727.51946                  24344062.0734
        13.7504         14.2504
  25183321.1164   15871317.11444  12269807.89445                  25183336.3314
         6.7504          8.5004
  23910463.2804   13268147.89247  10249976.62546                  23910470.5734
        21.0004         17.7504
  22294352.8354    7196798.32648   5570270.55247                  22294359.3624
        30.0004         27.7504
  23515729.4374    3017992.05447   2372490.49146                  23515737.1044
        20.2504         19.2504
 02  7 15 19 26 15.0030000  0  8G 3G 9G14G15G17G18G21G31
  23511491.6554   10779746.61847   8348298.24646                  23511500.5654
        22.0004         21.0004
  24803506.9214    6412111.52246   2331458.61646                  24803516.6514
        13.5004         12.7504
  21539957.6244      65687.24748     90814.54547                  21539963.5544
        28.7504         30.2504
  24359109.3514     892720.41846    573386.57346                  24359119.7844
        13.7504         13.7504
  25198890.1404   15953136.73344  12333563.29645                  25198903.2334
         6.7504          9.0004
  23923162.7184   13334883.18147  10301978.11846                  23923169.9054
        20.2504         17.5004
  22302086.2964    7237436.84548   5601936.92347                  22302092.9174
        30.2504         27.5004
  23521945.1404    3050656.41147   2397943.22446                  23521952.8084
        20.2504         19.0004
 02  7 15 19 26 30.0040000  0  8G 3G 9G14G15G17G18G21G31
  23523771.4414   10844274.33247   8398579.54246                  23523780.0354
        22.2504         21.0004
  24812715.8014    6460503.55346   2369166.67946                  24812725.5434
        13.7504         12.7504
  21543283.3244      83164.45548    104433.16047                  21543289.1134
        28.7504         30.5004
  24374181.9414     971928.08446    635106.76146                  24374191.9884
        13.2504         13.5004
  25214473.2624   16035026.10144  12397373.12045                  25214487.4694
         7.2504          8.7504
  23935870.1214   13401661.05347  10354012.78946                  23935877.6954
        20.2504         17.7504
  22309830.6134    7278134.15148   5633649.10547                  22309837.3754
        29.7504         27.7504
  23528191.5274    3083481.22447   2423520.99946                  23528198.8674
        20.2504         18.7504
 02  7 15 19 26 45.0040000  0  8G 3G 9G14G15G17G18G21G31
  23536069.6604   10908902.22147   8448938.90146                  23536077.9734
        22.5004         21.0004
  24821953.9734    6509049.14746   2406994.40746                  24821962.5664
        13.5004         12.7504
  21546636.4264     100784.78848    118163.30647                  21546642.2734
        28.2504         30.2504
  24389266.5824    1051200.89046    696877.71346                  24389276.5234
        13.0004         12.5004
  25230067.9414   16116971.61144  12461226.65545                  25230083.4264
         7.2504          8.7504
  23948583.2774   13468469.91346  10406071.62646                  23948590.7234
        19.5004         17.2504
  22317584.7624    7318882.08048   5665400.73047                  22317591.7034
        29.7504         27.7504
  23534467.1294    3116459.36547   2449218.24846                  23534474.7624
        20.2504         19.2504
 02  7 15 19 27  0.0040000  0  8G 3G 9G14G15G17G18G21G31
  23548387.6374   10973635.24947   8499380.19346                  23548396.0784
        22.0004         20.7504
  24831220.7544    6557752.35146   2444944.96046                  24831229.6414
        14.0004         12.2504
  21550016.9344     118550.43748    132006.68447                  21550022.7934
        28.2504         30.2504
  24404365.9024    1130544.94246    758704.16846                  24404375.6564
        13.0004         12.7504
  25245672.8404   16198979.34344  12525128.66445                  25245688.3364
         6.7504          8.0004
  23961303.3944   13535315.14346  10458158.80346                  23961310.8754
        18.7504         17.2504
  22325349.0664    7359684.15848   5697194.54947                  22325355.9844
        29.7504         27.7504
  23540772.3014    3149594.01346   2475037.44946                  23540780.3094
        19.5004         19.2504
 02  7 15 19 27 15.0040000  0  8G 3G 9G14G15G17G18G21G31
  23560724.8324   11038466.34447   8549897.88446                  23560732.8754
        22.0004         20.7504
  24840518.1914    6606606.44646   2483013.09046                  24840527.0784
        14.0004         12.7504
  21553424.1764     136454.73048    145958.09647                  21553430.2934
        28.0004         30.2504
  24419476.5434    1209953.37846    820580.81446                  24419487.2584
        13.2504         12.7504
  25261289.1684   16281042.66744  12589074.00245                  25261304.4184
         6.7504          8.2504
  23974029.4104   13602189.98746  10510269.04446                  23974037.0084
        18.7504         17.2504
  22333122.6054    7400533.85948   5729025.47847                  22333129.4264
        30.0004         27.7504
  23547106.0904    3182878.42646   2500973.34746                  23547114.6134
        19.2504         19.2504
 02  7 15 19 27 30.0040000  0  8G 3G 9G14G15G17G18G21G31
  23573083.0194   11103408.74647   8600502.32046                  23573091.1444
        21.5004         20.7504
  24849845.9964    6655624.94846   2521209.31046                  24849855.1174
        13.2504         12.2504
  21556860.1844     154511.16048    160028.05347                  21556866.3834
        28.0004         30.0004
  24434602.3634    1289439.57746    882518.03546                  24434612.8554
        13.7504         12.7504
  25276918.2624   16363174.88544  12653073.01845                  25276932.7274
         7.2504          8.7504
  23986763.4654   13669107.94146  10562412.89046                  23986771.3324
        18.2504         17.2504
  22340907.8404    7441444.79748   5760904.12347                  22340914.6134
        29.7504         27.7504
  23553471.0194    3216326.08046   2527036.45146                  23553479.6484
        19.5004         19.0004
 02  7 15 19 27 45.0040000  0  8G 3G 9G14G15G17G18G21G31
  23585460.6764   11168454.23747   8651187.07646                  23585468.9184
        22.0004         21.0004
  24859203.5434    6704799.75146   2559527.34646                  24859212.8634
        12.7504         12.5004
  21560323.6764     172711.88648    174210.44647                  21560329.9224
        28.0004         29.5004
  24449741.3244    1368995.50346    944509.59346                  24449752.4024
        14.2504         13.2504
  25292560.4654   16445368.03445  12717119.49845                  25292574.0864
         7.5004          8.7504
  23999503.8714   13736061.14746  10614584.19746                  23999511.3054
        18.0004         16.7504
  22348702.8484    7482408.84748   5792824.15647                  22348709.7074
        30.0004         27.7504
  23559865.4264    3249929.02046   2553220.54646                  23559873.4804
        19.0004         19.0004
 02  7 15 19 28  0.0040000  0  8G 3G 9G14G15G17G18G21G31
  23597856.5904   11233594.17147   8701945.42746                  23597865.2194
        22.2504         21.2504
  24868589.5514    6754122.48446   2597960.65146                  24868599.3874
        12.7504         12.5004
  21563813.1524     191048.71147    188498.89447                  21563819.5394
        27.7504         29.7504
  24464891.8794    1448612.75146   1006548.93746                  24464902.5944
        13.0004         12.5004
  25308210.7464   16527613.52045  12781206.82145                  25308224.2504
         7.7504          8.7504
  24012249.9964   13803041.17146  10666776.40946                  24012257.6294
        17.7504         16.5004
  22356506.7154    7523417.75248   5824779.13947                  22356513.4774
        29.7504         27.7504
  23566287.9344    3283678.89146   2579519.13446                  23566296.2584
        19.2504         19.0004
 02  7 15 19 28 15.0040000  0  8G 3G 9G14G15G17G18G21G31
  23610271.2544   11298833.61447   8752781.31746                  23610279.8364
        22.2504         21.5004
  24878004.0124    6803598.29546   2636513.22546                  24878013.9304
        13.0004         12.2504
  21567329.3404     209526.82748    202897.43747                  21567335.7974
        28.0004         29.7504
  24480055.3714    1528296.32346   1068639.96946                  24480066.1564
        12.5004         12.0004
  25323872.2544   16609916.48345  12845338.89045                  25323885.4064
         8.2504          8.5004
  24025001.6914   13870053.27946  10718993.60746                  24025009.8524
        17.2504         16.7504
  22364320.0274    7564476.90648   5856773.27947                  22364326.6724
        30.2504         27.7504
  23572739.0124    3317580.83646   2605936.22646                  23572746.9964
        19.5004         18.7504
 02  7 15 19 28 30.0040000  0  8G 3G 9G14G15G17G18G21G31
  23622705.5354   11364177.00947   8803698.20746                  23622713.8484
        22.7504         21.7504
  24887449.4654    6853232.04346   2675188.86746                  24887459.5234
        13.2504         12.7504
  21570873.5044     228151.24348    217409.97847                  21570879.7034
        28.0004         29.5004
  24495232.4414    1608051.11246   1130786.45846                  24495243.2734
        12.5004         12.0004
  25339546.4884   16692281.70445  12909519.48445                  25339560.4844
         8.7504          9.2504
  24037760.9884   13937102.34846  10771239.62846                  24037769.1484
        17.0004         16.7504
  22372143.6214    7605591.22848   5888810.41047                  22372150.1484
        30.0004         27.7504
  23579220.4414    3351639.72246   2632475.59546                  23579228.3094
        19.2504         18.7504
 02  7 15 19 28 45.0040000  0  8G 3G 9G14G15G17G18G21G31
  23635158.6604   11429616.83647   8854690.23446                  23635167.4184
        23.2504         22.5004
  24896923.3554    6903016.36746   2713981.84946                  24896932.4534
        13.7504         13.0004
  21574443.9734     246914.64848    232030.81947                  21574449.9614
        28.5004         29.5004
  24510421.5904    1687869.73446   1192982.71246                  24510431.5904
        13.0004         12.0004
  25355229.7384   16774701.87145  12973742.86445                  25355245.4574
         7.7504          8.5004
  24050525.5434   14004181.14746  10823508.79646                  24050533.5164
        18.0004         17.0004
  22379976.5514    7646753.39548   5920884.81947                  22379983.1724
        30.0004         27.7504
  23585730.2464    3385848.31146   2659131.62946                  23585738.2424
        18.7504         19.0004
 02  7 15 19 29  0.0040000  0  8G 3G 9G14G15G17G18G21G31
  23647630.9804   11495157.69647   8905760.99446                  23647639.7734
        23.2504         22.5004
  24906426.0044    6952955.95146   2752895.81846                  24906435.8284
        14.0004         13.0004
  21578041.9804     265822.02348    246763.85047                  21578048.0274
        28.5004         29.5004
  24525624.1604    1767756.85046   1255232.33945                  24525633.6334
        14.2504         11.7504
  25370925.7074   16857181.50945  13038012.63145                  25370941.1094
         8.5004          7.7504
  24063296.8554   14071294.37346  10875804.79146                  24063305.0864
        18.5004         17.0004
  22387819.5514    7687968.20848   5953000.25347                  22387826.1024
        30.0004         28.0004
  23592269.3094    3420211.29546   2685907.97246                  23592276.9184
        19.5004         18.7504
 02  7 15 19 29 15.0040000  0  8G 3G 9G14G15G17G18G21G31
  23660122.1914   11560801.81847   8956912.21246                  23660130.8554
        23.0004         22.5004
  24915959.9654    7003053.41646   2791932.79146                  24915969.8834
        14.2504         13.2504
  21581667.9104     284875.99748    261611.10947                  21581673.7694
        28.7504         29.7504
  24540839.3244    1847714.95346   1317537.28546                  24540848.8554
        14.7504         12.2504
  25386633.2464   16939723.22645  13102330.76645                  25386647.3834
         8.2504          8.5004
  24076075.4734   14138444.74046  10928129.72646                  24076083.4344
        19.5004         17.2504
  22395672.9654    7729238.41248   5985158.85047                  22395679.4574
        29.7504         27.7504
  23598838.3094    3454731.28046   2712806.64446                  23598846.5624
        18.7504         19.0004
 02  7 15 19 29 30.0040000  0  8G 3G 9G14G15G17G18G21G31
  23672631.6374   11626539.26347   9008136.15146                  23672640.1604
        22.0004         22.2504
  24925521.2074    7053299.01646   2831085.22546                  24925530.3634
        15.2504         13.7504
  21585319.7854     304066.89048    276565.05947                  21585325.4224
        28.7504         29.7504
  24556066.4414    1927734.33646   1379889.98646                  24556076.2424
        14.7504         12.2504
  25402350.3634   17022317.26245  13166689.65145                  25402364.6294
         8.7504          7.7504
  24088859.1914   14205622.57547  10980476.05946                  24088866.8834
        20.2504         17.5004
  22403535.1994    7770554.53348   6017353.22447                  22403541.8554
        29.7504         27.7504
  23605435.0274    3489398.59146   2739820.12246                  23605443.0944
        19.5004         19.0004
 02  7 15 19 29 45.0040000  0  8G 3G 9G14G15G17G18G21G31
  23685159.0594   11692371.05447   9059433.60546                  23685167.5474
        21.7504         22.0004
  24935111.1844    7103693.88346   2870353.94346                  24935120.7154
        14.7504         13.5004
  21588997.8244     323395.99148    291626.70947                  21589003.4614
        29.0004         29.7504
  24571305.5824    2007816.12646   1442291.31246                  24571315.4774
        14.5004         12.2504
  25418077.7934   17104964.65145  13231090.10345                  25418090.3124
         8.2504          7.5004
  24101648.2464   14272829.04847  11032844.70946                  24101655.5744
        21.0004         17.5004
  22411406.3324    7811917.55848   6049584.14847                  22411413.0124
        29.5004         27.7504
  23612060.4804    3524214.42846   2766949.34646                  23612068.4884
        19.0004         18.5004
 02  7 15 19 30  0.0040000  0  8G 3G 9G14G15G17G18G21G31
  23697706.6444   11758308.68647   9110813.53246                  23697715.8244
        21.2504         22.0004
  24944731.8324    7154249.77046   2909748.12746                  24944740.7544
        14.7504         13.5004
  21592704.6374     342875.11248    306805.25347                  21592710.1804
        29.0004         29.7504
  24586558.2154    2087971.94046   1504750.30846                  24586568.8944
        13.5004         12.0004
  25433817.2074   17187677.13344  13295541.32345                  25433827.6054
         7.2504          6.2504
  24114444.9104   14340076.01847  11085244.90946                  24114452.5194
        21.0004         17.5004
  22419288.5594    7853339.60548   6081861.05947                  22419295.4024
        29.0004         27.7504
  23618715.8244    3559190.58046   2794203.47446                  23618723.5274
        18.7504         18.5004
 02  7 15 19 30 15.0040000  0  8G 3G 9G14G15G17G18G21G31
  23710272.3484   11824342.13747   9162268.11946                  23710281.5394
        21.7504         22.0004
  24954381.0904    7204956.86846   2949260.16446                  24954390.6564
        14.2504         13.0004
  21596438.3324     362494.66348    322093.22647                  21596443.8754
        28.5004         30.0004
  24601824.2304    2168191.90746   1567259.28046                  24601835.3914
        14.0004         12.7504
  25449567.3554   17270444.87544  13360035.58245                  25449582.6294
         6.5004          6.7504
  24127247.3944   14407353.70947  11137669.06446                  24127254.8164
        21.0004         17.0004
  22427180.5194    7894810.90348   6114176.35147                  22427187.3284
        29.7504         28.0004
  23625400.2934    3594317.25746   2821574.90246                  23625408.1134
        18.2504         18.0004
 02  7 15 19 30 30.0040000  0  8G 3G 9G14G15G17G18G21G31
  23722857.1134   11890475.60247   9213800.64546                  23722865.9884
        21.7504         21.7504
  24964059.3714    7255819.45446   2988893.32746                  24964068.6094
        14.0004         12.5004
  21600199.2694     382259.14448    337494.13147                  21600204.9534
        28.2504         29.7504
  24617102.3554    2248480.40346   1629821.66246                  24617112.3204
        13.5004         12.5004
  25465329.2544   17353272.07144  13424576.17545                  25465342.2194
         6.7504          6.2504
  24140056.5594   14474666.60647  11190120.64246                  24140063.8754
        21.0004         16.7504
  22435082.3634    7936335.86448   6146533.45747                  22435089.0554
        29.5004         28.0004
  23632114.2154    3629598.80946   2849067.00546                  23632122.2464
        18.0004         18.2504
 02  7 15 19 30 45.0040000  0  8G 3G 9G14G15G17G18G21G31
  23735461.3554   11956709.57747   9265411.49346                  23735470.1604
        21.5004         21.5004
  24973767.7694    7306838.30546   3028648.26946                  24973776.7624
        14.0004         13.0004
  21603987.9574     402169.38448    353008.61347                  21603993.6524
        28.2504         29.7504
  24632394.5984    2328838.03146   1692437.92045                  24632405.2194
        14.7504         11.7504
  25481103.1444   17436159.52744  13489163.74945                  25481115.9804
         6.2504          6.5004
  24152872.5514   14542015.45547  11242600.22646                  24152879.5514
        20.2504         16.5004
  22442994.6994    7977915.55648   6178933.21047                  22443001.6874
        29.5004         28.0004
  23638857.5984    3665036.07146   2876680.44646                  23638865.8754
        18.2504         18.0004
 02  7 15 19 31  0.0040000  0  8G 3G 9G14G15G17G18G21G31
  23748081.9494   12023032.61847   9317091.73946                  23748090.9884
        21.2504         21.5004
  24983504.0594    7358002.26246   3068516.29346                  24983512.9574
        13.5004         12.0004
  21607802.5124     422214.28748    368628.02947                  21607808.3594
        28.0004         29.7504
  24647697.1914    2409253.63046   1755099.34046                  24647707.2504
        14.5004         12.0004
  25496883.9414   17519095.94043  13553789.41145                  25496899.5194
         5.7504          5.7504
  24165693.5354   14609389.16247  11295099.20346                  24165700.3094
        20.0004         16.2504
  22450915.3874    8019538.80248   6211366.89747                  22450922.3164
        29.5004         28.2504
  23645628.5744    3700617.87746   2904406.52246                  23645636.4654
        18.0004         18.2504
 02  7 15 19 31 15.0040000  0  8G 3G 9G14G15G17G18G21G31
  23760720.1294   12089446.09547   9368842.44646                  23760729.4144
        20.5004         21.2504
  24993267.9184    7409312.90146   3108498.60846                  24993277.4264
        13.0004         12.2504
  21611642.6994     442395.61647    384353.75047                  21611648.6054
        27.7504         29.5004
  24663011.3244    2489728.73146   1817807.15346                  24663021.5704
        14.5004         12.5004
  25512676.6844   17602082.89943  13618454.52245                  25512692.7894
         6.0004          6.2504
  24178519.2854   14676789.35546  11347618.80146                  24178526.4144
        19.2504         16.0004
  22458844.6764    8061207.34148   6243835.88247                  22458851.8164
        29.5004         28.2504
  23652427.2774    3736345.77946   2932246.43846                  23652435.7074
        17.5004         18.0004
 02  7 15 19 31 30.0040000  0  8G 3G 9G14G15G17G18G21G31
  23773377.3714   12155960.64747   9420671.92246                  23773386.2464
        20.2504         21.0004
  25003062.1604    7460781.00846   3148603.60846                  25003072.0664
        13.2504         12.5004
  21615511.1294     462724.31847    400194.30647                  21615517.1294
        27.5004         29.5004
  24678338.4654    2570274.10146   1880569.67846                  24678348.8984
        14.0004         12.7504
  25528480.3164   17685131.05843  13683167.16145                  25528496.6334
         6.0004          6.0004
  24191351.9734   14744227.01646  11400167.59546                  24191359.2664
        18.5004         15.7504
  22466784.4884    8102931.90948   6276348.52547                  22466791.6054
        29.0004         28.0004
  23659255.7464    3772230.68446   2960208.67846                  23659264.1414
        18.0004         18.0004
 02  7 15 19 31 45.0040000  0  8G 3G 9G14G15G17G18G21G31
  23786053.8244   12222576.84546   9472580.60246                  23786062.6174
        19.7504         20.7504
  25012886.3404    7512407.40246   3188831.94846                  25012895.9304
        13.2504         12.5004
  21619407.8714     483201.17347    416150.31447                  21619413.9654
        27.2504         29.2504
  24693679.3554    2650890.55346   1943387.62646                  24693690.9024
        13.0004         12.5004
  25544294.8634   17768241.28943  13747928.29945                  25544312.0704
         6.0004          6.0004
  24204192.2154   14811702.96346  11452746.22546                  24204199.2624
        17.5004         15.0004
  22474735.2234    8144713.39148   6308905.51347                  22474742.3634
        29.2504         28.2504
  23666114.6054    3808273.39546   2988293.89546                  23666123.0004
        18.0004         18.0004
 02  7 15 19 32  0.0040000  0  8G 3G 9G14G15G17G18G21G31
  23798748.1684   12289285.94446   9524561.66746                  23798757.1844
        19.7504         20.5004
  25022739.0274    7564183.50846   3229176.96446                  25022747.5514
        13.7504         12.7504
  21623331.0354     503817.79747    432215.22347                  21623336.9654
        27.5004         29.5004
  24709032.1524    2731569.56846   2006254.30046                  24709043.5944
        13.0004         12.5004
  25560121.0594   17851404.94244  13812731.02945                  25560136.0274
         6.5004          7.5004
  24217038.1994   14879208.72046  11505348.08846                  24217046.2664
        16.7504         15.2504
  22482695.2464    8186543.46148   6341500.37247                  22482702.4224
        29.0004         28.2504
  23673001.7544    3844465.36246   3016495.40846                  23673010.0904
        18.0004         18.2504
 02  7 15 19 32 15.0040000  0  8G 3G 9G14G15G17G18G21G31
  23811460.8714   12356090.02946   9576616.75746                  23811469.9804
        19.5004         20.0004
  25032620.5354    7616111.65246   3269640.45146                  25032629.4454
        13.5004         12.7504
  21627281.1684     524576.59947    448390.91847                  21627286.9454
        27.7504         29.7504
  24724396.8794    2812313.32446   2069171.40246                  24724409.3404
        13.0004         12.7504
  25575956.9344   17934624.27744  13877577.18245                  25575971.5394
         6.5004          7.7504
  24229890.2234   14946746.77846  11557975.12946                  24229897.7734
        16.2504         15.0004
  22490665.1764    8228424.71048   6374135.10447                  22490672.4924
        29.2504         28.2504
  23679917.9574    3880809.00146   3044815.11646                  23679926.4694
        18.0004         18.5004
 02  7 15 19 32 30.0040000  0  8G 3G 9G14G15G17G18G21G31
  23824190.0744   12422984.64246   9628742.38046                  23824199.3594
        19.2504         20.0004
  25042530.4964    7668187.62346   3310219.11546                  25042539.9454
        13.5004         13.0004
  21631257.6914     545473.50948    464674.23847                  21631263.4104
        28.0004         29.7504
  24739773.9964    2893117.62046   2132135.72246                  24739786.0594
        14.0004         13.0004
  25591803.9104   18017895.08145  13942463.37345                  25591817.1214
         7.7504          9.0004
  24242747.4964   15014312.95946  11610624.07846                  24242755.6684
        16.5004         15.0004
  22498643.7854    8270353.16748   6406806.62047                  22498650.9964
        29.7504         28.5004
  23686861.5824    3917300.06446   3073249.69946                  23686870.1524
        18.0004         18.5004
 02  7 15 19 32 45.0040000  0  8G 3G 9G14G15G17G18G21G31
  23836937.4024   12489970.06146   9680938.75746                  23836946.2424
        19.5004         20.0004
  25052468.5744    7720411.93346   3350913.36946                  25052477.4494
        13.5004         12.5004
  21635260.8554     566509.16048    481065.66347                  21635266.5274
        28.0004         29.5004
  24755161.7384    2973982.86846   2195147.50946                  24755173.9654
        14.0004         13.5004
  25607659.4964   18101217.82445  14007390.09445                  25607673.5164
         8.0004          8.2504
  24255610.5194   15081907.73546  11663295.30846                  24255618.3754
        16.2504         15.0004
  22506631.4804    8312329.20248   6439515.21347                  22506638.7154
        29.7504         28.5004
  23693834.0194    3953939.15046   3101799.62646                  23693842.9884
        18.2504         18.5004
 02  7 15 19 33  0.0040000  0  8G 3G 9G14G15G17G18G21G31
  23849702.6374   12557052.64446   9733210.85346                  23849711.8874
        19.2504         20.2504
  25062435.8014    7772791.02546   3391728.23246                  25062444.6524
        13.2504         12.2504
  21639291.1914     587690.29048    497570.45147                  21639296.7814
        28.2504         29.5004
  24770563.3324    3054915.63046   2258211.89946                  24770575.7584
        14.5004         14.0004
  25623526.4344   18184598.94145  14072362.31145                  25623540.2074
         8.7504          8.5004
  24268479.9344   15149537.86346  11715994.09946                  24268487.9774
        16.0004         15.2504
  22514629.7154    8354359.63648   6472266.19247                  22514637.0904
        29.7504         28.5004
  23700835.7304    3990732.72046   3130469.91946                  23700844.8874
        18.0004         19.0004
 02  7 15 19 33 15.0040000  0  7G 3G 9G14G15G18G21G31
  23862485.6054   12624227.85446   9785555.12646                  23862495.0904
        19.2504         20.0004
  25072431.4734    7825320.48046   3432660.26846                  25072441.9304
        12.7504         13.0004
  21643348.9264     609012.57848    514185.22547                  21643354.4454
        28.2504         29.5004
  24785976.3634    3135911.37846   2321325.39646                  24785987.9804
        14.2504         13.2504
  24281355.6604   15217199.03246  11768717.07346                  24281364.3014
        16.2504         15.7504
  22522637.5594    8396440.42548   6505056.40547                  22522644.8754
        30.2504         28.5004
  23707865.6214    4027676.52146   3159257.28246                  23707874.3094
        18.0004         18.5004
 02  7 15 19 33 30.0040000  0  7G 3G 9G14G15G18G21G31
  23875286.4024   12691495.95946   9837971.78046                  23875296.1444
        19.0004         20.0004
  25082456.6294    7878000.78346   3473709.82245                  25082465.7854
        12.5004         11.5004
  21647433.3164     630476.60948    530910.45047                  21647438.8014
        28.2504         29.2504
  24801401.0514    3216970.68146   2384488.40446                  24801411.9064
        14.2504         13.2504
  24294237.0194   15284891.85846  11821464.69046                  24294245.5434
        16.2504         16.2504
  22530654.7384    8438572.11448   6537886.28347                  22530661.9964
        30.2504         28.5004
  23714924.6994    4064771.04846   3188162.08846                  23714933.5394
        17.7504         18.2504
 02  7 15 19 33 45.0040000  0  7G 3G 9G14G15G18G21G31
  23888104.2694   12758854.11246   9890458.59646                  23888114.1524
        18.7504         20.0004
  25092509.1914    7930829.30046   3514874.90145                  25092518.5234
        12.2504         11.7504
  21651544.1054     652079.95848    547744.23947                  21651549.7194
        28.0004         29.5004
  24816838.5354    3298091.01346   2447698.97446                  24816849.2274
        14.5004         13.2504
  24307124.2544   15352613.82146  11874235.02746                  24307133.4924
        17.5004         17.0004
  22538681.2544    8480751.97948   6570753.70847                  22538688.3364
        30.2504         28.2504
  23722011.4414    4102013.70746   3217182.33446                  23722019.7304
        18.0004         18.5004
 02  7 15 19 34  0.0040000  0  7G 3G 9G14G15G18G21G31
  23900940.2854   12826307.00746   9943019.23646                  23900950.0984
        19.7504         19.7504
  25102591.8554    7983811.05745   3556159.37445                  25102601.5744
        11.7504         11.7504
  21655682.5274     673827.50247    564690.38547                  21655688.2814
        27.2504         29.2504
  24832287.4104    3379277.19846   2510960.85246                  24832298.0784
        14.0004         13.2504
  24320017.8794   15420369.94746  11927031.99146                  24320026.4964
        18.0004         17.0004
  22546718.0744    8522985.26448   6603662.74647                  22546725.1444
        30.0004         28.5004
  23729127.8484    4139409.35746   3246321.78846                  23729135.9494
        18.5004         18.2504
 02  7 15 19 34 15.0040000  0  7G 3G 9G14G15G18G21G31
  23913794.5354   12893855.44347   9995654.33646                  23913803.4924
        20.2504         19.5004
  25112702.6294    8036946.98945   3597563.96845                  25112712.1724
        11.5004         11.5004
  21659848.6844     695720.41547    581749.80347                  21659854.5314
        27.0004         29.2504
  24847748.9264    3460530.17246   2574274.77346                  24847760.4024
        13.0004         12.0004
  24332918.4654   15488161.18146  11979856.29246                  24332927.2694
        18.2504         17.2504
  22554765.1444    8565272.96848   6636614.19847                  22554772.3324
        30.2504         28.2504
  23736273.4184    4176959.11746   3275581.33746                  23736281.6844
        18.0004         18.5004
 02  7 15 19 34 30.0040000  0  7G 3G 9G14G15G18G21G31
  23926666.4734   12961497.04147  10048362.02846                  23926675.1254
        20.7504         19.5004
  25122842.9264    8090234.82945   3639086.94545                  25122853.0434
        11.0004         11.0004
  21664041.9574     717756.61947    598920.87547                  21664047.5944
        27.0004         29.0004
  24863223.1054    3541847.63746   2637638.96546                  24863234.5944
        13.0004         12.5004
  24345824.9494   15555985.44446  12032706.34446                  24345834.0354
        18.5004         17.5004
  22562822.2234    8607613.01548   6669606.43047                  22562829.2814
        30.2504         28.2504
  23743447.7934    4214660.73646   3304959.20546                  23743456.2934
        17.7504         18.2504
 02  7 15 19 34 45.0040000  0  7G 3G 9G14G15G18G21G31
  23939554.8094   13029224.80947  10101136.87746                  23939563.0044
        20.7504         19.5004
  25133011.0044    8143667.77545   3680722.99945                  25133020.7464
        11.2504         11.5004
  21668261.3164     739929.52147    616198.47047                  21668267.1874
        26.5004         28.7504
  24878708.4804    3623222.78046   2701048.08346                  24878719.9574
        13.0004         12.0004
  24358736.8094   15623836.05246  12085576.90446                  24358745.4264
        18.7504         17.5004
  22570887.9654    8649998.76748   6702634.28447                  22570894.8094
        30.7504         28.2504
  23750649.6604    4252507.47346   3334450.16046                  23750658.0434
        18.7504         18.2504
 02  7 15 19 35  0.0040000  0  7G 3G 9G14G15G18G21G31
  23952460.2154   13097044.27247  10153983.15546                  23952468.5394
        21.2504         19.7504
  25143207.7544    8197251.69245   3722476.68145                  25143217.9884
        11.2504         11.2504
  21672508.0434     762244.93347    633587.10547                  21672513.8204
        26.5004         28.7504
  24894206.0194    3704661.37746   2764506.65246                  24894217.7194
        12.7504         12.5004
  24371654.3874   15691718.90746  12138472.61646                  24371662.9454
        19.0004         18.0004
  22578963.5594    8692436.35948   6735702.52747                  22578970.4774
        30.5004         28.2504
  23757880.5904    4290505.09346   3364058.67846                  23757888.9614
        18.7504         18.7504
 02  7 15 19 35 15.0040000  0  7G 3G 9G14G15G18G21G31
  23965382.3094   13164949.25547  10206896.08246                  23965390.8324
        21.0004         19.7504
  25153432.0354    8250980.43545   3764343.21345                  25153442.9844
        11.2504         11.2504
  21676780.5194     784696.90847    651082.15847                  21676786.5194
        26.5004         29.0004
  24909714.6844    3786157.34546   2828009.92046                  24909726.0084
        13.0004         12.2504
  24384577.1524   15759628.04046  12191388.79946                  24384585.1724
        19.5004         17.5004
  22587047.9264    8734919.80648   6768806.50047                  22587054.9964
        30.2504         28.2504
  23765139.0594    4328647.66946   3393780.15446                  23765147.2664
        18.7504         18.5004
 02  7 15 19 35 30.0040000  0  7G 3G 9G14G15G18G21G31
  23978321.9574   13232948.34847  10259882.35046                  23978330.5274
        21.2504         20.0004
  25163685.9414    8304862.86845   3806329.50045                  25163695.5904
        11.7504         11.2504
  21681080.5194     807294.41847    668690.61847                  21681086.5194
        26.2504         29.0004
  24925234.8404    3867719.48246   2891564.74346                  24925246.2694
        13.0004         12.7504
  24397506.4184   15827572.34946  12244332.37346                  24397514.3554
        19.2504         16.7504
  22595142.5984    8777457.99348   6801953.12347                  22595149.5164
        30.7504         28.2504
  23772426.2854    4366943.98246   3423621.42546                  23772434.6214
        18.5004         18.7504
 02  7 15 19 35 45.0040000  0  7G 3G 9G14G15G18G21G31
  23991278.1524   13301034.23647  10312936.23546                  23991287.1214
        20.5004         19.7504
  25173967.3094    8358891.90945   3848430.04345                  25173976.6524
        11.7504         11.0004
  21685407.2934     830030.55547    686407.09447                  21685413.1174
        26.5004         29.0004
  24940766.8874    3949340.71546   2955165.63446                  24940778.5984
        12.5004         12.2504
  24410441.4024   15895544.96146  12297298.01346                  24410449.0474
        19.5004         16.5004
  22603246.5194    8820044.09648   6835137.09447                  22603253.3404
        30.5004         28.2504
  23779742.1134    4405387.10046   3453577.09246                  23779750.4964
        19.0004         18.7504
 02  7 15 19 36  0.0040000  0  7G 3G 9G14G15G18G21G31
  24004252.8484   13369215.64447  10366064.55246                  24004261.8984
        20.5004         19.7504
  25184278.5664    8413076.38245   3890651.71045                  25184288.5664
        11.7504         11.5004
  21689761.8164     852914.29947    704238.59247                  21689767.5594
        26.5004         29.2504
  24956311.5664    4031029.89245   3018819.43845                  24956323.8754
        11.5004         11.7504
  24423383.2464   15963554.78146  12350292.63846                  24423391.3944
        18.7504         16.2504
  22611361.1374    8862687.01648   6868365.32547                  22611367.8054
        31.2504         28.2504
  23787087.4574    4443985.73846   3483653.93646                  23787096.1214
        19.0004         18.7504
 02  7 15 19 36 15.0040000  0  8G 3G 9G14G15G11G18G21G31
  24017244.3714   13437484.85247  10419261.28746                  24017254.0194
        20.5004         20.0004
  25194617.2074    8467408.80645   3932988.66145                  25194628.2384
        11.0004         11.0004
  21694143.1844     875938.20647    722179.30847                  21694148.7504
        27.0004         29.2504
  24971868.3714    4112779.54645   3082520.38845                  24971879.9654
        10.2504         11.7504
  26113032.3714      -2523.29955
         8.2504
  24436330.9184   16031594.47446  12403310.55946                  24436338.3054
        19.0004         16.2504
  22619485.3484    8905379.49148   6901632.18047                  22619492.1914
        30.7504         28.2504
  23794460.4344    4482732.64046   3513846.31346                  23794469.0514
        19.5004         19.5004
 02  7 15 19 36 30.0040000  0  8G 3G 9G14G15G11G18G21G31
  24030251.7464   13505841.11447  10472525.85346                  24030261.4184
        20.2504         20.2504
  25204984.1914    8521888.64045   3975440.46245                  25204994.2624
        11.0004         11.0004
  21698551.0274     899101.88347    740228.93447                  21698556.7584
        27.0004         29.2504
  24987436.2774    4194589.01445   3146267.93045                  24987447.5904
        10.5004         11.5004
  26109431.5274     -21444.50545
         8.7504
  24449283.5044   16099663.50346  12456351.32946                  24449291.0784
        18.5004         16.0004
  22627618.8324    8948121.24348   6934937.43247                  22627625.8794
        30.7504         28.2504
  23801861.7544    4521627.07447   3544153.65346                  23801870.3244
        20.0004         19.7504
 02  7 15 19 36 45.0040000  0  8G 3G 9G14G15G11G18G21G31
  24043276.8404   13574286.78647  10525860.09346                  24043286.1024
        21.0004         20.0004
  25215379.8014    8576518.24545   4018008.97245                  25215390.3634
        10.7504         11.0004
  21702985.7304     922407.94547    758389.51047                  21702991.3444
        27.2504         29.2504
  25003015.8794    4276460.84145   3210064.05845                  25003027.9534
        10.2504         11.0004
  26105836.0434     -40342.27545
         9.0004
  24462242.6054   16167764.54846  12509417.05846                  24462249.9104
        18.0004         15.2504
  22635762.0744    8990914.76748   6968283.02547                  22635769.2154
        30.5004         28.5004
  23809291.7384    4560671.67347   3574577.99646                  23809300.3094
        20.0004         20.0004
 02  7 15 19 37  0.0040000  0  8G 3G 9G14G15G11G18G21G31
  24056318.6374   13642821.62247  10579263.80746                  24056327.7934
        21.0004         20.2504
  25225804.2624    8631297.71945   4060694.24945                  25225814.6844
        10.7504         11.2504
  21707448.0744     945856.56747    776661.17047                  21707453.6524
        27.0004         29.5004
  25018607.1374    4358395.00745   3273908.78945                  25018618.4024
        10.0004         10.2504
  26102244.6134     -59216.14945
         8.7504
  24475208.4264   16235897.69446  12562507.79246                  24475215.7544
        17.0004         15.0004
  22643915.3094    9033760.27548   7001669.12847                  22643922.4024
        30.7504         28.2504
  23816750.4184    4599866.42646   3605119.34246                  23816759.0474
        19.0004         19.7504
 02  7 15 19 37 15.0040000  0  8G 3G 9G14G15G11G18G21G31
  24069376.9104   13711443.00747  10632734.97046                  24069385.6684
        21.2504         20.5004
  25236256.5044    8686224.53545   4103494.32945                  25236266.6914
        11.0004         11.2504
  21711936.8634     969445.31647    795042.02047                  21711942.4414
        27.0004         29.2504
  25034210.3794    4440389.05145   3337800.15445                  25034222.0784
        10.5004         10.7504
  26098656.6294     -78068.11045     -3915.57855                  26098664.0514
         8.0004          6.5004
  24488178.9964   16304060.66746  12615621.77646                  24488186.9224
        17.0004         15.2504
  22652078.0594    9076655.46348   7035093.94447                  22652085.2464
        30.5004         28.5004
  23824236.8404    4639208.93146   3635775.82446                  23824245.1764
        19.7504         19.5004
 02  7 15 19 37 30.0040000  0  8G 3G 9G14G15G11G18G21G31
  24082450.6914   13780145.44947  10686269.29246                  24082459.4264
        21.5004         20.2504
  25246735.9494    8741293.41145   4146405.13345                  25246745.6684
        11.0004         10.7504
  21716451.4344     993169.07547    813528.07047                  21716457.2344
        27.0004         29.2504
  25049823.6374    4522437.61145   3401734.01145                  25049834.7974
        10.0004         11.0004
  26095072.1054     -96903.13344    -18592.13845                  26095081.0394
         6.7504          6.0004
  24501154.8874   16372248.29446  12668754.95946                  24501162.6484
        17.0004         15.7504
  22660249.3404    9119595.43248   7068553.64747                  22660256.7854
        30.5004         28.5004
  23831750.4964    4678693.86347   3666543.29846                  23831758.8324
        20.0004         20.0004
 02  7 15 19 37 45.0040000  0  8G 3G 9G14G15G11G18G21G31
  24095540.1444   13848932.05647  10739869.19346                  24095548.8204
        21.0004         20.0004
  25257242.9884    8796507.72845   4189429.23445                  25257251.9454
        11.5004         11.0004
  21720992.1994    1017031.25247    832121.98047                  21720997.9774
        27.0004         29.0004
  25065448.7384    4604543.92345   3465712.85545                  25065460.4264
        10.7504         11.0004
  26091490.9494    -115717.54844    -33252.61345                  26091501.5004
         6.2504          6.7504
  24514135.6214   16440463.96646  12721910.00746                  24514143.5354
        16.5004         15.2504
  22668429.5274    9162583.40748   7102050.75947                  22668436.9144
        30.7504         28.7504
  23839292.0514    4718324.60246   3697424.36746                  23839300.6914
        19.7504         19.7504
 02  7 15 19 38  0.0040000  0  9G 3G 9G14G15G11G18G21G31G25
  24108644.7464   13917797.10547  10793530.22946                  24108653.4104
        20.2504         20.0004
  25267775.9964    8851862.00545   4232562.44645                  25267786.0904
        11.2504         10.7504
  21725558.3714    1041026.52547    850819.59747                  21725564.1954
        27.0004         28.7504
  25081082.6914    4686702.58445   3529732.51445                  25081094.4494
        10.7504         11.2504
  26087913.5434    -134516.31243    -47900.89445                  26087924.6804
         5.7504          5.7504
  24527120.9574   16508702.31146  12775082.70246                  24527129.3404
        16.5004         15.7504
  22676618.0124    9205614.31048   7135581.32447                  22676625.2464
        30.7504         28.5004
  23846859.8714    4758095.73646   3728414.84946                  23846868.6054
        19.2504         19.2504
  25980183.5044     -12914.83744
         7.2504
 02  7 15 19 38 15.0040000  0  9G 3G 9G14G15G11G18G21G31G25
  24121766.5044   13986752.21146  10847261.42546                  24121775.6954
        19.5004         20.0004
  25278338.7624    8907367.88745   4275813.75045                  25278348.4344
        11.2504         10.7504
  21730151.9964    1065166.73247    869630.15347                  21730157.7034
        26.7504         29.0004
  25096729.3094    4768925.24745   3593802.03045                  25096741.9224
        10.5004         11.0004
  26084340.9184    -153287.41443    -62527.62545                  26084351.4924
         5.5004          6.0004
  24540113.2464   16576975.20946  12828282.35246                  24540121.4774
        16.7504         15.7504
  22684816.7464    9248699.97148   7169154.55747                  22684824.0744
        30.2504         28.7504
  23854457.4414    4798018.98246   3759523.85446                  23854465.9654
        19.5004         19.2504
  25976833.2774     -30522.86745
         7.7504
 02  7 15 19 38 30.0040000  0  9G 3G 9G14G15G11G18G21G31G25
  24134904.8794   14055795.77146  10901061.55446                  24134914.3054
        18.7504         20.0004
  25288929.4884    8963023.89945   4319182.05345                  25288939.2894
        11.2504         11.0004
  21734773.0274    1089450.49847    888552.57347                  21734778.7464
        26.7504         28.7504
  25112387.4804    4851210.46345   3657920.26845                  25112400.3404
        10.7504         11.2504
  26080774.0044    -172031.80044    -77133.55945                  26080787.5554
         6.7504          7.0004
  24553111.4804   16645281.37846  12881507.89946                  24553119.6524
        16.2504         15.5004
  22693026.0044    9291838.88048   7202769.28147                  22693033.6954
        30.0004         28.7504
  23862083.5274    4838092.92647   3790750.27846                  23862092.0164
        20.0004         19.7504
  25973482.7934     -48128.72845
         8.0004
 02  7 15 19 38 45.0040000  0  9G 3G 9G14G15G11G18G21G31G25
  24148060.1844   14124925.72946  10954928.99746                  24148069.3524
        19.2504         19.7504
  25299549.0744    9018828.11145   4362665.83745                  25299559.2854
        11.0004         10.5004
  21739420.9264    1113875.99847    907585.43347                  21739426.5394
        26.5004         28.7504
  25128057.3944    4933556.41745   3722085.84445                  25128069.8794
        11.7504         11.5004
  26077212.5434    -190750.93245    -91719.83045                  26077226.1294
         7.7504          6.7504
  24566115.5824   16713618.84446  12934757.83346                  24566124.0474
        16.2504         15.2504
  22701244.9494    9335029.26148   7236424.11447                  22701252.6764
        29.7504         28.7504
  23869737.7074    4878315.72147   3822092.70446                  23869745.8094
        20.5004         20.0004
  25970132.7544     -65733.93245
         7.7504
 02  7 15 19 39  0.0050000  0  9G 3G 9G14G15G11G18G21G31G25
  24161232.0794   14194145.44146  11008866.38346                  24161241.7394
        19.5004         20.0004
  25310196.8064    9074783.28245   4406267.29245                  25310206.3604
        11.0004         11.0004
  21744096.1494    1138444.05647    926729.38347                  21744101.8454
        26.5004         28.7504
  25143740.5954    5015967.59546   3786302.27945                  25143751.9894
        12.5004         11.7504
  26073656.1884    -209446.70145   -106287.85145                  26073667.0444
         9.0004          7.5004
  24579126.2204   16781991.45146  12988035.16246                  24579134.9544
        16.5004         15.2504
  22709473.9934    9378273.23448   7270120.70747                  22709481.6384
        29.7504         28.7504
  23877420.9934    4918689.00647   3853552.38846                  23877429.1064
        20.7504         20.0004
  25966781.7284     -83340.03745
         7.7504
 02  7 15 19 39 15.0050000  0  9G 3G 9G14G15G11G18G21G31G25
  24174419.4704   14263443.99747  11062865.20846                  24174428.8254
        20.0004         20.0004
  25320871.7284    9130880.51745   4449979.40645                  25320881.5174
        11.2504         11.0004
  21748797.6104    1163150.15147    945980.89147                  21748803.1304
        26.5004         28.5004
  25159433.1184    5098431.39446   3850559.67346                  25159444.5604
        14.0004         12.5004
  26070102.6424    -228117.70845   -120836.64145                  26070112.5364
         8.5004          7.7504
  24592141.8994   16850388.80146  13041331.77046                  24592150.3534
        16.7504         15.5004
  22717711.9384    9421563.82448   7303853.61947                  22717719.5954
        29.5004         28.7504
  23885130.8764    4959205.99147   3885124.05546                  23885138.9314
        21.7504         20.0004
  25963431.7204    -100945.65145     -9144.43355                  25963445.9384
         7.5004          6.7504
 02  7 15 19 39 30.0050000  0  9G 3G 9G14G15G11G18G21G31G25
  24187621.6814   14332823.34846  11116926.98246                  24187630.6494
        19.7504         19.7504
  25331573.9784    9187120.99945   4493803.17145                  25331584.4934
        11.7504         11.5004
  21753525.1034    1187993.47747    965339.33347                  21753530.5754
        26.5004         28.7504
  25175135.9234    5180950.90146   3914860.50846                  25175146.6144
        13.7504         12.2504
  26066553.0094    -246767.20745   -135368.63545                  26066562.4584
         8.0004          8.0004
  24605163.0094   16918813.00046  13094649.31046                  24605171.0754
        17.5004         14.7504
  22725958.8534    9464901.76548   7337623.42947                  22725966.7554
        29.5004         28.7504
  23892868.6734    4999866.88647   3916807.86346                  23892876.5634
        21.2504         20.2504
  25960080.1184    -118554.05844    -22865.14045                  25960093.7044
         6.7504          6.7504
 02  7 15 19 39 45.0050000  0  9G 3G 9G14G15G11G18G21G31G25
  24200838.2904   14402276.98746  11171046.66546                  24200847.7744
        19.2504         19.7504
  25342302.2904    9243498.46446   4537733.63445                  25342312.4784
        12.0004         11.0004
  21758277.6884    1212967.81447    984799.86247                  21758283.1734
        26.7504         29.0004
  25190848.4384    5263519.78746   3979199.82246                  25190859.7514
        13.2504         12.2504
  26063006.4784    -265401.09045   -149888.45345                  26063016.6884
         7.5004          7.7504
  24618187.4854   16987257.90846  13147982.97246                  24618195.2824
        17.7504         14.7504
  22734213.7284    9508281.08548   7371425.48447                  22734221.5134
        29.5004         28.7504
  23900632.0794    5040665.45147   3948598.93546                  23900640.4154
        21.7504         20.2504
  25956727.8534    -136171.04045    -36592.58345                  25956741.6144
         7.7504          7.5004
 02  7 15 19 40  0.0050000  0  9G 3G 9G14G15G11G18G21G31G25
  24214069.5634   14471808.51346  11225227.00546                  24214079.7514
        19.2504         19.7504
  25353057.4934    9300016.75546   4581773.85145                  25353067.2704
        12.0004         11.5004
  21763055.8454    1238077.21247   1004365.63047                  21763061.3534
        26.7504         29.0004
  25206570.6574    5346141.90646   4043580.59946                  25206582.6854
        12.7504         12.0004
  26059464.1964    -284015.08744   -164392.88645                  26059476.3764
         6.7504          7.0004
  24631217.0634   17055727.47246  13201335.85846                  24631225.1304
        18.2504         15.2504
  22742477.1034    9551705.46748   7405262.65047                  22742484.7594
        29.0004         28.7504
  23908422.8064    5081605.52847   3980500.27446                  23908431.0954
        21.0004         20.0004
  25953375.3604    -153792.21744    -50323.30645                  25953392.4274
         7.2504          8.0004
 02  7 15 19 40 15.0050000  0  9G 3G 9G14G15G11G18G21G31G25
  24227317.5244   14541424.83646  11279473.43046                  24227327.4784
        19.0004         19.5004
  25363840.7284    9356682.86046   4625929.23345                  25363850.4234
        12.2504         11.2504
  21767861.1574    1263328.78947   1024042.18847                  21767866.7474
        26.7504         29.2504
  25222304.0794    5428824.25846   4108008.30646                  25222316.7744
        12.5004         12.0004
  26055927.6494    -302601.80044   -178875.88345                  26055933.8844
         6.5004          7.0004
  24644252.2514   17124228.85846  13254713.52746                  24644259.7554
        18.0004         15.0004
  22750750.7044    9595182.22248   7439140.62247                  22750758.3374
        29.2504         28.5004
  23916241.5014    5122694.23247   4012517.43046                  23916249.8134
        20.7504         20.2504
  25950022.1654    -171410.17445    -64051.44945                  25950037.3104
         7.5004          8.2504
